<?xml version="1.0" encoding="UTF-8" standalone="no" ?>
<gpx xmlns="http://www.topografix.com/GPX/1/1" xmlns:xsi="http://www.w3.org/2001/XMLSchema-instance" xsi:schemaLocation="http://www.topografix.com/GPX/1/1 http://www.topografix.com/GPX/1/1/gpx.xsd" version="1.1" creator="VisuGPX - https://www.visugpx.com">
  <metadata>
    <name>Guerande_Coteaux_13-23km</name>
    <desc><![CDATA[gnerando idor:8655485_13112441_15426717]]></desc>
  </metadata>
  <wpt lat="47.33101" lon="-2.42582">
    <ele>47</ele>
    <name><![CDATA[0000740]]></name>
  </wpt>
  <wpt lat="47.33141" lon="-2.42578">
    <ele>46</ele>
    <name><![CDATA[0000741]]></name>
  </wpt>
  <wpt lat="47.33133" lon="-2.42668">
    <ele>46</ele>
    <name><![CDATA[0000742]]></name>
  </wpt>
  <wpt lat="47.33143" lon="-2.42554">
    <ele>46</ele>
    <name><![CDATA[0000743]]></name>
  </wpt>
  <wpt lat="47.33101" lon="-2.42582">
    <ele>47</ele>
    <name><![CDATA[0000740]]></name>
  </wpt>
  <wpt lat="47.33141" lon="-2.42578">
    <ele>46</ele>
    <name><![CDATA[0000741]]></name>
  </wpt>
  <wpt lat="47.33133" lon="-2.42668">
    <ele>46</ele>
    <name><![CDATA[0000742]]></name>
  </wpt>
  <wpt lat="47.33143" lon="-2.42554">
    <ele>46</ele>
    <name><![CDATA[0000743]]></name>
  </wpt>
  <wpt lat="47.26827" lon="-1.54438">
    <ele>26.6</ele>
    <name><![CDATA[0001501]]></name>
    <desc><![CDATA[<p><br /><h3>Nom: Segment: 1</h3><br />Heure de départ: 12/21/2023 09:39<br/>Heure d'arrivée: 12/21/2023 19:56<br/>Distance: 112,7km (10:17)<br/>Temps déplacement: 07:03<br/>Vitesse moyenne: 10,95 km/h<br/>Vitesse moyenne mouv.: 15,96 km/h<br/>Vitesse Max.: 113,77 km/h<br/>Altitude minimale: 0 m<br/>Altitude maximale: 90 m<br/>Vitesse de montée: 194,2 m/h<br/>Vitesse de descente: -228,9 m/h<br/>Gain d'altitude: 826 m<br/>Perte d'altitude: -843 m<br/>Temps de montée: 04:15<br/>Temps de descente: 03:41<br/></p>]]></desc>
    <type><![CDATA[Point d'arrivée]]></type>
  </wpt>
  <wpt lat="47.33126" lon="-2.42617">
    <ele>46.4</ele>
    <name><![CDATA[0001500]]></name>
  </wpt>
  <wpt lat="47.26827" lon="-1.54438">
    <ele>26.6</ele>
    <name><![CDATA[0001501]]></name>
    <desc><![CDATA[<p><br /><h3>Nom: Segment: 1</h3><br />Heure de départ: 12/21/2023 09:39<br/>Heure d'arrivée: 12/21/2023 19:56<br/>Distance: 112,7km (10:17)<br/>Temps déplacement: 07:03<br/>Vitesse moyenne: 10,95 km/h<br/>Vitesse moyenne mouv.: 15,96 km/h<br/>Vitesse Max.: 113,77 km/h<br/>Altitude minimale: 0 m<br/>Altitude maximale: 90 m<br/>Vitesse de montée: 194,2 m/h<br/>Vitesse de descente: -228,9 m/h<br/>Gain d'altitude: 826 m<br/>Perte d'altitude: -843 m<br/>Temps de montée: 04:15<br/>Temps de descente: 03:41<br/></]]></desc>
  </wpt>
  <trk>
    <name><![CDATA[Guérande_Coteaux_GR3_23.4km-13112441]]></name>
    <extensions>
      <line xmlns="http://www.topografix.com/GPX/gpx_style/0/2">
        <color>0000FF</color>
        <width>4</width>
      </line>
    </extensions>
    <trkseg>
      <trkpt lat="47.33141" lon="-2.42634">
        <ele>46</ele>
        <time>2023-11-01T20:07:03Z</time>
      </trkpt>
      <trkpt lat="47.33136" lon="-2.4266">
        <ele>46</ele>
        <time>2023-11-01T20:07:27Z</time>
      </trkpt>
      <trkpt lat="47.33161" lon="-2.42734">
        <ele>47</ele>
        <time>2023-11-01T20:08:42Z</time>
      </trkpt>
      <trkpt lat="47.33167" lon="-2.42842">
        <ele>48</ele>
        <time>2023-11-01T20:10:20Z</time>
      </trkpt>
      <trkpt lat="47.33176" lon="-2.42867">
        <ele>48</ele>
        <time>2023-11-01T20:10:46Z</time>
      </trkpt>
      <trkpt lat="47.33187" lon="-2.42889">
        <ele>47</ele>
        <time>2023-11-01T20:11:11Z</time>
      </trkpt>
      <trkpt lat="47.33179" lon="-2.42914">
        <ele>48</ele>
        <time>2023-11-01T20:11:36Z</time>
      </trkpt>
      <trkpt lat="47.33186" lon="-2.43022">
        <ele>47</ele>
        <time>2023-11-01T20:13:14Z</time>
      </trkpt>
      <trkpt lat="47.33187" lon="-2.43104">
        <ele>47</ele>
        <time>2023-11-01T20:14:28Z</time>
      </trkpt>
      <trkpt lat="47.33165" lon="-2.43208">
        <ele>48</ele>
        <time>2023-11-01T20:16:06Z</time>
      </trkpt>
      <trkpt lat="47.33148" lon="-2.43257">
        <ele>47</ele>
        <time>2023-11-01T20:16:56Z</time>
      </trkpt>
      <trkpt lat="47.33083" lon="-2.43395">
        <ele>47</ele>
        <time>2023-11-01T20:19:28Z</time>
      </trkpt>
      <trkpt lat="47.33082" lon="-2.43422">
        <ele>47</ele>
        <time>2023-11-01T20:19:53Z</time>
      </trkpt>
      <trkpt lat="47.33105" lon="-2.43498">
        <ele>48</ele>
        <time>2023-11-01T20:21:08Z</time>
      </trkpt>
      <trkpt lat="47.33117" lon="-2.43552">
        <ele>48</ele>
        <time>2023-11-01T20:21:59Z</time>
      </trkpt>
      <trkpt lat="47.33123" lon="-2.43606">
        <ele>48</ele>
        <time>2023-11-01T20:22:49Z</time>
      </trkpt>
      <trkpt lat="47.33143" lon="-2.43683">
        <ele>47</ele>
        <time>2023-11-01T20:24:03Z</time>
      </trkpt>
      <trkpt lat="47.33165" lon="-2.43728">
        <ele>48</ele>
        <time>2023-11-01T20:24:54Z</time>
      </trkpt>
      <trkpt lat="47.33192" lon="-2.43803">
        <ele>47</ele>
        <time>2023-11-01T20:26:10Z</time>
      </trkpt>
      <trkpt lat="47.33222" lon="-2.43872">
        <ele>47</ele>
        <time>2023-11-01T20:27:25Z</time>
      </trkpt>
      <trkpt lat="47.33237" lon="-2.43886">
        <ele>48</ele>
        <time>2023-11-01T20:27:48Z</time>
      </trkpt>
      <trkpt lat="47.33273" lon="-2.43902">
        <ele>48</ele>
        <time>2023-11-01T20:28:38Z</time>
      </trkpt>
      <trkpt lat="47.33343" lon="-2.4394">
        <ele>48</ele>
        <time>2023-11-01T20:30:18Z</time>
      </trkpt>
      <trkpt lat="47.33404" lon="-2.44002">
        <ele>48</ele>
        <time>2023-11-01T20:31:57Z</time>
      </trkpt>
      <trkpt lat="47.33432" lon="-2.44039">
        <ele>48</ele>
        <time>2023-11-01T20:32:47Z</time>
      </trkpt>
      <trkpt lat="47.33462" lon="-2.44069">
        <ele>47</ele>
        <time>2023-11-01T20:33:35Z</time>
      </trkpt>
      <trkpt lat="47.33525" lon="-2.44125">
        <ele>48</ele>
        <time>2023-11-01T20:35:13Z</time>
      </trkpt>
      <trkpt lat="47.33575" lon="-2.44163">
        <ele>48</ele>
        <time>2023-11-01T20:36:28Z</time>
      </trkpt>
      <trkpt lat="47.33591" lon="-2.44178">
        <ele>48</ele>
        <time>2023-11-01T20:36:54Z</time>
      </trkpt>
      <trkpt lat="47.33675" lon="-2.44239">
        <ele>49</ele>
        <time>2023-11-01T20:38:59Z</time>
      </trkpt>
      <trkpt lat="47.33691" lon="-2.44253">
        <ele>49</ele>
        <time>2023-11-01T20:39:24Z</time>
      </trkpt>
      <trkpt lat="47.33705" lon="-2.44271">
        <ele>49</ele>
        <time>2023-11-01T20:39:48Z</time>
      </trkpt>
      <trkpt lat="47.33751" lon="-2.44314">
        <ele>47</ele>
        <time>2023-11-01T20:41:01Z</time>
      </trkpt>
      <trkpt lat="47.33769" lon="-2.44325">
        <ele>47</ele>
        <time>2023-11-01T20:41:27Z</time>
      </trkpt>
      <trkpt lat="47.33783" lon="-2.44343">
        <ele>46</ele>
        <time>2023-11-01T20:41:52Z</time>
      </trkpt>
      <trkpt lat="47.33801" lon="-2.44345">
        <ele>47</ele>
        <time>2023-11-01T20:42:16Z</time>
      </trkpt>
      <trkpt lat="47.3382" lon="-2.44343">
        <ele>47</ele>
        <time>2023-11-01T20:42:41Z</time>
      </trkpt>
      <trkpt lat="47.33838" lon="-2.44348">
        <ele>46</ele>
        <time>2023-11-01T20:43:06Z</time>
      </trkpt>
      <trkpt lat="47.33857" lon="-2.44348">
        <ele>46</ele>
        <time>2023-11-01T20:43:31Z</time>
      </trkpt>
      <trkpt lat="47.33875" lon="-2.44355">
        <ele>45</ele>
        <time>2023-11-01T20:43:56Z</time>
      </trkpt>
      <trkpt lat="47.33893" lon="-2.44351">
        <ele>44</ele>
        <time>2023-11-01T20:44:20Z</time>
      </trkpt>
      <trkpt lat="47.33912" lon="-2.44356">
        <ele>44</ele>
        <time>2023-11-01T20:44:46Z</time>
      </trkpt>
      <trkpt lat="47.34002" lon="-2.44399">
        <ele>42</ele>
        <time>2023-11-01T20:46:52Z</time>
      </trkpt>
      <trkpt lat="47.34034" lon="-2.44427">
        <ele>42</ele>
        <time>2023-11-01T20:47:42Z</time>
      </trkpt>
      <trkpt lat="47.34047" lon="-2.44446">
        <ele>42</ele>
        <time>2023-11-01T20:48:06Z</time>
      </trkpt>
      <trkpt lat="47.34046" lon="-2.44475">
        <ele>42</ele>
        <time>2023-11-01T20:48:33Z</time>
      </trkpt>
      <trkpt lat="47.34052" lon="-2.44584">
        <ele>42</ele>
        <time>2023-11-01T20:50:11Z</time>
      </trkpt>
      <trkpt lat="47.3405" lon="-2.4461">
        <ele>42</ele>
        <time>2023-11-01T20:50:35Z</time>
      </trkpt>
      <trkpt lat="47.34051" lon="-2.44665">
        <ele>42</ele>
        <time>2023-11-01T20:51:25Z</time>
      </trkpt>
      <trkpt lat="47.34034" lon="-2.44772">
        <ele>43</ele>
        <time>2023-11-01T20:53:04Z</time>
      </trkpt>
      <trkpt lat="47.34027" lon="-2.44797">
        <ele>43</ele>
        <time>2023-11-01T20:53:29Z</time>
      </trkpt>
      <trkpt lat="47.34017" lon="-2.44821">
        <ele>43</ele>
        <time>2023-11-01T20:53:54Z</time>
      </trkpt>
      <trkpt lat="47.33999" lon="-2.44898">
        <ele>45</ele>
        <time>2023-11-01T20:55:08Z</time>
      </trkpt>
      <trkpt lat="47.33991" lon="-2.44922">
        <ele>45</ele>
        <time>2023-11-01T20:55:32Z</time>
      </trkpt>
      <trkpt lat="47.33986" lon="-2.44948">
        <ele>45</ele>
        <time>2023-11-01T20:55:56Z</time>
      </trkpt>
      <trkpt lat="47.33986" lon="-2.44976">
        <ele>45</ele>
        <time>2023-11-01T20:56:22Z</time>
      </trkpt>
      <trkpt lat="47.34004" lon="-2.45055">
        <ele>46</ele>
        <time>2023-11-01T20:57:37Z</time>
      </trkpt>
      <trkpt lat="47.34037" lon="-2.45155">
        <ele>46</ele>
        <time>2023-11-01T20:59:18Z</time>
      </trkpt>
      <trkpt lat="47.34056" lon="-2.45233">
        <ele>47</ele>
        <time>2023-11-01T21:00:33Z</time>
      </trkpt>
      <trkpt lat="47.34066" lon="-2.45256">
        <ele>47</ele>
        <time>2023-11-01T21:00:57Z</time>
      </trkpt>
      <trkpt lat="47.34083" lon="-2.45247">
        <ele>47</ele>
        <time>2023-11-01T21:01:21Z</time>
      </trkpt>
      <trkpt lat="47.3415" lon="-2.45199">
        <ele>46</ele>
        <time>2023-11-01T21:03:01Z</time>
      </trkpt>
      <trkpt lat="47.343" lon="-2.45083">
        <ele>46</ele>
        <time>2023-11-01T21:06:47Z</time>
      </trkpt>
      <trkpt lat="47.3433" lon="-2.45053">
        <ele>47</ele>
        <time>2023-11-01T21:07:35Z</time>
      </trkpt>
      <trkpt lat="47.34388" lon="-2.44987">
        <ele>47</ele>
        <time>2023-11-01T21:09:13Z</time>
      </trkpt>
      <trkpt lat="47.34407" lon="-2.44993">
        <ele>46</ele>
        <time>2023-11-01T21:09:39Z</time>
      </trkpt>
      <trkpt lat="47.34416" lon="-2.45018">
        <ele>46</ele>
        <time>2023-11-01T21:10:04Z</time>
      </trkpt>
      <trkpt lat="47.34459" lon="-2.45112">
        <ele>44</ele>
        <time>2023-11-01T21:11:47Z</time>
      </trkpt>
      <trkpt lat="47.34471" lon="-2.45133">
        <ele>43</ele>
        <time>2023-11-01T21:12:12Z</time>
      </trkpt>
      <trkpt lat="47.34484" lon="-2.45152">
        <ele>43</ele>
        <time>2023-11-01T21:12:36Z</time>
      </trkpt>
      <trkpt lat="47.34513" lon="-2.45184">
        <ele>42</ele>
        <time>2023-11-01T21:13:25Z</time>
      </trkpt>
      <trkpt lat="47.3454" lon="-2.45222">
        <ele>42</ele>
        <time>2023-11-01T21:14:14Z</time>
      </trkpt>
      <trkpt lat="47.34565" lon="-2.45265">
        <ele>42</ele>
        <time>2023-11-01T21:15:06Z</time>
      </trkpt>
      <trkpt lat="47.34579" lon="-2.45282">
        <ele>43</ele>
        <time>2023-11-01T21:15:30Z</time>
      </trkpt>
      <trkpt lat="47.3459" lon="-2.45304">
        <ele>43</ele>
        <time>2023-11-01T21:15:55Z</time>
      </trkpt>
      <trkpt lat="47.34658" lon="-2.4547">
        <ele>42</ele>
        <time>2023-11-01T21:18:50Z</time>
      </trkpt>
      <trkpt lat="47.347" lon="-2.45593">
        <ele>44</ele>
        <time>2023-11-01T21:20:54Z</time>
      </trkpt>
      <trkpt lat="47.34734" lon="-2.45659">
        <ele>43</ele>
        <time>2023-11-01T21:22:09Z</time>
      </trkpt>
      <trkpt lat="47.34764" lon="-2.45729">
        <ele>43</ele>
        <time>2023-11-01T21:23:24Z</time>
      </trkpt>
      <trkpt lat="47.34781" lon="-2.45809">
        <ele>42</ele>
        <time>2023-11-01T21:24:40Z</time>
      </trkpt>
      <trkpt lat="47.34784" lon="-2.45836">
        <ele>42</ele>
        <time>2023-11-01T21:25:05Z</time>
      </trkpt>
      <trkpt lat="47.34783" lon="-2.45864">
        <ele>42</ele>
        <time>2023-11-01T21:25:30Z</time>
      </trkpt>
      <trkpt lat="47.34796" lon="-2.45915">
        <ele>40</ele>
        <time>2023-11-01T21:26:19Z</time>
      </trkpt>
      <trkpt lat="47.34804" lon="-2.45968">
        <ele>39</ele>
        <time>2023-11-01T21:27:09Z</time>
      </trkpt>
      <trkpt lat="47.34806" lon="-2.46023">
        <ele>38</ele>
        <time>2023-11-01T21:27:58Z</time>
      </trkpt>
      <trkpt lat="47.3482" lon="-2.46104">
        <ele>36</ele>
        <time>2023-11-01T21:29:14Z</time>
      </trkpt>
      <trkpt lat="47.34817" lon="-2.46131">
        <ele>37</ele>
        <time>2023-11-01T21:29:39Z</time>
      </trkpt>
      <trkpt lat="47.34821" lon="-2.46158">
        <ele>37</ele>
        <time>2023-11-01T21:30:04Z</time>
      </trkpt>
      <trkpt lat="47.34819" lon="-2.46186">
        <ele>38</ele>
        <time>2023-11-01T21:30:29Z</time>
      </trkpt>
      <trkpt lat="47.34824" lon="-2.46213">
        <ele>38</ele>
        <time>2023-11-01T21:30:54Z</time>
      </trkpt>
      <trkpt lat="47.34824" lon="-2.4624">
        <ele>39</ele>
        <time>2023-11-01T21:31:19Z</time>
      </trkpt>
      <trkpt lat="47.34828" lon="-2.46267">
        <ele>39</ele>
        <time>2023-11-01T21:31:44Z</time>
      </trkpt>
      <trkpt lat="47.34829" lon="-2.46295">
        <ele>38</ele>
        <time>2023-11-01T21:32:09Z</time>
      </trkpt>
      <trkpt lat="47.34845" lon="-2.4643">
        <ele>38</ele>
        <time>2023-11-01T21:34:13Z</time>
      </trkpt>
      <trkpt lat="47.34849" lon="-2.46457">
        <ele>38</ele>
        <time>2023-11-01T21:34:38Z</time>
      </trkpt>
      <trkpt lat="47.34856" lon="-2.46482">
        <ele>37</ele>
        <time>2023-11-01T21:35:03Z</time>
      </trkpt>
      <trkpt lat="47.34849" lon="-2.46536">
        <ele>38</ele>
        <time>2023-11-01T21:35:52Z</time>
      </trkpt>
      <trkpt lat="47.34852" lon="-2.46592">
        <ele>39</ele>
        <time>2023-11-01T21:36:43Z</time>
      </trkpt>
      <trkpt lat="47.34857" lon="-2.46618">
        <ele>40</ele>
        <time>2023-11-01T21:37:07Z</time>
      </trkpt>
      <trkpt lat="47.3487" lon="-2.46754">
        <ele>41</ele>
        <time>2023-11-01T21:39:12Z</time>
      </trkpt>
      <trkpt lat="47.34875" lon="-2.46837">
        <ele>41</ele>
        <time>2023-11-01T21:40:27Z</time>
      </trkpt>
      <trkpt lat="47.3489" lon="-2.46919">
        <ele>42</ele>
        <time>2023-11-01T21:41:44Z</time>
      </trkpt>
      <trkpt lat="47.34899" lon="-2.46999">
        <ele>44</ele>
        <time>2023-11-01T21:42:57Z</time>
      </trkpt>
      <trkpt lat="47.34905" lon="-2.47025">
        <ele>43</ele>
        <time>2023-11-01T21:43:22Z</time>
      </trkpt>
      <trkpt lat="47.3492" lon="-2.47075">
        <ele>43</ele>
        <time>2023-11-01T21:44:11Z</time>
      </trkpt>
      <trkpt lat="47.34969" lon="-2.47193">
        <ele>41</ele>
        <time>2023-11-01T21:46:17Z</time>
      </trkpt>
      <trkpt lat="47.35016" lon="-2.47343">
        <ele>39</ele>
        <time>2023-11-01T21:48:46Z</time>
      </trkpt>
      <trkpt lat="47.35025" lon="-2.47424">
        <ele>38</ele>
        <time>2023-11-01T21:50:00Z</time>
      </trkpt>
      <trkpt lat="47.35026" lon="-2.47453">
        <ele>38</ele>
        <time>2023-11-01T21:50:26Z</time>
      </trkpt>
      <trkpt lat="47.35032" lon="-2.4748">
        <ele>38</ele>
        <time>2023-11-01T21:50:52Z</time>
      </trkpt>
      <trkpt lat="47.3504" lon="-2.47562">
        <ele>37</ele>
        <time>2023-11-01T21:52:07Z</time>
      </trkpt>
      <trkpt lat="47.3504" lon="-2.4759">
        <ele>36</ele>
        <time>2023-11-01T21:52:32Z</time>
      </trkpt>
      <trkpt lat="47.35047" lon="-2.47674">
        <ele>36</ele>
        <time>2023-11-01T21:53:49Z</time>
      </trkpt>
      <trkpt lat="47.35033" lon="-2.47724">
        <ele>37</ele>
        <time>2023-11-01T21:54:38Z</time>
      </trkpt>
      <trkpt lat="47.35004" lon="-2.47758">
        <ele>37</ele>
        <time>2023-11-01T21:55:27Z</time>
      </trkpt>
      <trkpt lat="47.3498" lon="-2.47799">
        <ele>37</ele>
        <time>2023-11-01T21:56:16Z</time>
      </trkpt>
      <trkpt lat="47.34959" lon="-2.47846">
        <ele>36</ele>
        <time>2023-11-01T21:57:07Z</time>
      </trkpt>
      <trkpt lat="47.34934" lon="-2.47887">
        <ele>36</ele>
        <time>2023-11-01T21:57:57Z</time>
      </trkpt>
      <trkpt lat="47.34912" lon="-2.47929">
        <ele>36</ele>
        <time>2023-11-01T21:58:45Z</time>
      </trkpt>
      <trkpt lat="47.34898" lon="-2.47947">
        <ele>36</ele>
        <time>2023-11-01T21:59:10Z</time>
      </trkpt>
      <trkpt lat="47.34833" lon="-2.48046">
        <ele>35</ele>
        <time>2023-11-01T22:01:14Z</time>
      </trkpt>
      <trkpt lat="47.34819" lon="-2.48063">
        <ele>35</ele>
        <time>2023-11-01T22:01:39Z</time>
      </trkpt>
      <trkpt lat="47.34795" lon="-2.48103">
        <ele>34</ele>
        <time>2023-11-01T22:02:27Z</time>
      </trkpt>
      <trkpt lat="47.34764" lon="-2.48137">
        <ele>34</ele>
        <time>2023-11-01T22:03:18Z</time>
      </trkpt>
      <trkpt lat="47.34747" lon="-2.48148">
        <ele>34</ele>
        <time>2023-11-01T22:03:43Z</time>
      </trkpt>
      <trkpt lat="47.34693" lon="-2.48156">
        <ele>33</ele>
        <time>2023-11-01T22:04:56Z</time>
      </trkpt>
      <trkpt lat="47.34675" lon="-2.48165">
        <ele>33</ele>
        <time>2023-11-01T22:05:21Z</time>
      </trkpt>
      <trkpt lat="47.34627" lon="-2.48207">
        <ele>32</ele>
        <time>2023-11-01T22:06:35Z</time>
      </trkpt>
      <trkpt lat="47.34584" lon="-2.48259">
        <ele>31</ele>
        <time>2023-11-01T22:07:50Z</time>
      </trkpt>
      <trkpt lat="47.34571" lon="-2.48279">
        <ele>30</ele>
        <time>2023-11-01T22:08:15Z</time>
      </trkpt>
      <trkpt lat="47.3456" lon="-2.48302">
        <ele>29</ele>
        <time>2023-11-01T22:08:40Z</time>
      </trkpt>
      <trkpt lat="47.34552" lon="-2.48328">
        <ele>29</ele>
        <time>2023-11-01T22:09:06Z</time>
      </trkpt>
      <trkpt lat="47.34555" lon="-2.48381">
        <ele>29</ele>
        <time>2023-11-01T22:09:54Z</time>
      </trkpt>
      <trkpt lat="47.34547" lon="-2.48328">
        <ele>29</ele>
        <time>2023-11-01T22:10:43Z</time>
      </trkpt>
      <trkpt lat="47.34555" lon="-2.48303">
        <ele>29</ele>
        <time>2023-11-01T22:11:08Z</time>
      </trkpt>
      <trkpt lat="47.34542" lon="-2.48284">
        <ele>29</ele>
        <time>2023-11-01T22:11:33Z</time>
      </trkpt>
      <trkpt lat="47.34554" lon="-2.48338">
        <ele>29</ele>
        <time>2023-11-01T22:12:24Z</time>
      </trkpt>
      <trkpt lat="47.34554" lon="-2.48366">
        <ele>29</ele>
        <time>2023-11-01T22:12:49Z</time>
      </trkpt>
      <trkpt lat="47.34516" lon="-2.48425">
        <ele>27</ele>
        <time>2023-11-01T22:14:03Z</time>
      </trkpt>
      <trkpt lat="47.34513" lon="-2.48451">
        <ele>27</ele>
        <time>2023-11-01T22:14:27Z</time>
      </trkpt>
      <trkpt lat="47.34513" lon="-2.48506">
        <ele>26</ele>
        <time>2023-11-01T22:15:16Z</time>
      </trkpt>
      <trkpt lat="47.34477" lon="-2.48496">
        <ele>24</ele>
        <time>2023-11-01T22:16:05Z</time>
      </trkpt>
      <trkpt lat="47.34437" lon="-2.4844">
        <ele>23</ele>
        <time>2023-11-01T22:17:19Z</time>
      </trkpt>
      <trkpt lat="47.34404" lon="-2.48416">
        <ele>21</ele>
        <time>2023-11-01T22:18:08Z</time>
      </trkpt>
      <trkpt lat="47.34389" lon="-2.48401">
        <ele>19</ele>
        <time>2023-11-01T22:18:32Z</time>
      </trkpt>
      <trkpt lat="47.34372" lon="-2.48393">
        <ele>17</ele>
        <time>2023-11-01T22:18:56Z</time>
      </trkpt>
      <trkpt lat="47.34353" lon="-2.48391">
        <ele>14</ele>
        <time>2023-11-01T22:19:21Z</time>
      </trkpt>
      <trkpt lat="47.34318" lon="-2.48379">
        <ele>11</ele>
        <time>2023-11-01T22:20:09Z</time>
      </trkpt>
      <trkpt lat="47.34299" lon="-2.48379">
        <ele>10</ele>
        <time>2023-11-01T22:20:35Z</time>
      </trkpt>
      <trkpt lat="47.34281" lon="-2.48385">
        <ele>10</ele>
        <time>2023-11-01T22:20:59Z</time>
      </trkpt>
      <trkpt lat="47.34263" lon="-2.48386">
        <ele>10</ele>
        <time>2023-11-01T22:21:23Z</time>
      </trkpt>
      <trkpt lat="47.34245" lon="-2.48382">
        <ele>9</ele>
        <time>2023-11-01T22:21:48Z</time>
      </trkpt>
      <trkpt lat="47.34228" lon="-2.48373">
        <ele>9</ele>
        <time>2023-11-01T22:22:12Z</time>
      </trkpt>
      <trkpt lat="47.34212" lon="-2.4836">
        <ele>9</ele>
        <time>2023-11-01T22:22:36Z</time>
      </trkpt>
      <trkpt lat="47.3417" lon="-2.48305">
        <ele>10</ele>
        <time>2023-11-01T22:23:51Z</time>
      </trkpt>
      <trkpt lat="47.34155" lon="-2.48288">
        <ele>10</ele>
        <time>2023-11-01T22:24:16Z</time>
      </trkpt>
      <trkpt lat="47.34139" lon="-2.48275">
        <ele>10</ele>
        <time>2023-11-01T22:24:41Z</time>
      </trkpt>
      <trkpt lat="47.34067" lon="-2.48249">
        <ele>13</ele>
        <time>2023-11-01T22:26:20Z</time>
      </trkpt>
      <trkpt lat="47.34049" lon="-2.48246">
        <ele>13</ele>
        <time>2023-11-01T22:26:44Z</time>
      </trkpt>
      <trkpt lat="47.33975" lon="-2.48224">
        <ele>13</ele>
        <time>2023-11-01T22:28:25Z</time>
      </trkpt>
      <trkpt lat="47.33956" lon="-2.48225">
        <ele>13</ele>
        <time>2023-11-01T22:28:50Z</time>
      </trkpt>
      <trkpt lat="47.33938" lon="-2.48232">
        <ele>13</ele>
        <time>2023-11-01T22:29:15Z</time>
      </trkpt>
      <trkpt lat="47.33905" lon="-2.48255">
        <ele>13</ele>
        <time>2023-11-01T22:30:03Z</time>
      </trkpt>
      <trkpt lat="47.33886" lon="-2.48264">
        <ele>12</ele>
        <time>2023-11-01T22:30:30Z</time>
      </trkpt>
      <trkpt lat="47.33812" lon="-2.48287">
        <ele>11</ele>
        <time>2023-11-01T22:32:11Z</time>
      </trkpt>
      <trkpt lat="47.33777" lon="-2.48305">
        <ele>11</ele>
        <time>2023-11-01T22:33:00Z</time>
      </trkpt>
      <trkpt lat="47.33743" lon="-2.48326">
        <ele>10</ele>
        <time>2023-11-01T22:33:50Z</time>
      </trkpt>
      <trkpt lat="47.33725" lon="-2.48332">
        <ele>9</ele>
        <time>2023-11-01T22:34:14Z</time>
      </trkpt>
      <trkpt lat="47.33722" lon="-2.48306">
        <ele>9</ele>
        <time>2023-11-01T22:34:38Z</time>
      </trkpt>
      <trkpt lat="47.33731" lon="-2.48142">
        <ele>11</ele>
        <time>2023-11-01T22:37:07Z</time>
      </trkpt>
      <trkpt lat="47.33737" lon="-2.48116">
        <ele>11</ele>
        <time>2023-11-01T22:37:32Z</time>
      </trkpt>
      <trkpt lat="47.33744" lon="-2.4806">
        <ele>12</ele>
        <time>2023-11-01T22:38:23Z</time>
      </trkpt>
      <trkpt lat="47.33754" lon="-2.48007">
        <ele>13</ele>
        <time>2023-11-01T22:39:13Z</time>
      </trkpt>
      <trkpt lat="47.33767" lon="-2.47956">
        <ele>14</ele>
        <time>2023-11-01T22:40:02Z</time>
      </trkpt>
      <trkpt lat="47.33776" lon="-2.47932">
        <ele>14</ele>
        <time>2023-11-01T22:40:27Z</time>
      </trkpt>
      <trkpt lat="47.33847" lon="-2.47803">
        <ele>19</ele>
        <time>2023-11-01T22:42:57Z</time>
      </trkpt>
      <trkpt lat="47.33848" lon="-2.47775">
        <ele>20</ele>
        <time>2023-11-01T22:43:23Z</time>
      </trkpt>
      <trkpt lat="47.33793" lon="-2.47699">
        <ele>21</ele>
        <time>2023-11-01T22:45:03Z</time>
      </trkpt>
      <trkpt lat="47.33764" lon="-2.47664">
        <ele>22</ele>
        <time>2023-11-01T22:45:53Z</time>
      </trkpt>
      <trkpt lat="47.33755" lon="-2.47641">
        <ele>22</ele>
        <time>2023-11-01T22:46:17Z</time>
      </trkpt>
      <trkpt lat="47.3374" lon="-2.47625">
        <ele>22</ele>
        <time>2023-11-01T22:46:42Z</time>
      </trkpt>
      <trkpt lat="47.33722" lon="-2.47619">
        <ele>22</ele>
        <time>2023-11-01T22:47:07Z</time>
      </trkpt>
      <trkpt lat="47.33703" lon="-2.47619">
        <ele>22</ele>
        <time>2023-11-01T22:47:32Z</time>
      </trkpt>
      <trkpt lat="47.33685" lon="-2.47625">
        <ele>22</ele>
        <time>2023-11-01T22:47:57Z</time>
      </trkpt>
      <trkpt lat="47.33635" lon="-2.47663">
        <ele>21</ele>
        <time>2023-11-01T22:49:12Z</time>
      </trkpt>
      <trkpt lat="47.33618" lon="-2.47673">
        <ele>21</ele>
        <time>2023-11-01T22:49:36Z</time>
      </trkpt>
      <trkpt lat="47.33602" lon="-2.47689">
        <ele>21</ele>
        <time>2023-11-01T22:50:02Z</time>
      </trkpt>
      <trkpt lat="47.33586" lon="-2.47701">
        <ele>21</ele>
        <time>2023-11-01T22:50:26Z</time>
      </trkpt>
      <trkpt lat="47.33569" lon="-2.47697">
        <ele>20</ele>
        <time>2023-11-01T22:50:49Z</time>
      </trkpt>
      <trkpt lat="47.33553" lon="-2.47681">
        <ele>20</ele>
        <time>2023-11-01T22:51:15Z</time>
      </trkpt>
      <trkpt lat="47.33534" lon="-2.47675">
        <ele>20</ele>
        <time>2023-11-01T22:51:40Z</time>
      </trkpt>
      <trkpt lat="47.33519" lon="-2.47657">
        <ele>20</ele>
        <time>2023-11-01T22:52:06Z</time>
      </trkpt>
      <trkpt lat="47.33499" lon="-2.47613">
        <ele>22</ele>
        <time>2023-11-01T22:52:54Z</time>
      </trkpt>
      <trkpt lat="47.33483" lon="-2.47601">
        <ele>21</ele>
        <time>2023-11-01T22:53:18Z</time>
      </trkpt>
      <trkpt lat="47.3347" lon="-2.47581">
        <ele>21</ele>
        <time>2023-11-01T22:53:43Z</time>
      </trkpt>
      <trkpt lat="47.33448" lon="-2.47535">
        <ele>20</ele>
        <time>2023-11-01T22:54:34Z</time>
      </trkpt>
      <trkpt lat="47.3343" lon="-2.47486">
        <ele>20</ele>
        <time>2023-11-01T22:55:25Z</time>
      </trkpt>
      <trkpt lat="47.33419" lon="-2.47463">
        <ele>20</ele>
        <time>2023-11-01T22:55:50Z</time>
      </trkpt>
      <trkpt lat="47.33411" lon="-2.47409">
        <ele>21</ele>
        <time>2023-11-01T22:56:40Z</time>
      </trkpt>
      <trkpt lat="47.33394" lon="-2.4736">
        <ele>21</ele>
        <time>2023-11-01T22:57:30Z</time>
      </trkpt>
      <trkpt lat="47.33388" lon="-2.47334">
        <ele>21</ele>
        <time>2023-11-01T22:57:55Z</time>
      </trkpt>
      <trkpt lat="47.33383" lon="-2.47279">
        <ele>20</ele>
        <time>2023-11-01T22:58:45Z</time>
      </trkpt>
      <trkpt lat="47.33365" lon="-2.47144">
        <ele>19</ele>
        <time>2023-11-01T23:00:49Z</time>
      </trkpt>
      <trkpt lat="47.33351" lon="-2.47091">
        <ele>17</ele>
        <time>2023-11-01T23:01:41Z</time>
      </trkpt>
      <trkpt lat="47.33347" lon="-2.47037">
        <ele>17</ele>
        <time>2023-11-01T23:02:30Z</time>
      </trkpt>
      <trkpt lat="47.33342" lon="-2.47011">
        <ele>16</ele>
        <time>2023-11-01T23:02:54Z</time>
      </trkpt>
      <trkpt lat="47.33301" lon="-2.46858">
        <ele>23</ele>
        <time>2023-11-01T23:05:23Z</time>
      </trkpt>
      <trkpt lat="47.33284" lon="-2.4681">
        <ele>24</ele>
        <time>2023-11-01T23:06:12Z</time>
      </trkpt>
      <trkpt lat="47.33272" lon="-2.46789">
        <ele>24</ele>
        <time>2023-11-01T23:06:37Z</time>
      </trkpt>
      <trkpt lat="47.33255" lon="-2.46781">
        <ele>23</ele>
        <time>2023-11-01T23:07:01Z</time>
      </trkpt>
      <trkpt lat="47.33236" lon="-2.46788">
        <ele>22</ele>
        <time>2023-11-01T23:07:27Z</time>
      </trkpt>
      <trkpt lat="47.33218" lon="-2.46789">
        <ele>22</ele>
        <time>2023-11-01T23:07:51Z</time>
      </trkpt>
      <trkpt lat="47.33201" lon="-2.46775">
        <ele>21</ele>
        <time>2023-11-01T23:08:17Z</time>
      </trkpt>
      <trkpt lat="47.33156" lon="-2.46724">
        <ele>20</ele>
        <time>2023-11-01T23:09:33Z</time>
      </trkpt>
      <trkpt lat="47.33146" lon="-2.46701">
        <ele>19</ele>
        <time>2023-11-01T23:09:57Z</time>
      </trkpt>
      <trkpt lat="47.33133" lon="-2.46681">
        <ele>19</ele>
        <time>2023-11-01T23:10:22Z</time>
      </trkpt>
      <trkpt lat="47.33099" lon="-2.46617">
        <ele>18</ele>
        <time>2023-11-01T23:11:36Z</time>
      </trkpt>
      <trkpt lat="47.33078" lon="-2.4654">
        <ele>18</ele>
        <time>2023-11-01T23:12:51Z</time>
      </trkpt>
      <trkpt lat="47.33061" lon="-2.46532">
        <ele>17</ele>
        <time>2023-11-01T23:13:15Z</time>
      </trkpt>
      <trkpt lat="47.33043" lon="-2.4654">
        <ele>15</ele>
        <time>2023-11-01T23:13:40Z</time>
      </trkpt>
      <trkpt lat="47.33024" lon="-2.46538">
        <ele>13</ele>
        <time>2023-11-01T23:14:05Z</time>
      </trkpt>
      <trkpt lat="47.32989" lon="-2.46555">
        <ele>11</ele>
        <time>2023-11-01T23:14:54Z</time>
      </trkpt>
      <trkpt lat="47.32971" lon="-2.46561">
        <ele>10</ele>
        <time>2023-11-01T23:15:19Z</time>
      </trkpt>
      <trkpt lat="47.32955" lon="-2.46548">
        <ele>10</ele>
        <time>2023-11-01T23:15:43Z</time>
      </trkpt>
      <trkpt lat="47.3296" lon="-2.46467">
        <ele>12</ele>
        <time>2023-11-01T23:16:57Z</time>
      </trkpt>
      <trkpt lat="47.32962" lon="-2.46383">
        <ele>17</ele>
        <time>2023-11-01T23:18:13Z</time>
      </trkpt>
      <trkpt lat="47.3295" lon="-2.4633">
        <ele>20</ele>
        <time>2023-11-01T23:19:04Z</time>
      </trkpt>
      <trkpt lat="47.32899" lon="-2.46153">
        <ele>24</ele>
        <time>2023-11-01T23:21:58Z</time>
      </trkpt>
      <trkpt lat="47.32881" lon="-2.46159">
        <ele>22</ele>
        <time>2023-11-01T23:22:22Z</time>
      </trkpt>
      <trkpt lat="47.32864" lon="-2.4617">
        <ele>21</ele>
        <time>2023-11-01T23:22:47Z</time>
      </trkpt>
      <trkpt lat="47.32851" lon="-2.46189">
        <ele>19</ele>
        <time>2023-11-01T23:23:11Z</time>
      </trkpt>
      <trkpt lat="47.32834" lon="-2.46199">
        <ele>18</ele>
        <time>2023-11-01T23:23:36Z</time>
      </trkpt>
      <trkpt lat="47.32815" lon="-2.46189">
        <ele>17</ele>
        <time>2023-11-01T23:24:03Z</time>
      </trkpt>
      <trkpt lat="47.32797" lon="-2.46185">
        <ele>16</ele>
        <time>2023-11-01T23:24:27Z</time>
      </trkpt>
      <trkpt lat="47.32768" lon="-2.46152">
        <ele>14</ele>
        <time>2023-11-01T23:25:16Z</time>
      </trkpt>
      <trkpt lat="47.32762" lon="-2.46127">
        <ele>14</ele>
        <time>2023-11-01T23:25:40Z</time>
      </trkpt>
      <trkpt lat="47.32753" lon="-2.46103">
        <ele>14</ele>
        <time>2023-11-01T23:26:05Z</time>
      </trkpt>
      <trkpt lat="47.32741" lon="-2.46082">
        <ele>13</ele>
        <time>2023-11-01T23:26:29Z</time>
      </trkpt>
      <trkpt lat="47.32698" lon="-2.46029">
        <ele>10</ele>
        <time>2023-11-01T23:27:44Z</time>
      </trkpt>
      <trkpt lat="47.32671" lon="-2.4599">
        <ele>9</ele>
        <time>2023-11-01T23:28:35Z</time>
      </trkpt>
      <trkpt lat="47.32655" lon="-2.45978">
        <ele>9</ele>
        <time>2023-11-01T23:28:59Z</time>
      </trkpt>
      <trkpt lat="47.3264" lon="-2.45961">
        <ele>9</ele>
        <time>2023-11-01T23:29:24Z</time>
      </trkpt>
      <trkpt lat="47.32588" lon="-2.45884">
        <ele>10</ele>
        <time>2023-11-01T23:31:02Z</time>
      </trkpt>
      <trkpt lat="47.32573" lon="-2.45866">
        <ele>9</ele>
        <time>2023-11-01T23:31:28Z</time>
      </trkpt>
      <trkpt lat="47.32549" lon="-2.45824">
        <ele>9</ele>
        <time>2023-11-01T23:32:18Z</time>
      </trkpt>
      <trkpt lat="47.32534" lon="-2.45807">
        <ele>8</ele>
        <time>2023-11-01T23:32:43Z</time>
      </trkpt>
      <trkpt lat="47.325" lon="-2.45742">
        <ele>8</ele>
        <time>2023-11-01T23:33:57Z</time>
      </trkpt>
      <trkpt lat="47.32435" lon="-2.45641">
        <ele>9</ele>
        <time>2023-11-01T23:36:03Z</time>
      </trkpt>
      <trkpt lat="47.32413" lon="-2.45598">
        <ele>10</ele>
        <time>2023-11-01T23:36:52Z</time>
      </trkpt>
      <trkpt lat="47.32388" lon="-2.45557">
        <ele>10</ele>
        <time>2023-11-01T23:37:42Z</time>
      </trkpt>
      <trkpt lat="47.32381" lon="-2.45532">
        <ele>10</ele>
        <time>2023-11-01T23:38:06Z</time>
      </trkpt>
      <trkpt lat="47.32367" lon="-2.45512">
        <ele>10</ele>
        <time>2023-11-01T23:38:32Z</time>
      </trkpt>
      <trkpt lat="47.32344" lon="-2.45469">
        <ele>10</ele>
        <time>2023-11-01T23:39:22Z</time>
      </trkpt>
      <trkpt lat="47.32318" lon="-2.4543">
        <ele>10</ele>
        <time>2023-11-01T23:40:11Z</time>
      </trkpt>
      <trkpt lat="47.32318" lon="-2.45403">
        <ele>11</ele>
        <time>2023-11-01T23:40:36Z</time>
      </trkpt>
      <trkpt lat="47.32313" lon="-2.45348">
        <ele>11</ele>
        <time>2023-11-01T23:41:26Z</time>
      </trkpt>
      <trkpt lat="47.32314" lon="-2.45321">
        <ele>12</ele>
        <time>2023-11-01T23:41:50Z</time>
      </trkpt>
      <trkpt lat="47.32309" lon="-2.45294">
        <ele>12</ele>
        <time>2023-11-01T23:42:16Z</time>
      </trkpt>
      <trkpt lat="47.32294" lon="-2.45243">
        <ele>12</ele>
        <time>2023-11-01T23:43:06Z</time>
      </trkpt>
      <trkpt lat="47.32281" lon="-2.45222">
        <ele>12</ele>
        <time>2023-11-01T23:43:32Z</time>
      </trkpt>
      <trkpt lat="47.32272" lon="-2.45199">
        <ele>12</ele>
        <time>2023-11-01T23:43:56Z</time>
      </trkpt>
      <trkpt lat="47.32261" lon="-2.45146">
        <ele>13</ele>
        <time>2023-11-01T23:44:46Z</time>
      </trkpt>
      <trkpt lat="47.32245" lon="-2.45096">
        <ele>14</ele>
        <time>2023-11-01T23:45:36Z</time>
      </trkpt>
      <trkpt lat="47.32222" lon="-2.45052">
        <ele>14</ele>
        <time>2023-11-01T23:46:26Z</time>
      </trkpt>
      <trkpt lat="47.32222" lon="-2.45025">
        <ele>15</ele>
        <time>2023-11-01T23:46:51Z</time>
      </trkpt>
      <trkpt lat="47.32264" lon="-2.44974">
        <ele>19</ele>
        <time>2023-11-01T23:48:03Z</time>
      </trkpt>
      <trkpt lat="47.32309" lon="-2.44925">
        <ele>21</ele>
        <time>2023-11-01T23:49:18Z</time>
      </trkpt>
      <trkpt lat="47.3235" lon="-2.44869">
        <ele>24</ele>
        <time>2023-11-01T23:50:32Z</time>
      </trkpt>
      <trkpt lat="47.32381" lon="-2.44842">
        <ele>27</ele>
        <time>2023-11-01T23:51:20Z</time>
      </trkpt>
      <trkpt lat="47.32398" lon="-2.44832">
        <ele>28</ele>
        <time>2023-11-01T23:51:45Z</time>
      </trkpt>
      <trkpt lat="47.32466" lon="-2.44782">
        <ele>34</ele>
        <time>2023-11-01T23:53:26Z</time>
      </trkpt>
      <trkpt lat="47.32498" lon="-2.44754">
        <ele>36</ele>
        <time>2023-11-01T23:54:16Z</time>
      </trkpt>
      <trkpt lat="47.32515" lon="-2.44743">
        <ele>37</ele>
        <time>2023-11-01T23:54:41Z</time>
      </trkpt>
      <trkpt lat="47.32582" lon="-2.44648">
        <ele>40</ele>
        <time>2023-11-01T23:56:45Z</time>
      </trkpt>
      <trkpt lat="47.32597" lon="-2.44632">
        <ele>40</ele>
        <time>2023-11-01T23:57:09Z</time>
      </trkpt>
      <trkpt lat="47.32634" lon="-2.4457">
        <ele>41</ele>
        <time>2023-11-01T23:58:24Z</time>
      </trkpt>
      <trkpt lat="47.32645" lon="-2.44547">
        <ele>41</ele>
        <time>2023-11-01T23:58:50Z</time>
      </trkpt>
      <trkpt lat="47.3267" lon="-2.44508">
        <ele>42</ele>
        <time>2023-11-01T23:59:38Z</time>
      </trkpt>
      <trkpt lat="47.32703" lon="-2.44481">
        <ele>42</ele>
        <time>2023-11-02T00:00:28Z</time>
      </trkpt>
      <trkpt lat="47.32721" lon="-2.4447">
        <ele>43</ele>
        <time>2023-11-02T00:00:54Z</time>
      </trkpt>
      <trkpt lat="47.32751" lon="-2.44439">
        <ele>43</ele>
        <time>2023-11-02T00:01:43Z</time>
      </trkpt>
      <trkpt lat="47.32743" lon="-2.44414">
        <ele>43</ele>
        <time>2023-11-02T00:02:08Z</time>
      </trkpt>
      <trkpt lat="47.32755" lon="-2.44394">
        <ele>43</ele>
        <time>2023-11-02T00:02:32Z</time>
      </trkpt>
      <trkpt lat="47.32759" lon="-2.44338">
        <ele>42</ele>
        <time>2023-11-02T00:03:23Z</time>
      </trkpt>
      <trkpt lat="47.3277" lon="-2.44258">
        <ele>43</ele>
        <time>2023-11-02T00:04:37Z</time>
      </trkpt>
      <trkpt lat="47.32773" lon="-2.44202">
        <ele>43</ele>
        <time>2023-11-02T00:05:28Z</time>
      </trkpt>
      <trkpt lat="47.32772" lon="-2.44147">
        <ele>44</ele>
        <time>2023-11-02T00:06:18Z</time>
      </trkpt>
      <trkpt lat="47.32766" lon="-2.44092">
        <ele>45</ele>
        <time>2023-11-02T00:07:08Z</time>
      </trkpt>
      <trkpt lat="47.32749" lon="-2.44013">
        <ele>44</ele>
        <time>2023-11-02T00:08:23Z</time>
      </trkpt>
      <trkpt lat="47.32742" lon="-2.43958">
        <ele>43</ele>
        <time>2023-11-02T00:09:14Z</time>
      </trkpt>
      <trkpt lat="47.32726" lon="-2.43879">
        <ele>43</ele>
        <time>2023-11-02T00:10:28Z</time>
      </trkpt>
      <trkpt lat="47.32717" lon="-2.43855">
        <ele>44</ele>
        <time>2023-11-02T00:10:53Z</time>
      </trkpt>
      <trkpt lat="47.32725" lon="-2.4383">
        <ele>44</ele>
        <time>2023-11-02T00:11:18Z</time>
      </trkpt>
      <trkpt lat="47.3273" lon="-2.43776">
        <ele>45</ele>
        <time>2023-11-02T00:12:08Z</time>
      </trkpt>
      <trkpt lat="47.3273" lon="-2.43668">
        <ele>46</ele>
        <time>2023-11-02T00:13:45Z</time>
      </trkpt>
      <trkpt lat="47.32715" lon="-2.43587">
        <ele>46</ele>
        <time>2023-11-02T00:15:01Z</time>
      </trkpt>
      <trkpt lat="47.32718" lon="-2.43532">
        <ele>45</ele>
        <time>2023-11-02T00:15:51Z</time>
      </trkpt>
      <trkpt lat="47.32712" lon="-2.43505">
        <ele>45</ele>
        <time>2023-11-02T00:16:17Z</time>
      </trkpt>
      <trkpt lat="47.32713" lon="-2.43478">
        <ele>45</ele>
        <time>2023-11-02T00:16:41Z</time>
      </trkpt>
      <trkpt lat="47.32709" lon="-2.43451">
        <ele>45</ele>
        <time>2023-11-02T00:17:06Z</time>
      </trkpt>
      <trkpt lat="47.32709" lon="-2.43424">
        <ele>45</ele>
        <time>2023-11-02T00:17:31Z</time>
      </trkpt>
      <trkpt lat="47.32703" lon="-2.43368">
        <ele>45</ele>
        <time>2023-11-02T00:18:22Z</time>
      </trkpt>
      <trkpt lat="47.32707" lon="-2.43341">
        <ele>45</ele>
        <time>2023-11-02T00:18:47Z</time>
      </trkpt>
      <trkpt lat="47.32701" lon="-2.43314">
        <ele>45</ele>
        <time>2023-11-02T00:19:13Z</time>
      </trkpt>
      <trkpt lat="47.3271" lon="-2.4329">
        <ele>46</ele>
        <time>2023-11-02T00:19:37Z</time>
      </trkpt>
      <trkpt lat="47.32713" lon="-2.43262">
        <ele>46</ele>
        <time>2023-11-02T00:20:03Z</time>
      </trkpt>
      <trkpt lat="47.32708" lon="-2.43236">
        <ele>47</ele>
        <time>2023-11-02T00:20:28Z</time>
      </trkpt>
      <trkpt lat="47.32706" lon="-2.43208">
        <ele>48</ele>
        <time>2023-11-02T00:20:53Z</time>
      </trkpt>
      <trkpt lat="47.32717" lon="-2.43155">
        <ele>50</ele>
        <time>2023-11-02T00:21:43Z</time>
      </trkpt>
      <trkpt lat="47.32716" lon="-2.43127">
        <ele>51</ele>
        <time>2023-11-02T00:22:08Z</time>
      </trkpt>
      <trkpt lat="47.32719" lon="-2.431">
        <ele>52</ele>
        <time>2023-11-02T00:22:33Z</time>
      </trkpt>
      <trkpt lat="47.32734" lon="-2.43049">
        <ele>53</ele>
        <time>2023-11-02T00:23:24Z</time>
      </trkpt>
      <trkpt lat="47.32745" lon="-2.43026">
        <ele>54</ele>
        <time>2023-11-02T00:23:49Z</time>
      </trkpt>
      <trkpt lat="47.32752" lon="-2.43">
        <ele>54</ele>
        <time>2023-11-02T00:24:14Z</time>
      </trkpt>
      <trkpt lat="47.32762" lon="-2.42975">
        <ele>54</ele>
        <time>2023-11-02T00:24:41Z</time>
      </trkpt>
      <trkpt lat="47.32769" lon="-2.42949">
        <ele>55</ele>
        <time>2023-11-02T00:25:06Z</time>
      </trkpt>
      <trkpt lat="47.32772" lon="-2.42921">
        <ele>55</ele>
        <time>2023-11-02T00:25:31Z</time>
      </trkpt>
      <trkpt lat="47.3275" lon="-2.42847">
        <ele>54</ele>
        <time>2023-11-02T00:26:45Z</time>
      </trkpt>
      <trkpt lat="47.32746" lon="-2.4282">
        <ele>54</ele>
        <time>2023-11-02T00:27:10Z</time>
      </trkpt>
      <trkpt lat="47.32727" lon="-2.42741">
        <ele>51</ele>
        <time>2023-11-02T00:28:25Z</time>
      </trkpt>
      <trkpt lat="47.32725" lon="-2.42713">
        <ele>51</ele>
        <time>2023-11-02T00:28:51Z</time>
      </trkpt>
      <trkpt lat="47.32738" lon="-2.42693">
        <ele>50</ele>
        <time>2023-11-02T00:29:16Z</time>
      </trkpt>
      <trkpt lat="47.32757" lon="-2.42694">
        <ele>51</ele>
        <time>2023-11-02T00:29:41Z</time>
      </trkpt>
      <trkpt lat="47.32794" lon="-2.42701">
        <ele>52</ele>
        <time>2023-11-02T00:30:31Z</time>
      </trkpt>
      <trkpt lat="47.32813" lon="-2.42707">
        <ele>53</ele>
        <time>2023-11-02T00:30:57Z</time>
      </trkpt>
      <trkpt lat="47.32831" lon="-2.42706">
        <ele>53</ele>
        <time>2023-11-02T00:31:21Z</time>
      </trkpt>
      <trkpt lat="47.32849" lon="-2.42714">
        <ele>53</ele>
        <time>2023-11-02T00:31:46Z</time>
      </trkpt>
      <trkpt lat="47.32869" lon="-2.42706">
        <ele>52</ele>
        <time>2023-11-02T00:32:14Z</time>
      </trkpt>
      <trkpt lat="47.32883" lon="-2.42655">
        <ele>51</ele>
        <time>2023-11-02T00:33:04Z</time>
      </trkpt>
      <trkpt lat="47.32888" lon="-2.42627">
        <ele>51</ele>
        <time>2023-11-02T00:33:30Z</time>
      </trkpt>
      <trkpt lat="47.32903" lon="-2.42614">
        <ele>50</ele>
        <time>2023-11-02T00:33:53Z</time>
      </trkpt>
      <trkpt lat="47.3292" lon="-2.42625">
        <ele>50</ele>
        <time>2023-11-02T00:34:18Z</time>
      </trkpt>
      <trkpt lat="47.32937" lon="-2.4264">
        <ele>50</ele>
        <time>2023-11-02T00:34:44Z</time>
      </trkpt>
      <trkpt lat="47.32968" lon="-2.42672">
        <ele>50</ele>
        <time>2023-11-02T00:35:35Z</time>
      </trkpt>
      <trkpt lat="47.32982" lon="-2.4269">
        <ele>50</ele>
        <time>2023-11-02T00:35:59Z</time>
      </trkpt>
      <trkpt lat="47.33" lon="-2.42684">
        <ele>49</ele>
        <time>2023-11-02T00:36:24Z</time>
      </trkpt>
      <trkpt lat="47.33054" lon="-2.4266">
        <ele>48</ele>
        <time>2023-11-02T00:37:39Z</time>
      </trkpt>
      <trkpt lat="47.33071" lon="-2.4265">
        <ele>48</ele>
        <time>2023-11-02T00:38:04Z</time>
      </trkpt>
      <trkpt lat="47.33087" lon="-2.42635">
        <ele>48</ele>
        <time>2023-11-02T00:38:29Z</time>
      </trkpt>
      <trkpt lat="47.33097" lon="-2.42613">
        <ele>47</ele>
        <time>2023-11-02T00:38:53Z</time>
      </trkpt>
      <trkpt lat="47.33114" lon="-2.42601">
        <ele>46</ele>
        <time>2023-11-02T00:39:18Z</time>
      </trkpt>
      <trkpt lat="47.3313" lon="-2.42615">
        <ele>46</ele>
        <time>2023-11-02T00:39:43Z</time>
      </trkpt>
      <trkpt lat="47.33146" lon="-2.42601">
        <ele>46</ele>
        <time>2023-11-02T00:40:08Z</time>
      </trkpt>
      <trkpt lat="47.33173" lon="-2.42529">
        <ele>46</ele>
        <time>2023-11-02T00:41:22Z</time>
      </trkpt>
      <trkpt lat="47.33243" lon="-2.42491">
        <ele>47</ele>
        <time>2023-11-02T00:43:02Z</time>
      </trkpt>
      <trkpt lat="47.33261" lon="-2.42489">
        <ele>47</ele>
        <time>2023-11-02T00:43:26Z</time>
      </trkpt>
      <trkpt lat="47.33276" lon="-2.42503">
        <ele>47</ele>
        <time>2023-11-02T00:43:50Z</time>
      </trkpt>
      <trkpt lat="47.33137" lon="-2.42627">
        <ele>46</ele>
        <time>2023-11-02T00:47:26Z</time>
      </trkpt>
      <trkpt lat="47.33113" lon="-2.42587">
        <ele>46</ele>
        <time>2023-11-02T00:48:15Z</time>
      </trkpt>
      <trkpt lat="47.33094" lon="-2.42584">
        <ele>47</ele>
        <time>2023-11-02T00:48:40Z</time>
      </trkpt>
      <trkpt lat="47.33088" lon="-2.42559">
        <ele>47</ele>
        <time>2023-11-02T00:49:04Z</time>
      </trkpt>
      <trkpt lat="47.33079" lon="-2.42535">
        <ele>48</ele>
        <time>2023-11-02T00:49:29Z</time>
      </trkpt>
      <trkpt lat="47.33056" lon="-2.42491">
        <ele>48</ele>
        <time>2023-11-02T00:50:19Z</time>
      </trkpt>
      <trkpt lat="47.33039" lon="-2.42441">
        <ele>48</ele>
        <time>2023-11-02T00:51:10Z</time>
      </trkpt>
      <trkpt lat="47.33012" lon="-2.42402">
        <ele>48</ele>
        <time>2023-11-02T00:52:00Z</time>
      </trkpt>
      <trkpt lat="47.33001" lon="-2.4238">
        <ele>48</ele>
        <time>2023-11-02T00:52:25Z</time>
      </trkpt>
      <trkpt lat="47.32982" lon="-2.42331">
        <ele>48</ele>
        <time>2023-11-02T00:53:16Z</time>
      </trkpt>
      <trkpt lat="47.32952" lon="-2.42264">
        <ele>47</ele>
        <time>2023-11-02T00:54:29Z</time>
      </trkpt>
      <trkpt lat="47.32935" lon="-2.42214">
        <ele>46</ele>
        <time>2023-11-02T00:55:19Z</time>
      </trkpt>
      <trkpt lat="47.32922" lon="-2.42195">
        <ele>45</ele>
        <time>2023-11-02T00:55:44Z</time>
      </trkpt>
      <trkpt lat="47.32912" lon="-2.42173">
        <ele>45</ele>
        <time>2023-11-02T00:56:08Z</time>
      </trkpt>
      <trkpt lat="47.32897" lon="-2.42123">
        <ele>44</ele>
        <time>2023-11-02T00:56:57Z</time>
      </trkpt>
      <trkpt lat="47.32879" lon="-2.42115">
        <ele>44</ele>
        <time>2023-11-02T00:57:22Z</time>
      </trkpt>
      <trkpt lat="47.32864" lon="-2.421">
        <ele>45</ele>
        <time>2023-11-02T00:57:46Z</time>
      </trkpt>
      <trkpt lat="47.32833" lon="-2.42033">
        <ele>44</ele>
        <time>2023-11-02T00:59:00Z</time>
      </trkpt>
      <trkpt lat="47.32825" lon="-2.42008">
        <ele>43</ele>
        <time>2023-11-02T00:59:25Z</time>
      </trkpt>
      <trkpt lat="47.32809" lon="-2.41994">
        <ele>44</ele>
        <time>2023-11-02T00:59:49Z</time>
      </trkpt>
      <trkpt lat="47.32796" lon="-2.41944">
        <ele>45</ele>
        <time>2023-11-02T01:00:38Z</time>
      </trkpt>
      <trkpt lat="47.32774" lon="-2.41899">
        <ele>47</ele>
        <time>2023-11-02T01:01:28Z</time>
      </trkpt>
      <trkpt lat="47.32746" lon="-2.41827">
        <ele>48</ele>
        <time>2023-11-02T01:02:43Z</time>
      </trkpt>
      <trkpt lat="47.32724" lon="-2.41783">
        <ele>48</ele>
        <time>2023-11-02T01:03:33Z</time>
      </trkpt>
      <trkpt lat="47.32709" lon="-2.41766">
        <ele>48</ele>
        <time>2023-11-02T01:03:58Z</time>
      </trkpt>
      <trkpt lat="47.32707" lon="-2.4174">
        <ele>48</ele>
        <time>2023-11-02T01:04:22Z</time>
      </trkpt>
      <trkpt lat="47.32714" lon="-2.4163">
        <ele>46</ele>
        <time>2023-11-02T01:06:01Z</time>
      </trkpt>
      <trkpt lat="47.32706" lon="-2.41606">
        <ele>47</ele>
        <time>2023-11-02T01:06:26Z</time>
      </trkpt>
      <trkpt lat="47.32701" lon="-2.41579">
        <ele>47</ele>
        <time>2023-11-02T01:06:51Z</time>
      </trkpt>
      <trkpt lat="47.32728" lon="-2.41539">
        <ele>47</ele>
        <time>2023-11-02T01:07:42Z</time>
      </trkpt>
      <trkpt lat="47.32735" lon="-2.41514">
        <ele>47</ele>
        <time>2023-11-02T01:08:07Z</time>
      </trkpt>
      <trkpt lat="47.32741" lon="-2.4146">
        <ele>47</ele>
        <time>2023-11-02T01:08:56Z</time>
      </trkpt>
      <trkpt lat="47.32737" lon="-2.41404">
        <ele>47</ele>
        <time>2023-11-02T01:09:47Z</time>
      </trkpt>
      <trkpt lat="47.32727" lon="-2.41352">
        <ele>48</ele>
        <time>2023-11-02T01:10:36Z</time>
      </trkpt>
      <trkpt lat="47.32742" lon="-2.41336">
        <ele>47</ele>
        <time>2023-11-02T01:11:01Z</time>
      </trkpt>
      <trkpt lat="47.32746" lon="-2.4131">
        <ele>47</ele>
        <time>2023-11-02T01:11:25Z</time>
      </trkpt>
      <trkpt lat="47.32763" lon="-2.41298">
        <ele>47</ele>
        <time>2023-11-02T01:11:50Z</time>
      </trkpt>
      <trkpt lat="47.32801" lon="-2.41289">
        <ele>46</ele>
        <time>2023-11-02T01:12:41Z</time>
      </trkpt>
      <trkpt lat="47.32819" lon="-2.41292">
        <ele>46</ele>
        <time>2023-11-02T01:13:05Z</time>
      </trkpt>
      <trkpt lat="47.32837" lon="-2.41285">
        <ele>46</ele>
        <time>2023-11-02T01:13:30Z</time>
      </trkpt>
      <trkpt lat="47.32912" lon="-2.41277">
        <ele>47</ele>
        <time>2023-11-02T01:15:11Z</time>
      </trkpt>
      <trkpt lat="47.3293" lon="-2.41278">
        <ele>46</ele>
        <time>2023-11-02T01:15:35Z</time>
      </trkpt>
      <trkpt lat="47.32948" lon="-2.41271">
        <ele>46</ele>
        <time>2023-11-02T01:15:59Z</time>
      </trkpt>
      <trkpt lat="47.32985" lon="-2.41265">
        <ele>45</ele>
        <time>2023-11-02T01:16:49Z</time>
      </trkpt>
      <trkpt lat="47.33002" lon="-2.41252">
        <ele>45</ele>
        <time>2023-11-02T01:17:15Z</time>
      </trkpt>
      <trkpt lat="47.33012" lon="-2.4123">
        <ele>45</ele>
        <time>2023-11-02T01:17:39Z</time>
      </trkpt>
      <trkpt lat="47.33025" lon="-2.4121">
        <ele>45</ele>
        <time>2023-11-02T01:18:04Z</time>
      </trkpt>
      <trkpt lat="47.33045" lon="-2.41162">
        <ele>44</ele>
        <time>2023-11-02T01:18:55Z</time>
      </trkpt>
      <trkpt lat="47.33067" lon="-2.41117">
        <ele>44</ele>
        <time>2023-11-02T01:19:45Z</time>
      </trkpt>
      <trkpt lat="47.33131" lon="-2.40944">
        <ele>43</ele>
        <time>2023-11-02T01:22:43Z</time>
      </trkpt>
      <trkpt lat="47.33219" lon="-2.40798">
        <ele>42</ele>
        <time>2023-11-02T01:25:40Z</time>
      </trkpt>
      <trkpt lat="47.33227" lon="-2.40774">
        <ele>42</ele>
        <time>2023-11-02T01:26:04Z</time>
      </trkpt>
      <trkpt lat="47.33236" lon="-2.40693">
        <ele>39</ele>
        <time>2023-11-02T01:27:18Z</time>
      </trkpt>
      <trkpt lat="47.33252" lon="-2.40643">
        <ele>38</ele>
        <time>2023-11-02T01:28:08Z</time>
      </trkpt>
      <trkpt lat="47.33272" lon="-2.40565">
        <ele>36</ele>
        <time>2023-11-02T01:29:24Z</time>
      </trkpt>
      <trkpt lat="47.33281" lon="-2.4054">
        <ele>36</ele>
        <time>2023-11-02T01:29:49Z</time>
      </trkpt>
      <trkpt lat="47.33303" lon="-2.40496">
        <ele>36</ele>
        <time>2023-11-02T01:30:39Z</time>
      </trkpt>
      <trkpt lat="47.3331" lon="-2.40417">
        <ele>37</ele>
        <time>2023-11-02T01:31:51Z</time>
      </trkpt>
      <trkpt lat="47.33308" lon="-2.4039">
        <ele>39</ele>
        <time>2023-11-02T01:32:15Z</time>
      </trkpt>
      <trkpt lat="47.33326" lon="-2.40314">
        <ele>42</ele>
        <time>2023-11-02T01:33:28Z</time>
      </trkpt>
      <trkpt lat="47.33339" lon="-2.40233">
        <ele>43</ele>
        <time>2023-11-02T01:34:43Z</time>
      </trkpt>
      <trkpt lat="47.33346" lon="-2.40125">
        <ele>43</ele>
        <time>2023-11-02T01:36:22Z</time>
      </trkpt>
      <trkpt lat="47.33357" lon="-2.40045">
        <ele>43</ele>
        <time>2023-11-02T01:37:35Z</time>
      </trkpt>
      <trkpt lat="47.3338" lon="-2.40002">
        <ele>42</ele>
        <time>2023-11-02T01:38:25Z</time>
      </trkpt>
      <trkpt lat="47.33394" lon="-2.39985">
        <ele>42</ele>
        <time>2023-11-02T01:38:49Z</time>
      </trkpt>
      <trkpt lat="47.33405" lon="-2.39964">
        <ele>41</ele>
        <time>2023-11-02T01:39:13Z</time>
      </trkpt>
      <trkpt lat="47.33421" lon="-2.39947">
        <ele>41</ele>
        <time>2023-11-02T01:39:39Z</time>
      </trkpt>
      <trkpt lat="47.33486" lon="-2.39846">
        <ele>38</ele>
        <time>2023-11-02T01:41:45Z</time>
      </trkpt>
      <trkpt lat="47.33501" lon="-2.39828">
        <ele>38</ele>
        <time>2023-11-02T01:42:11Z</time>
      </trkpt>
      <trkpt lat="47.33541" lon="-2.39769">
        <ele>36</ele>
        <time>2023-11-02T01:43:27Z</time>
      </trkpt>
      <trkpt lat="47.33555" lon="-2.39753">
        <ele>36</ele>
        <time>2023-11-02T01:43:50Z</time>
      </trkpt>
      <trkpt lat="47.33573" lon="-2.39743">
        <ele>36</ele>
        <time>2023-11-02T01:44:16Z</time>
      </trkpt>
      <trkpt lat="47.33587" lon="-2.39726">
        <ele>36</ele>
        <time>2023-11-02T01:44:40Z</time>
      </trkpt>
      <trkpt lat="47.3361" lon="-2.39683">
        <ele>36</ele>
        <time>2023-11-02T01:45:30Z</time>
      </trkpt>
      <trkpt lat="47.33624" lon="-2.39663">
        <ele>36</ele>
        <time>2023-11-02T01:45:56Z</time>
      </trkpt>
      <trkpt lat="47.33652" lon="-2.39592">
        <ele>38</ele>
        <time>2023-11-02T01:47:10Z</time>
      </trkpt>
      <trkpt lat="47.33694" lon="-2.39467">
        <ele>39</ele>
        <time>2023-11-02T01:49:16Z</time>
      </trkpt>
      <trkpt lat="47.33699" lon="-2.39441">
        <ele>38</ele>
        <time>2023-11-02T01:49:41Z</time>
      </trkpt>
      <trkpt lat="47.337" lon="-2.39413">
        <ele>38</ele>
        <time>2023-11-02T01:50:06Z</time>
      </trkpt>
      <trkpt lat="47.3371" lon="-2.39331">
        <ele>36</ele>
        <time>2023-11-02T01:51:21Z</time>
      </trkpt>
      <trkpt lat="47.33718" lon="-2.39307">
        <ele>36</ele>
        <time>2023-11-02T01:51:45Z</time>
      </trkpt>
      <trkpt lat="47.33735" lon="-2.39295">
        <ele>35</ele>
        <time>2023-11-02T01:52:11Z</time>
      </trkpt>
      <trkpt lat="47.33773" lon="-2.39298">
        <ele>35</ele>
        <time>2023-11-02T01:53:01Z</time>
      </trkpt>
      <trkpt lat="47.33791" lon="-2.39291">
        <ele>34</ele>
        <time>2023-11-02T01:53:26Z</time>
      </trkpt>
      <trkpt lat="47.33846" lon="-2.39285">
        <ele>33</ele>
        <time>2023-11-02T01:54:40Z</time>
      </trkpt>
      <trkpt lat="47.33918" lon="-2.39273">
        <ele>33</ele>
        <time>2023-11-02T01:56:17Z</time>
      </trkpt>
      <trkpt lat="47.33955" lon="-2.39262">
        <ele>32</ele>
        <time>2023-11-02T01:57:07Z</time>
      </trkpt>
      <trkpt lat="47.3403" lon="-2.39252">
        <ele>30</ele>
        <time>2023-11-02T01:58:47Z</time>
      </trkpt>
      <trkpt lat="47.34049" lon="-2.39252">
        <ele>30</ele>
        <time>2023-11-02T01:59:13Z</time>
      </trkpt>
      <trkpt lat="47.34063" lon="-2.39268">
        <ele>30</ele>
        <time>2023-11-02T01:59:36Z</time>
      </trkpt>
      <trkpt lat="47.34087" lon="-2.39404">
        <ele>32</ele>
        <time>2023-11-02T02:01:43Z</time>
      </trkpt>
      <trkpt lat="47.34099" lon="-2.39424">
        <ele>32</ele>
        <time>2023-11-02T02:02:08Z</time>
      </trkpt>
      <trkpt lat="47.34118" lon="-2.39419">
        <ele>31</ele>
        <time>2023-11-02T02:02:33Z</time>
      </trkpt>
      <trkpt lat="47.34187" lon="-2.39373">
        <ele>30</ele>
        <time>2023-11-02T02:04:14Z</time>
      </trkpt>
      <trkpt lat="47.34205" lon="-2.39366">
        <ele>30</ele>
        <time>2023-11-02T02:04:39Z</time>
      </trkpt>
      <trkpt lat="47.34239" lon="-2.39346">
        <ele>30</ele>
        <time>2023-11-02T02:05:28Z</time>
      </trkpt>
      <trkpt lat="47.34272" lon="-2.3932">
        <ele>29</ele>
        <time>2023-11-02T02:06:18Z</time>
      </trkpt>
      <trkpt lat="47.3429" lon="-2.39313">
        <ele>28</ele>
        <time>2023-11-02T02:06:43Z</time>
      </trkpt>
      <trkpt lat="47.34342" lon="-2.39284">
        <ele>27</ele>
        <time>2023-11-02T02:07:57Z</time>
      </trkpt>
      <trkpt lat="47.34379" lon="-2.39267">
        <ele>25</ele>
        <time>2023-11-02T02:08:49Z</time>
      </trkpt>
      <trkpt lat="47.34415" lon="-2.39257">
        <ele>24</ele>
        <time>2023-11-02T02:09:38Z</time>
      </trkpt>
      <trkpt lat="47.34433" lon="-2.39247">
        <ele>23</ele>
        <time>2023-11-02T02:10:03Z</time>
      </trkpt>
      <trkpt lat="47.34451" lon="-2.39242">
        <ele>22</ele>
        <time>2023-11-02T02:10:28Z</time>
      </trkpt>
      <trkpt lat="47.34468" lon="-2.39234">
        <ele>21</ele>
        <time>2023-11-02T02:10:52Z</time>
      </trkpt>
      <trkpt lat="47.34524" lon="-2.39223">
        <ele>19</ele>
        <time>2023-11-02T02:12:07Z</time>
      </trkpt>
      <trkpt lat="47.34542" lon="-2.39222">
        <ele>19</ele>
        <time>2023-11-02T02:12:31Z</time>
      </trkpt>
      <trkpt lat="47.34561" lon="-2.39226">
        <ele>18</ele>
        <time>2023-11-02T02:12:57Z</time>
      </trkpt>
      <trkpt lat="47.34628" lon="-2.39271">
        <ele>17</ele>
        <time>2023-11-02T02:14:35Z</time>
      </trkpt>
      <trkpt lat="47.34644" lon="-2.39285">
        <ele>17</ele>
        <time>2023-11-02T02:15:00Z</time>
      </trkpt>
      <trkpt lat="47.34658" lon="-2.39303">
        <ele>17</ele>
        <time>2023-11-02T02:15:24Z</time>
      </trkpt>
      <trkpt lat="47.3467" lon="-2.39324">
        <ele>17</ele>
        <time>2023-11-02T02:15:49Z</time>
      </trkpt>
      <trkpt lat="47.34689" lon="-2.39371">
        <ele>17</ele>
        <time>2023-11-02T02:16:39Z</time>
      </trkpt>
      <trkpt lat="47.34694" lon="-2.39397">
        <ele>18</ele>
        <time>2023-11-02T02:17:03Z</time>
      </trkpt>
      <trkpt lat="47.34717" lon="-2.39473">
        <ele>17</ele>
        <time>2023-11-02T02:18:18Z</time>
      </trkpt>
      <trkpt lat="47.34716" lon="-2.39527">
        <ele>18</ele>
        <time>2023-11-02T02:19:07Z</time>
      </trkpt>
      <trkpt lat="47.34718" lon="-2.39554">
        <ele>19</ele>
        <time>2023-11-02T02:19:32Z</time>
      </trkpt>
      <trkpt lat="47.34715" lon="-2.39583">
        <ele>20</ele>
        <time>2023-11-02T02:19:58Z</time>
      </trkpt>
      <trkpt lat="47.34709" lon="-2.39608">
        <ele>20</ele>
        <time>2023-11-02T02:20:22Z</time>
      </trkpt>
      <trkpt lat="47.34689" lon="-2.39655">
        <ele>20</ele>
        <time>2023-11-02T02:21:13Z</time>
      </trkpt>
      <trkpt lat="47.34682" lon="-2.39681">
        <ele>20</ele>
        <time>2023-11-02T02:21:38Z</time>
      </trkpt>
      <trkpt lat="47.34679" lon="-2.39735">
        <ele>21</ele>
        <time>2023-11-02T02:22:27Z</time>
      </trkpt>
      <trkpt lat="47.34671" lon="-2.3976">
        <ele>21</ele>
        <time>2023-11-02T02:22:52Z</time>
      </trkpt>
      <trkpt lat="47.34667" lon="-2.39786">
        <ele>22</ele>
        <time>2023-11-02T02:23:16Z</time>
      </trkpt>
      <trkpt lat="47.34653" lon="-2.39805">
        <ele>22</ele>
        <time>2023-11-02T02:23:41Z</time>
      </trkpt>
      <trkpt lat="47.34643" lon="-2.39828">
        <ele>23</ele>
        <time>2023-11-02T02:24:06Z</time>
      </trkpt>
      <trkpt lat="47.3463" lon="-2.39848">
        <ele>23</ele>
        <time>2023-11-02T02:24:31Z</time>
      </trkpt>
      <trkpt lat="47.34614" lon="-2.39861">
        <ele>23</ele>
        <time>2023-11-02T02:24:55Z</time>
      </trkpt>
      <trkpt lat="47.34609" lon="-2.39887">
        <ele>23</ele>
        <time>2023-11-02T02:25:20Z</time>
      </trkpt>
      <trkpt lat="47.346" lon="-2.39911">
        <ele>24</ele>
        <time>2023-11-02T02:25:45Z</time>
      </trkpt>
      <trkpt lat="47.34617" lon="-2.39921">
        <ele>24</ele>
        <time>2023-11-02T02:26:09Z</time>
      </trkpt>
      <trkpt lat="47.34606" lon="-2.39945">
        <ele>23</ele>
        <time>2023-11-02T02:26:35Z</time>
      </trkpt>
      <trkpt lat="47.34593" lon="-2.39964">
        <ele>23</ele>
        <time>2023-11-02T02:27:00Z</time>
      </trkpt>
      <trkpt lat="47.3459" lon="-2.39991">
        <ele>23</ele>
        <time>2023-11-02T02:27:24Z</time>
      </trkpt>
      <trkpt lat="47.34601" lon="-2.40014">
        <ele>23</ele>
        <time>2023-11-02T02:27:50Z</time>
      </trkpt>
      <trkpt lat="47.34652" lon="-2.40096">
        <ele>23</ele>
        <time>2023-11-02T02:29:31Z</time>
      </trkpt>
      <trkpt lat="47.34668" lon="-2.40109">
        <ele>22</ele>
        <time>2023-11-02T02:29:55Z</time>
      </trkpt>
      <trkpt lat="47.34722" lon="-2.40132">
        <ele>22</ele>
        <time>2023-11-02T02:31:10Z</time>
      </trkpt>
      <trkpt lat="47.34737" lon="-2.40149">
        <ele>22</ele>
        <time>2023-11-02T02:31:35Z</time>
      </trkpt>
      <trkpt lat="47.34763" lon="-2.40187">
        <ele>23</ele>
        <time>2023-11-02T02:32:24Z</time>
      </trkpt>
      <trkpt lat="47.34778" lon="-2.40203">
        <ele>22</ele>
        <time>2023-11-02T02:32:49Z</time>
      </trkpt>
      <trkpt lat="47.34795" lon="-2.40214">
        <ele>22</ele>
        <time>2023-11-02T02:33:13Z</time>
      </trkpt>
      <trkpt lat="47.34804" lon="-2.40239">
        <ele>22</ele>
        <time>2023-11-02T02:33:39Z</time>
      </trkpt>
      <trkpt lat="47.34841" lon="-2.403">
        <ele>20</ele>
        <time>2023-11-02T02:34:53Z</time>
      </trkpt>
      <trkpt lat="47.34851" lon="-2.40324">
        <ele>19</ele>
        <time>2023-11-02T02:35:19Z</time>
      </trkpt>
      <trkpt lat="47.34874" lon="-2.40427">
        <ele>17</ele>
        <time>2023-11-02T02:36:57Z</time>
      </trkpt>
      <trkpt lat="47.34886" lon="-2.40537">
        <ele>15</ele>
        <time>2023-11-02T02:38:37Z</time>
      </trkpt>
      <trkpt lat="47.34866" lon="-2.40582">
        <ele>15</ele>
        <time>2023-11-02T02:39:26Z</time>
      </trkpt>
      <trkpt lat="47.34853" lon="-2.40603">
        <ele>15</ele>
        <time>2023-11-02T02:39:52Z</time>
      </trkpt>
      <trkpt lat="47.34838" lon="-2.40619">
        <ele>15</ele>
        <time>2023-11-02T02:40:16Z</time>
      </trkpt>
      <trkpt lat="47.34829" lon="-2.40643">
        <ele>16</ele>
        <time>2023-11-02T02:40:41Z</time>
      </trkpt>
      <trkpt lat="47.34819" lon="-2.40695">
        <ele>16</ele>
        <time>2023-11-02T02:41:30Z</time>
      </trkpt>
      <trkpt lat="47.34819" lon="-2.40722">
        <ele>17</ele>
        <time>2023-11-02T02:41:55Z</time>
      </trkpt>
      <trkpt lat="47.34825" lon="-2.40749">
        <ele>18</ele>
        <time>2023-11-02T02:42:20Z</time>
      </trkpt>
      <trkpt lat="47.34837" lon="-2.40769">
        <ele>19</ele>
        <time>2023-11-02T02:42:44Z</time>
      </trkpt>
      <trkpt lat="47.34873" lon="-2.40768">
        <ele>18</ele>
        <time>2023-11-02T02:43:32Z</time>
      </trkpt>
      <trkpt lat="47.34892" lon="-2.40774">
        <ele>18</ele>
        <time>2023-11-02T02:43:58Z</time>
      </trkpt>
      <trkpt lat="47.34922" lon="-2.40809">
        <ele>19</ele>
        <time>2023-11-02T02:44:49Z</time>
      </trkpt>
      <trkpt lat="47.34932" lon="-2.40831">
        <ele>19</ele>
        <time>2023-11-02T02:45:13Z</time>
      </trkpt>
      <trkpt lat="47.34939" lon="-2.40856">
        <ele>19</ele>
        <time>2023-11-02T02:45:38Z</time>
      </trkpt>
      <trkpt lat="47.34942" lon="-2.40883">
        <ele>20</ele>
        <time>2023-11-02T02:46:03Z</time>
      </trkpt>
      <trkpt lat="47.34941" lon="-2.40964">
        <ele>22</ele>
        <time>2023-11-02T02:47:16Z</time>
      </trkpt>
      <trkpt lat="47.34937" lon="-2.41018">
        <ele>22</ele>
        <time>2023-11-02T02:48:05Z</time>
      </trkpt>
      <trkpt lat="47.34941" lon="-2.41045">
        <ele>21</ele>
        <time>2023-11-02T02:48:30Z</time>
      </trkpt>
      <trkpt lat="47.34951" lon="-2.41068">
        <ele>19</ele>
        <time>2023-11-02T02:48:55Z</time>
      </trkpt>
      <trkpt lat="47.34957" lon="-2.41093">
        <ele>18</ele>
        <time>2023-11-02T02:49:19Z</time>
      </trkpt>
      <trkpt lat="47.34985" lon="-2.41163">
        <ele>16</ele>
        <time>2023-11-02T02:50:32Z</time>
      </trkpt>
      <trkpt lat="47.35007" lon="-2.41206">
        <ele>16</ele>
        <time>2023-11-02T02:51:21Z</time>
      </trkpt>
      <trkpt lat="47.35037" lon="-2.41277">
        <ele>18</ele>
        <time>2023-11-02T02:52:36Z</time>
      </trkpt>
      <trkpt lat="47.3508" lon="-2.414">
        <ele>16</ele>
        <time>2023-11-02T02:54:42Z</time>
      </trkpt>
      <trkpt lat="47.35067" lon="-2.41419">
        <ele>17</ele>
        <time>2023-11-02T02:55:06Z</time>
      </trkpt>
      <trkpt lat="47.3505" lon="-2.41431">
        <ele>18</ele>
        <time>2023-11-02T02:55:31Z</time>
      </trkpt>
      <trkpt lat="47.35031" lon="-2.41437">
        <ele>18</ele>
        <time>2023-11-02T02:55:57Z</time>
      </trkpt>
      <trkpt lat="47.35016" lon="-2.41452">
        <ele>19</ele>
        <time>2023-11-02T02:56:21Z</time>
      </trkpt>
      <trkpt lat="47.3498" lon="-2.41465">
        <ele>20</ele>
        <time>2023-11-02T02:57:11Z</time>
      </trkpt>
      <trkpt lat="47.34943" lon="-2.41474">
        <ele>20</ele>
        <time>2023-11-02T02:58:01Z</time>
      </trkpt>
      <trkpt lat="47.34889" lon="-2.41496">
        <ele>20</ele>
        <time>2023-11-02T02:59:15Z</time>
      </trkpt>
      <trkpt lat="47.34871" lon="-2.41497">
        <ele>20</ele>
        <time>2023-11-02T02:59:40Z</time>
      </trkpt>
      <trkpt lat="47.34834" lon="-2.41508">
        <ele>22</ele>
        <time>2023-11-02T03:00:30Z</time>
      </trkpt>
      <trkpt lat="47.34817" lon="-2.41517">
        <ele>21</ele>
        <time>2023-11-02T03:00:54Z</time>
      </trkpt>
      <trkpt lat="47.34799" lon="-2.41514">
        <ele>21</ele>
        <time>2023-11-02T03:01:18Z</time>
      </trkpt>
      <trkpt lat="47.34743" lon="-2.41528">
        <ele>20</ele>
        <time>2023-11-02T03:02:34Z</time>
      </trkpt>
      <trkpt lat="47.34724" lon="-2.41535">
        <ele>20</ele>
        <time>2023-11-02T03:03:00Z</time>
      </trkpt>
      <trkpt lat="47.34706" lon="-2.41538">
        <ele>20</ele>
        <time>2023-11-02T03:03:24Z</time>
      </trkpt>
      <trkpt lat="47.34688" lon="-2.41546">
        <ele>20</ele>
        <time>2023-11-02T03:03:49Z</time>
      </trkpt>
      <trkpt lat="47.34652" lon="-2.41555">
        <ele>20</ele>
        <time>2023-11-02T03:04:38Z</time>
      </trkpt>
      <trkpt lat="47.34506" lon="-2.41612">
        <ele>23</ele>
        <time>2023-11-02T03:08:00Z</time>
      </trkpt>
      <trkpt lat="47.34471" lon="-2.41631">
        <ele>24</ele>
        <time>2023-11-02T03:08:49Z</time>
      </trkpt>
      <trkpt lat="47.34455" lon="-2.41644">
        <ele>25</ele>
        <time>2023-11-02T03:09:14Z</time>
      </trkpt>
      <trkpt lat="47.3444" lon="-2.41661">
        <ele>25</ele>
        <time>2023-11-02T03:09:39Z</time>
      </trkpt>
      <trkpt lat="47.34427" lon="-2.41681">
        <ele>26</ele>
        <time>2023-11-02T03:10:04Z</time>
      </trkpt>
      <trkpt lat="47.3441" lon="-2.41696">
        <ele>27</ele>
        <time>2023-11-02T03:10:30Z</time>
      </trkpt>
      <trkpt lat="47.3436" lon="-2.41732">
        <ele>27</ele>
        <time>2023-11-02T03:11:45Z</time>
      </trkpt>
      <trkpt lat="47.34343" lon="-2.41741">
        <ele>28</ele>
        <time>2023-11-02T03:12:09Z</time>
      </trkpt>
      <trkpt lat="47.34325" lon="-2.41746">
        <ele>28</ele>
        <time>2023-11-02T03:12:33Z</time>
      </trkpt>
      <trkpt lat="47.34256" lon="-2.41786">
        <ele>29</ele>
        <time>2023-11-02T03:14:12Z</time>
      </trkpt>
      <trkpt lat="47.34237" lon="-2.41791">
        <ele>30</ele>
        <time>2023-11-02T03:14:38Z</time>
      </trkpt>
      <trkpt lat="47.34225" lon="-2.4177">
        <ele>29</ele>
        <time>2023-11-02T03:15:03Z</time>
      </trkpt>
      <trkpt lat="47.3421" lon="-2.41721">
        <ele>28</ele>
        <time>2023-11-02T03:15:51Z</time>
      </trkpt>
      <trkpt lat="47.34197" lon="-2.41703">
        <ele>28</ele>
        <time>2023-11-02T03:16:15Z</time>
      </trkpt>
      <trkpt lat="47.3418" lon="-2.41712">
        <ele>29</ele>
        <time>2023-11-02T03:16:39Z</time>
      </trkpt>
      <trkpt lat="47.34134" lon="-2.41759">
        <ele>31</ele>
        <time>2023-11-02T03:17:54Z</time>
      </trkpt>
      <trkpt lat="47.34117" lon="-2.41769">
        <ele>31</ele>
        <time>2023-11-02T03:18:18Z</time>
      </trkpt>
      <trkpt lat="47.3407" lon="-2.41812">
        <ele>32</ele>
        <time>2023-11-02T03:19:32Z</time>
      </trkpt>
      <trkpt lat="47.34043" lon="-2.41849">
        <ele>32</ele>
        <time>2023-11-02T03:20:21Z</time>
      </trkpt>
      <trkpt lat="47.34019" lon="-2.41891">
        <ele>32</ele>
        <time>2023-11-02T03:21:11Z</time>
      </trkpt>
      <trkpt lat="47.33966" lon="-2.41965">
        <ele>35</ele>
        <time>2023-11-02T03:22:48Z</time>
      </trkpt>
      <trkpt lat="47.33954" lon="-2.41986">
        <ele>36</ele>
        <time>2023-11-02T03:23:13Z</time>
      </trkpt>
      <trkpt lat="47.33923" lon="-2.42018">
        <ele>38</ele>
        <time>2023-11-02T03:24:04Z</time>
      </trkpt>
      <trkpt lat="47.33823" lon="-2.42092">
        <ele>37</ele>
        <time>2023-11-02T03:26:33Z</time>
      </trkpt>
      <trkpt lat="47.33818" lon="-2.42118">
        <ele>37</ele>
        <time>2023-11-02T03:26:57Z</time>
      </trkpt>
      <trkpt lat="47.33828" lon="-2.4217">
        <ele>37</ele>
        <time>2023-11-02T03:27:46Z</time>
      </trkpt>
      <trkpt lat="47.33842" lon="-2.42278">
        <ele>39</ele>
        <time>2023-11-02T03:29:26Z</time>
      </trkpt>
      <trkpt lat="47.33853" lon="-2.42301">
        <ele>40</ele>
        <time>2023-11-02T03:29:51Z</time>
      </trkpt>
      <trkpt lat="47.33858" lon="-2.42411">
        <ele>40</ele>
        <time>2023-11-02T03:31:31Z</time>
      </trkpt>
      <trkpt lat="47.33866" lon="-2.42437">
        <ele>40</ele>
        <time>2023-11-02T03:31:57Z</time>
      </trkpt>
      <trkpt lat="47.33881" lon="-2.42455">
        <ele>40</ele>
        <time>2023-11-02T03:32:23Z</time>
      </trkpt>
      <trkpt lat="47.33863" lon="-2.42461">
        <ele>39</ele>
        <time>2023-11-02T03:32:47Z</time>
      </trkpt>
      <trkpt lat="47.33843" lon="-2.42464">
        <ele>39</ele>
        <time>2023-11-02T03:33:14Z</time>
      </trkpt>
      <trkpt lat="47.33839" lon="-2.42493">
        <ele>38</ele>
        <time>2023-11-02T03:33:41Z</time>
      </trkpt>
      <trkpt lat="47.33818" lon="-2.4257">
        <ele>41</ele>
        <time>2023-11-02T03:34:56Z</time>
      </trkpt>
      <trkpt lat="47.33782" lon="-2.42726">
        <ele>40</ele>
        <time>2023-11-02T03:37:25Z</time>
      </trkpt>
      <trkpt lat="47.33769" lon="-2.42747">
        <ele>39</ele>
        <time>2023-11-02T03:37:51Z</time>
      </trkpt>
      <trkpt lat="47.33751" lon="-2.42755">
        <ele>39</ele>
        <time>2023-11-02T03:38:16Z</time>
      </trkpt>
      <trkpt lat="47.33661" lon="-2.42733">
        <ele>41</ele>
        <time>2023-11-02T03:40:17Z</time>
      </trkpt>
      <trkpt lat="47.33624" lon="-2.4274">
        <ele>41</ele>
        <time>2023-11-02T03:41:07Z</time>
      </trkpt>
      <trkpt lat="47.33587" lon="-2.42751">
        <ele>41</ele>
        <time>2023-11-02T03:41:58Z</time>
      </trkpt>
      <trkpt lat="47.3357" lon="-2.42739">
        <ele>41</ele>
        <time>2023-11-02T03:42:23Z</time>
      </trkpt>
      <trkpt lat="47.33572" lon="-2.42712">
        <ele>42</ele>
        <time>2023-11-02T03:42:47Z</time>
      </trkpt>
      <trkpt lat="47.33583" lon="-2.42661">
        <ele>42</ele>
        <time>2023-11-02T03:43:36Z</time>
      </trkpt>
      <trkpt lat="47.33584" lon="-2.42634">
        <ele>42</ele>
        <time>2023-11-02T03:44:00Z</time>
      </trkpt>
      <trkpt lat="47.33573" lon="-2.42553">
        <ele>42</ele>
        <time>2023-11-02T03:45:15Z</time>
      </trkpt>
      <trkpt lat="47.33567" lon="-2.42526">
        <ele>43</ele>
        <time>2023-11-02T03:45:41Z</time>
      </trkpt>
      <trkpt lat="47.33553" lon="-2.42507">
        <ele>43</ele>
        <time>2023-11-02T03:46:06Z</time>
      </trkpt>
      <trkpt lat="47.33535" lon="-2.42498">
        <ele>44</ele>
        <time>2023-11-02T03:46:31Z</time>
      </trkpt>
      <trkpt lat="47.33498" lon="-2.42488">
        <ele>45</ele>
        <time>2023-11-02T03:47:21Z</time>
      </trkpt>
      <trkpt lat="47.33482" lon="-2.42473">
        <ele>46</ele>
        <time>2023-11-02T03:47:47Z</time>
      </trkpt>
      <trkpt lat="47.33468" lon="-2.42454">
        <ele>47</ele>
        <time>2023-11-02T03:48:12Z</time>
      </trkpt>
      <trkpt lat="47.33451" lon="-2.42444">
        <ele>47</ele>
        <time>2023-11-02T03:48:37Z</time>
      </trkpt>
      <trkpt lat="47.33396" lon="-2.42428">
        <ele>49</ele>
        <time>2023-11-02T03:49:51Z</time>
      </trkpt>
      <trkpt lat="47.33366" lon="-2.42462">
        <ele>48</ele>
        <time>2023-11-02T03:50:42Z</time>
      </trkpt>
      <trkpt lat="47.33299" lon="-2.4251">
        <ele>47</ele>
        <time>2023-11-02T03:52:21Z</time>
      </trkpt>
      <trkpt lat="47.33217" lon="-2.42579">
        <ele>46</ele>
        <time>2023-11-02T03:54:27Z</time>
      </trkpt>
      <trkpt lat="47.33203" lon="-2.42596">
        <ele>45</ele>
        <time>2023-11-02T03:54:51Z</time>
      </trkpt>
      <trkpt lat="47.33173" lon="-2.42625">
        <ele>45</ele>
        <time>2023-11-02T03:55:39Z</time>
      </trkpt>
      <trkpt lat="47.33159" lon="-2.42643">
        <ele>45</ele>
        <time>2023-11-02T03:56:04Z</time>
      </trkpt>
      <trkpt lat="47.33143" lon="-2.42631">
        <ele>46</ele>
        <time>2023-11-02T03:56:28Z</time>
      </trkpt>
    </trkseg>
  </trk>
  <trk>
    <name><![CDATA[Guerande_Coteaux_22km-15426717]]></name>
    <extensions>
      <line xmlns="http://www.topografix.com/GPX/gpx_style/0/2">
        <color>008000</color>
        <opacity>0.95</opacity>
        <width>5</width>
      </line>
    </extensions>
    <trkseg>
      <trkpt lat="47.33101" lon="-2.42582">
        <ele>47</ele>
        <time>2023-11-01T20:06:49Z</time>
      </trkpt>
      <trkpt lat="47.33088" lon="-2.42555">
        <ele>47</ele>
        <time>2023-11-01T20:07:19Z</time>
      </trkpt>
      <trkpt lat="47.33082" lon="-2.4253">
        <ele>48</ele>
        <time>2023-11-01T20:07:43Z</time>
      </trkpt>
      <trkpt lat="47.33065" lon="-2.4251">
        <ele>48</ele>
        <time>2023-11-01T20:08:12Z</time>
      </trkpt>
      <trkpt lat="47.33057" lon="-2.4248">
        <ele>48</ele>
        <time>2023-11-01T20:08:41Z</time>
      </trkpt>
      <trkpt lat="47.33045" lon="-2.42457">
        <ele>48</ele>
        <time>2023-11-01T20:09:07Z</time>
      </trkpt>
      <trkpt lat="47.33035" lon="-2.4243">
        <ele>48</ele>
        <time>2023-11-01T20:09:35Z</time>
      </trkpt>
      <trkpt lat="47.33015" lon="-2.42421">
        <ele>48</ele>
        <time>2023-11-01T20:10:03Z</time>
      </trkpt>
      <trkpt lat="47.32999" lon="-2.424">
        <ele>48</ele>
        <time>2023-11-01T20:10:32Z</time>
      </trkpt>
      <trkpt lat="47.32943" lon="-2.4227">
        <ele>47</ele>
        <time>2023-11-01T20:12:51Z</time>
      </trkpt>
      <trkpt lat="47.32931" lon="-2.4225">
        <ele>46</ele>
        <time>2023-11-01T20:13:15Z</time>
      </trkpt>
      <trkpt lat="47.32912" lon="-2.422">
        <ele>45</ele>
        <time>2023-11-01T20:14:07Z</time>
      </trkpt>
      <trkpt lat="47.32896" lon="-2.42185">
        <ele>45</ele>
        <time>2023-11-01T20:14:32Z</time>
      </trkpt>
      <trkpt lat="47.32882" lon="-2.4216">
        <ele>45</ele>
        <time>2023-11-01T20:15:02Z</time>
      </trkpt>
      <trkpt lat="47.32872" lon="-2.42136">
        <ele>45</ele>
        <time>2023-11-01T20:15:27Z</time>
      </trkpt>
      <trkpt lat="47.32847" lon="-2.4206">
        <ele>44</ele>
        <time>2023-11-01T20:16:44Z</time>
      </trkpt>
      <trkpt lat="47.32833" lon="-2.42036">
        <ele>44</ele>
        <time>2023-11-01T20:17:12Z</time>
      </trkpt>
      <trkpt lat="47.32827" lon="-2.4201">
        <ele>43</ele>
        <time>2023-11-01T20:17:37Z</time>
      </trkpt>
      <trkpt lat="47.32808" lon="-2.41997">
        <ele>44</ele>
        <time>2023-11-01T20:18:05Z</time>
      </trkpt>
      <trkpt lat="47.32794" lon="-2.41939">
        <ele>45</ele>
        <time>2023-11-01T20:19:01Z</time>
      </trkpt>
      <trkpt lat="47.32769" lon="-2.41883">
        <ele>47</ele>
        <time>2023-11-01T20:20:01Z</time>
      </trkpt>
      <trkpt lat="47.3275" lon="-2.41833">
        <ele>48</ele>
        <time>2023-11-01T20:20:53Z</time>
      </trkpt>
      <trkpt lat="47.32738" lon="-2.4181">
        <ele>48</ele>
        <time>2023-11-01T20:21:19Z</time>
      </trkpt>
      <trkpt lat="47.32729" lon="-2.4178">
        <ele>48</ele>
        <time>2023-11-01T20:21:49Z</time>
      </trkpt>
      <trkpt lat="47.32747" lon="-2.41771">
        <ele>47</ele>
        <time>2023-11-01T20:22:14Z</time>
      </trkpt>
      <trkpt lat="47.32744" lon="-2.41743">
        <ele>47</ele>
        <time>2023-11-01T20:22:40Z</time>
      </trkpt>
      <trkpt lat="47.32747" lon="-2.41683">
        <ele>45</ele>
        <time>2023-11-01T20:23:34Z</time>
      </trkpt>
      <trkpt lat="47.32754" lon="-2.41629">
        <ele>45</ele>
        <time>2023-11-01T20:24:24Z</time>
      </trkpt>
      <trkpt lat="47.32764" lon="-2.41603">
        <ele>45</ele>
        <time>2023-11-01T20:24:51Z</time>
      </trkpt>
      <trkpt lat="47.32846" lon="-2.41609">
        <ele>43</ele>
        <time>2023-11-01T20:26:41Z</time>
      </trkpt>
      <trkpt lat="47.32864" lon="-2.41615">
        <ele>43</ele>
        <time>2023-11-01T20:27:05Z</time>
      </trkpt>
      <trkpt lat="47.32885" lon="-2.41616">
        <ele>42</ele>
        <time>2023-11-01T20:27:33Z</time>
      </trkpt>
      <trkpt lat="47.32901" lon="-2.41602">
        <ele>41</ele>
        <time>2023-11-01T20:27:58Z</time>
      </trkpt>
      <trkpt lat="47.32907" lon="-2.41576">
        <ele>41</ele>
        <time>2023-11-01T20:28:23Z</time>
      </trkpt>
      <trkpt lat="47.32925" lon="-2.41564">
        <ele>40</ele>
        <time>2023-11-01T20:28:50Z</time>
      </trkpt>
      <trkpt lat="47.32943" lon="-2.4157">
        <ele>39</ele>
        <time>2023-11-01T20:29:14Z</time>
      </trkpt>
      <trkpt lat="47.32954" lon="-2.41549">
        <ele>39</ele>
        <time>2023-11-01T20:29:38Z</time>
      </trkpt>
      <trkpt lat="47.32959" lon="-2.41523">
        <ele>40</ele>
        <time>2023-11-01T20:30:03Z</time>
      </trkpt>
      <trkpt lat="47.32972" lon="-2.41499">
        <ele>39</ele>
        <time>2023-11-01T20:30:30Z</time>
      </trkpt>
      <trkpt lat="47.32977" lon="-2.41441">
        <ele>41</ele>
        <time>2023-11-01T20:31:23Z</time>
      </trkpt>
      <trkpt lat="47.32999" lon="-2.41327">
        <ele>42</ele>
        <time>2023-11-01T20:33:10Z</time>
      </trkpt>
      <trkpt lat="47.33" lon="-2.41259">
        <ele>45</ele>
        <time>2023-11-01T20:34:12Z</time>
      </trkpt>
      <trkpt lat="47.33009" lon="-2.41234">
        <ele>45</ele>
        <time>2023-11-01T20:34:38Z</time>
      </trkpt>
      <trkpt lat="47.33024" lon="-2.41214">
        <ele>45</ele>
        <time>2023-11-01T20:35:05Z</time>
      </trkpt>
      <trkpt lat="47.33046" lon="-2.41164">
        <ele>44</ele>
        <time>2023-11-01T20:35:58Z</time>
      </trkpt>
      <trkpt lat="47.33072" lon="-2.41114">
        <ele>44</ele>
        <time>2023-11-01T20:36:55Z</time>
      </trkpt>
      <trkpt lat="47.33098" lon="-2.41034">
        <ele>43</ele>
        <time>2023-11-01T20:38:16Z</time>
      </trkpt>
      <trkpt lat="47.33128" lon="-2.40953">
        <ele>43</ele>
        <time>2023-11-01T20:39:39Z</time>
      </trkpt>
      <trkpt lat="47.33184" lon="-2.40855">
        <ele>43</ele>
        <time>2023-11-01T20:41:35Z</time>
      </trkpt>
      <trkpt lat="47.332" lon="-2.40833">
        <ele>43</ele>
        <time>2023-11-01T20:42:04Z</time>
      </trkpt>
      <trkpt lat="47.33212" lon="-2.40809">
        <ele>43</ele>
        <time>2023-11-01T20:42:31Z</time>
      </trkpt>
      <trkpt lat="47.33226" lon="-2.40792">
        <ele>42</ele>
        <time>2023-11-01T20:42:55Z</time>
      </trkpt>
      <trkpt lat="47.33233" lon="-2.40767">
        <ele>41</ele>
        <time>2023-11-01T20:43:20Z</time>
      </trkpt>
      <trkpt lat="47.3324" lon="-2.40703">
        <ele>39</ele>
        <time>2023-11-01T20:44:19Z</time>
      </trkpt>
      <trkpt lat="47.33281" lon="-2.40554">
        <ele>36</ele>
        <time>2023-11-01T20:46:44Z</time>
      </trkpt>
      <trkpt lat="47.33307" lon="-2.40504">
        <ele>36</ele>
        <time>2023-11-01T20:47:41Z</time>
      </trkpt>
      <trkpt lat="47.33312" lon="-2.40475">
        <ele>36</ele>
        <time>2023-11-01T20:48:08Z</time>
      </trkpt>
      <trkpt lat="47.33313" lon="-2.40445">
        <ele>37</ele>
        <time>2023-11-01T20:48:35Z</time>
      </trkpt>
      <trkpt lat="47.33318" lon="-2.40411">
        <ele>37</ele>
        <time>2023-11-01T20:49:07Z</time>
      </trkpt>
      <trkpt lat="47.33315" lon="-2.40385">
        <ele>39</ele>
        <time>2023-11-01T20:49:31Z</time>
      </trkpt>
      <trkpt lat="47.33319" lon="-2.40359">
        <ele>40</ele>
        <time>2023-11-01T20:49:55Z</time>
      </trkpt>
      <trkpt lat="47.33328" lon="-2.40333">
        <ele>41</ele>
        <time>2023-11-01T20:50:21Z</time>
      </trkpt>
      <trkpt lat="47.33343" lon="-2.40243">
        <ele>43</ele>
        <time>2023-11-01T20:51:45Z</time>
      </trkpt>
      <trkpt lat="47.33352" lon="-2.4012">
        <ele>43</ele>
        <time>2023-11-01T20:53:37Z</time>
      </trkpt>
      <trkpt lat="47.3336" lon="-2.40052">
        <ele>43</ele>
        <time>2023-11-01T20:54:39Z</time>
      </trkpt>
      <trkpt lat="47.33373" lon="-2.40021">
        <ele>43</ele>
        <time>2023-11-01T20:55:12Z</time>
      </trkpt>
      <trkpt lat="47.33417" lon="-2.39953">
        <ele>41</ele>
        <time>2023-11-01T20:56:37Z</time>
      </trkpt>
      <trkpt lat="47.33432" lon="-2.39925">
        <ele>41</ele>
        <time>2023-11-01T20:57:10Z</time>
      </trkpt>
      <trkpt lat="47.33447" lon="-2.39911">
        <ele>40</ele>
        <time>2023-11-01T20:57:33Z</time>
      </trkpt>
      <trkpt lat="47.33481" lon="-2.39869">
        <ele>39</ele>
        <time>2023-11-01T20:58:32Z</time>
      </trkpt>
      <trkpt lat="47.33495" lon="-2.39844">
        <ele>38</ele>
        <time>2023-11-01T20:59:02Z</time>
      </trkpt>
      <trkpt lat="47.33525" lon="-2.39804">
        <ele>37</ele>
        <time>2023-11-01T20:59:56Z</time>
      </trkpt>
      <trkpt lat="47.33538" lon="-2.39781">
        <ele>37</ele>
        <time>2023-11-01T21:00:23Z</time>
      </trkpt>
      <trkpt lat="47.33586" lon="-2.39725">
        <ele>36</ele>
        <time>2023-11-01T21:01:44Z</time>
      </trkpt>
      <trkpt lat="47.33616" lon="-2.39673">
        <ele>36</ele>
        <time>2023-11-01T21:02:46Z</time>
      </trkpt>
      <trkpt lat="47.33632" lon="-2.39652">
        <ele>36</ele>
        <time>2023-11-01T21:03:15Z</time>
      </trkpt>
      <trkpt lat="47.33651" lon="-2.39599">
        <ele>37</ele>
        <time>2023-11-01T21:04:09Z</time>
      </trkpt>
      <trkpt lat="47.33662" lon="-2.39575">
        <ele>38</ele>
        <time>2023-11-01T21:04:35Z</time>
      </trkpt>
      <trkpt lat="47.33695" lon="-2.39461">
        <ele>39</ele>
        <time>2023-11-01T21:06:27Z</time>
      </trkpt>
      <trkpt lat="47.33707" lon="-2.39399">
        <ele>38</ele>
        <time>2023-11-01T21:07:26Z</time>
      </trkpt>
      <trkpt lat="47.3371" lon="-2.39341">
        <ele>37</ele>
        <time>2023-11-01T21:08:18Z</time>
      </trkpt>
      <trkpt lat="47.33716" lon="-2.39311">
        <ele>36</ele>
        <time>2023-11-01T21:08:46Z</time>
      </trkpt>
      <trkpt lat="47.33735" lon="-2.39308">
        <ele>36</ele>
        <time>2023-11-01T21:09:12Z</time>
      </trkpt>
      <trkpt lat="47.33755" lon="-2.39301">
        <ele>35</ele>
        <time>2023-11-01T21:09:39Z</time>
      </trkpt>
      <trkpt lat="47.33816" lon="-2.39287">
        <ele>33</ele>
        <time>2023-11-01T21:11:02Z</time>
      </trkpt>
      <trkpt lat="47.3386" lon="-2.39283">
        <ele>33</ele>
        <time>2023-11-01T21:12:01Z</time>
      </trkpt>
      <trkpt lat="47.33901" lon="-2.39276">
        <ele>33</ele>
        <time>2023-11-01T21:12:56Z</time>
      </trkpt>
      <trkpt lat="47.33962" lon="-2.3926">
        <ele>31</ele>
        <time>2023-11-01T21:14:18Z</time>
      </trkpt>
      <trkpt lat="47.34026" lon="-2.39252">
        <ele>30</ele>
        <time>2023-11-01T21:15:44Z</time>
      </trkpt>
      <trkpt lat="47.34046" lon="-2.39252">
        <ele>30</ele>
        <time>2023-11-01T21:16:11Z</time>
      </trkpt>
      <trkpt lat="47.34063" lon="-2.39266">
        <ele>30</ele>
        <time>2023-11-01T21:16:37Z</time>
      </trkpt>
      <trkpt lat="47.3408" lon="-2.39351">
        <ele>31</ele>
        <time>2023-11-01T21:17:57Z</time>
      </trkpt>
      <trkpt lat="47.34088" lon="-2.39406">
        <ele>32</ele>
        <time>2023-11-01T21:18:48Z</time>
      </trkpt>
      <trkpt lat="47.34096" lon="-2.39431">
        <ele>31</ele>
        <time>2023-11-01T21:19:13Z</time>
      </trkpt>
      <trkpt lat="47.34114" lon="-2.39426">
        <ele>31</ele>
        <time>2023-11-01T21:19:37Z</time>
      </trkpt>
      <trkpt lat="47.34133" lon="-2.39416">
        <ele>31</ele>
        <time>2023-11-01T21:20:04Z</time>
      </trkpt>
      <trkpt lat="47.34186" lon="-2.39377">
        <ele>30</ele>
        <time>2023-11-01T21:21:23Z</time>
      </trkpt>
      <trkpt lat="47.34207" lon="-2.3937">
        <ele>30</ele>
        <time>2023-11-01T21:21:52Z</time>
      </trkpt>
      <trkpt lat="47.34226" lon="-2.39355">
        <ele>30</ele>
        <time>2023-11-01T21:22:21Z</time>
      </trkpt>
      <trkpt lat="47.34245" lon="-2.39344">
        <ele>30</ele>
        <time>2023-11-01T21:22:48Z</time>
      </trkpt>
      <trkpt lat="47.34263" lon="-2.39328">
        <ele>29</ele>
        <time>2023-11-01T21:23:16Z</time>
      </trkpt>
      <trkpt lat="47.34299" lon="-2.39312">
        <ele>28</ele>
        <time>2023-11-01T21:24:06Z</time>
      </trkpt>
      <trkpt lat="47.34319" lon="-2.39297">
        <ele>27</ele>
        <time>2023-11-01T21:24:36Z</time>
      </trkpt>
      <trkpt lat="47.34357" lon="-2.39281">
        <ele>26</ele>
        <time>2023-11-01T21:25:29Z</time>
      </trkpt>
      <trkpt lat="47.34376" lon="-2.3927">
        <ele>26</ele>
        <time>2023-11-01T21:25:56Z</time>
      </trkpt>
      <trkpt lat="47.3446" lon="-2.39236">
        <ele>22</ele>
        <time>2023-11-01T21:27:52Z</time>
      </trkpt>
      <trkpt lat="47.34478" lon="-2.39234">
        <ele>21</ele>
        <time>2023-11-01T21:28:16Z</time>
      </trkpt>
      <trkpt lat="47.345" lon="-2.39227">
        <ele>20</ele>
        <time>2023-11-01T21:28:46Z</time>
      </trkpt>
      <trkpt lat="47.34561" lon="-2.39231">
        <ele>18</ele>
        <time>2023-11-01T21:30:08Z</time>
      </trkpt>
      <trkpt lat="47.34581" lon="-2.3924">
        <ele>18</ele>
        <time>2023-11-01T21:30:36Z</time>
      </trkpt>
      <trkpt lat="47.34616" lon="-2.39267">
        <ele>17</ele>
        <time>2023-11-01T21:31:28Z</time>
      </trkpt>
      <trkpt lat="47.34635" lon="-2.39278">
        <ele>17</ele>
        <time>2023-11-01T21:31:56Z</time>
      </trkpt>
      <trkpt lat="47.3465" lon="-2.39293">
        <ele>17</ele>
        <time>2023-11-01T21:32:20Z</time>
      </trkpt>
      <trkpt lat="47.34665" lon="-2.39314">
        <ele>17</ele>
        <time>2023-11-01T21:32:47Z</time>
      </trkpt>
      <trkpt lat="47.34687" lon="-2.39362">
        <ele>17</ele>
        <time>2023-11-01T21:33:40Z</time>
      </trkpt>
      <trkpt lat="47.34693" lon="-2.39389">
        <ele>18</ele>
        <time>2023-11-01T21:34:06Z</time>
      </trkpt>
      <trkpt lat="47.34712" lon="-2.39445">
        <ele>18</ele>
        <time>2023-11-01T21:35:02Z</time>
      </trkpt>
      <trkpt lat="47.34719" lon="-2.39504">
        <ele>18</ele>
        <time>2023-11-01T21:35:56Z</time>
      </trkpt>
      <trkpt lat="47.34717" lon="-2.39598">
        <ele>20</ele>
        <time>2023-11-01T21:37:21Z</time>
      </trkpt>
      <trkpt lat="47.34702" lon="-2.3962">
        <ele>20</ele>
        <time>2023-11-01T21:37:50Z</time>
      </trkpt>
      <trkpt lat="47.3469" lon="-2.39645">
        <ele>20</ele>
        <time>2023-11-01T21:38:17Z</time>
      </trkpt>
      <trkpt lat="47.3468" lon="-2.39729">
        <ele>21</ele>
        <time>2023-11-01T21:39:34Z</time>
      </trkpt>
      <trkpt lat="47.34682" lon="-2.39756">
        <ele>21</ele>
        <time>2023-11-01T21:39:59Z</time>
      </trkpt>
      <trkpt lat="47.34678" lon="-2.39783">
        <ele>22</ele>
        <time>2023-11-01T21:40:24Z</time>
      </trkpt>
      <trkpt lat="47.34667" lon="-2.39806">
        <ele>22</ele>
        <time>2023-11-01T21:40:49Z</time>
      </trkpt>
      <trkpt lat="47.34649" lon="-2.3982">
        <ele>23</ele>
        <time>2023-11-01T21:41:17Z</time>
      </trkpt>
      <trkpt lat="47.34619" lon="-2.3986">
        <ele>23</ele>
        <time>2023-11-01T21:42:10Z</time>
      </trkpt>
      <trkpt lat="47.34606" lon="-2.39863">
        <ele>23</ele>
        <time>2023-11-01T21:42:28Z</time>
      </trkpt>
      <trkpt lat="47.34613" lon="-2.39893">
        <ele>23</ele>
        <time>2023-11-01T21:42:57Z</time>
      </trkpt>
      <trkpt lat="47.34606" lon="-2.39918">
        <ele>24</ele>
        <time>2023-11-01T21:43:21Z</time>
      </trkpt>
      <trkpt lat="47.34607" lon="-2.39951">
        <ele>23</ele>
        <time>2023-11-01T21:43:51Z</time>
      </trkpt>
      <trkpt lat="47.34593" lon="-2.39975">
        <ele>23</ele>
        <time>2023-11-01T21:44:20Z</time>
      </trkpt>
      <trkpt lat="47.34596" lon="-2.40004">
        <ele>23</ele>
        <time>2023-11-01T21:44:46Z</time>
      </trkpt>
      <trkpt lat="47.3461" lon="-2.40023">
        <ele>23</ele>
        <time>2023-11-01T21:45:12Z</time>
      </trkpt>
      <trkpt lat="47.34634" lon="-2.40067">
        <ele>23</ele>
        <time>2023-11-01T21:46:03Z</time>
      </trkpt>
      <trkpt lat="47.34665" lon="-2.40108">
        <ele>22</ele>
        <time>2023-11-01T21:46:58Z</time>
      </trkpt>
      <trkpt lat="47.34684" lon="-2.40117">
        <ele>22</ele>
        <time>2023-11-01T21:47:25Z</time>
      </trkpt>
      <trkpt lat="47.34705" lon="-2.40122">
        <ele>22</ele>
        <time>2023-11-01T21:47:53Z</time>
      </trkpt>
      <trkpt lat="47.34725" lon="-2.40131">
        <ele>22</ele>
        <time>2023-11-01T21:48:21Z</time>
      </trkpt>
      <trkpt lat="47.34768" lon="-2.40192">
        <ele>23</ele>
        <time>2023-11-01T21:49:41Z</time>
      </trkpt>
      <trkpt lat="47.34805" lon="-2.40223">
        <ele>22</ele>
        <time>2023-11-01T21:50:38Z</time>
      </trkpt>
      <trkpt lat="47.34853" lon="-2.40325">
        <ele>19</ele>
        <time>2023-11-01T21:52:30Z</time>
      </trkpt>
      <trkpt lat="47.34861" lon="-2.40354">
        <ele>18</ele>
        <time>2023-11-01T21:52:58Z</time>
      </trkpt>
      <trkpt lat="47.34864" lon="-2.40382">
        <ele>18</ele>
        <time>2023-11-01T21:53:24Z</time>
      </trkpt>
      <trkpt lat="47.3488" lon="-2.40464">
        <ele>16</ele>
        <time>2023-11-01T21:54:41Z</time>
      </trkpt>
      <trkpt lat="47.34888" lon="-2.40523">
        <ele>15</ele>
        <time>2023-11-01T21:55:35Z</time>
      </trkpt>
      <trkpt lat="47.34889" lon="-2.40555">
        <ele>15</ele>
        <time>2023-11-01T21:56:04Z</time>
      </trkpt>
      <trkpt lat="47.34874" lon="-2.40579">
        <ele>15</ele>
        <time>2023-11-01T21:56:34Z</time>
      </trkpt>
      <trkpt lat="47.34857" lon="-2.40595">
        <ele>15</ele>
        <time>2023-11-01T21:57:01Z</time>
      </trkpt>
      <trkpt lat="47.34842" lon="-2.40617">
        <ele>15</ele>
        <time>2023-11-01T21:57:29Z</time>
      </trkpt>
      <trkpt lat="47.34834" lon="-2.40643">
        <ele>16</ele>
        <time>2023-11-01T21:57:55Z</time>
      </trkpt>
      <trkpt lat="47.34827" lon="-2.40671">
        <ele>16</ele>
        <time>2023-11-01T21:58:22Z</time>
      </trkpt>
      <trkpt lat="47.34823" lon="-2.40702">
        <ele>17</ele>
        <time>2023-11-01T21:58:50Z</time>
      </trkpt>
      <trkpt lat="47.34829" lon="-2.40757">
        <ele>18</ele>
        <time>2023-11-01T21:59:41Z</time>
      </trkpt>
      <trkpt lat="47.34848" lon="-2.4077">
        <ele>19</ele>
        <time>2023-11-01T22:00:09Z</time>
      </trkpt>
      <trkpt lat="47.3487" lon="-2.40768">
        <ele>18</ele>
        <time>2023-11-01T22:00:38Z</time>
      </trkpt>
      <trkpt lat="47.34889" lon="-2.40776">
        <ele>18</ele>
        <time>2023-11-01T22:01:04Z</time>
      </trkpt>
      <trkpt lat="47.34903" lon="-2.40794">
        <ele>19</ele>
        <time>2023-11-01T22:01:29Z</time>
      </trkpt>
      <trkpt lat="47.34915" lon="-2.40816">
        <ele>19</ele>
        <time>2023-11-01T22:01:55Z</time>
      </trkpt>
      <trkpt lat="47.34935" lon="-2.40864">
        <ele>20</ele>
        <time>2023-11-01T22:02:46Z</time>
      </trkpt>
      <trkpt lat="47.34941" lon="-2.4089">
        <ele>21</ele>
        <time>2023-11-01T22:03:10Z</time>
      </trkpt>
      <trkpt lat="47.34943" lon="-2.40918">
        <ele>21</ele>
        <time>2023-11-01T22:03:36Z</time>
      </trkpt>
      <trkpt lat="47.34945" lon="-2.40975">
        <ele>22</ele>
        <time>2023-11-01T22:04:27Z</time>
      </trkpt>
      <trkpt lat="47.34937" lon="-2.41032">
        <ele>22</ele>
        <time>2023-11-01T22:05:20Z</time>
      </trkpt>
      <trkpt lat="47.34943" lon="-2.41065">
        <ele>20</ele>
        <time>2023-11-01T22:05:51Z</time>
      </trkpt>
      <trkpt lat="47.34957" lon="-2.41116">
        <ele>17</ele>
        <time>2023-11-01T22:06:41Z</time>
      </trkpt>
      <trkpt lat="47.34991" lon="-2.41186">
        <ele>16</ele>
        <time>2023-11-01T22:07:59Z</time>
      </trkpt>
      <trkpt lat="47.34999" lon="-2.41214">
        <ele>16</ele>
        <time>2023-11-01T22:08:26Z</time>
      </trkpt>
      <trkpt lat="47.35012" lon="-2.41238">
        <ele>17</ele>
        <time>2023-11-01T22:08:54Z</time>
      </trkpt>
      <trkpt lat="47.3505" lon="-2.41342">
        <ele>19</ele>
        <time>2023-11-01T22:10:41Z</time>
      </trkpt>
      <trkpt lat="47.35072" lon="-2.41386">
        <ele>17</ele>
        <time>2023-11-01T22:11:30Z</time>
      </trkpt>
      <trkpt lat="47.3507" lon="-2.41414">
        <ele>17</ele>
        <time>2023-11-01T22:11:56Z</time>
      </trkpt>
      <trkpt lat="47.35054" lon="-2.41427">
        <ele>17</ele>
        <time>2023-11-01T22:12:20Z</time>
      </trkpt>
      <trkpt lat="47.35035" lon="-2.41437">
        <ele>18</ele>
        <time>2023-11-01T22:12:47Z</time>
      </trkpt>
      <trkpt lat="47.34978" lon="-2.4146">
        <ele>20</ele>
        <time>2023-11-01T22:14:06Z</time>
      </trkpt>
      <trkpt lat="47.34932" lon="-2.41474">
        <ele>20</ele>
        <time>2023-11-01T22:15:08Z</time>
      </trkpt>
      <trkpt lat="47.34912" lon="-2.41484">
        <ele>19</ele>
        <time>2023-11-01T22:15:37Z</time>
      </trkpt>
      <trkpt lat="47.3489" lon="-2.41486">
        <ele>20</ele>
        <time>2023-11-01T22:16:06Z</time>
      </trkpt>
      <trkpt lat="47.3485" lon="-2.41502">
        <ele>21</ele>
        <time>2023-11-01T22:17:01Z</time>
      </trkpt>
      <trkpt lat="47.34785" lon="-2.41515">
        <ele>21</ele>
        <time>2023-11-01T22:18:29Z</time>
      </trkpt>
      <trkpt lat="47.34767" lon="-2.41523">
        <ele>21</ele>
        <time>2023-11-01T22:18:54Z</time>
      </trkpt>
      <trkpt lat="47.34747" lon="-2.41527">
        <ele>20</ele>
        <time>2023-11-01T22:19:21Z</time>
      </trkpt>
      <trkpt lat="47.34632" lon="-2.41563">
        <ele>20</ele>
        <time>2023-11-01T22:21:58Z</time>
      </trkpt>
      <trkpt lat="47.34609" lon="-2.41575">
        <ele>21</ele>
        <time>2023-11-01T22:22:30Z</time>
      </trkpt>
      <trkpt lat="47.3455" lon="-2.41595">
        <ele>22</ele>
        <time>2023-11-01T22:23:51Z</time>
      </trkpt>
      <trkpt lat="47.34529" lon="-2.41606">
        <ele>22</ele>
        <time>2023-11-01T22:24:21Z</time>
      </trkpt>
      <trkpt lat="47.34488" lon="-2.41621">
        <ele>24</ele>
        <time>2023-11-01T22:25:17Z</time>
      </trkpt>
      <trkpt lat="47.34469" lon="-2.41633">
        <ele>24</ele>
        <time>2023-11-01T22:25:45Z</time>
      </trkpt>
      <trkpt lat="47.34451" lon="-2.41649">
        <ele>25</ele>
        <time>2023-11-01T22:26:13Z</time>
      </trkpt>
      <trkpt lat="47.34423" lon="-2.41691">
        <ele>26</ele>
        <time>2023-11-01T22:27:06Z</time>
      </trkpt>
      <trkpt lat="47.34381" lon="-2.41715">
        <ele>27</ele>
        <time>2023-11-01T22:28:06Z</time>
      </trkpt>
      <trkpt lat="47.34343" lon="-2.41741">
        <ele>28</ele>
        <time>2023-11-01T22:29:02Z</time>
      </trkpt>
      <trkpt lat="47.34324" lon="-2.41747">
        <ele>28</ele>
        <time>2023-11-01T22:29:28Z</time>
      </trkpt>
      <trkpt lat="47.34263" lon="-2.41779">
        <ele>29</ele>
        <time>2023-11-01T22:30:54Z</time>
      </trkpt>
      <trkpt lat="47.34244" lon="-2.41786">
        <ele>29</ele>
        <time>2023-11-01T22:31:21Z</time>
      </trkpt>
      <trkpt lat="47.34227" lon="-2.41768">
        <ele>29</ele>
        <time>2023-11-01T22:31:48Z</time>
      </trkpt>
      <trkpt lat="47.34217" lon="-2.41742">
        <ele>29</ele>
        <time>2023-11-01T22:32:16Z</time>
      </trkpt>
      <trkpt lat="47.34212" lon="-2.41713">
        <ele>28</ele>
        <time>2023-11-01T22:32:43Z</time>
      </trkpt>
      <trkpt lat="47.34197" lon="-2.41693">
        <ele>28</ele>
        <time>2023-11-01T22:33:10Z</time>
      </trkpt>
      <trkpt lat="47.34181" lon="-2.41711">
        <ele>29</ele>
        <time>2023-11-01T22:33:36Z</time>
      </trkpt>
      <trkpt lat="47.34079" lon="-2.41805">
        <ele>32</ele>
        <time>2023-11-01T22:36:17Z</time>
      </trkpt>
      <trkpt lat="47.34048" lon="-2.41846">
        <ele>32</ele>
        <time>2023-11-01T22:37:12Z</time>
      </trkpt>
      <trkpt lat="47.33994" lon="-2.41934">
        <ele>33</ele>
        <time>2023-11-01T22:39:00Z</time>
      </trkpt>
      <trkpt lat="47.33976" lon="-2.41952">
        <ele>34</ele>
        <time>2023-11-01T22:39:29Z</time>
      </trkpt>
      <trkpt lat="47.33961" lon="-2.41977">
        <ele>36</ele>
        <time>2023-11-01T22:39:59Z</time>
      </trkpt>
      <trkpt lat="47.33946" lon="-2.41993">
        <ele>37</ele>
        <time>2023-11-01T22:40:24Z</time>
      </trkpt>
      <trkpt lat="47.33932" lon="-2.42013">
        <ele>38</ele>
        <time>2023-11-01T22:40:50Z</time>
      </trkpt>
      <trkpt lat="47.33882" lon="-2.42052">
        <ele>38</ele>
        <time>2023-11-01T22:42:05Z</time>
      </trkpt>
      <trkpt lat="47.33862" lon="-2.42063">
        <ele>38</ele>
        <time>2023-11-01T22:42:34Z</time>
      </trkpt>
      <trkpt lat="47.33844" lon="-2.42079">
        <ele>37</ele>
        <time>2023-11-01T22:43:02Z</time>
      </trkpt>
      <trkpt lat="47.33825" lon="-2.42089">
        <ele>37</ele>
        <time>2023-11-01T22:43:29Z</time>
      </trkpt>
      <trkpt lat="47.3382" lon="-2.42118">
        <ele>37</ele>
        <time>2023-11-01T22:43:56Z</time>
      </trkpt>
      <trkpt lat="47.33838" lon="-2.42261">
        <ele>38</ele>
        <time>2023-11-01T22:46:07Z</time>
      </trkpt>
      <trkpt lat="47.3385" lon="-2.42319">
        <ele>41</ele>
        <time>2023-11-01T22:47:02Z</time>
      </trkpt>
      <trkpt lat="47.33856" lon="-2.42377">
        <ele>41</ele>
        <time>2023-11-01T22:47:55Z</time>
      </trkpt>
      <trkpt lat="47.3385" lon="-2.42407">
        <ele>40</ele>
        <time>2023-11-01T22:48:23Z</time>
      </trkpt>
      <trkpt lat="47.33844" lon="-2.42471">
        <ele>39</ele>
        <time>2023-11-01T22:49:22Z</time>
      </trkpt>
      <trkpt lat="47.33835" lon="-2.42494">
        <ele>38</ele>
        <time>2023-11-01T22:49:46Z</time>
      </trkpt>
      <trkpt lat="47.33832" lon="-2.4252">
        <ele>39</ele>
        <time>2023-11-01T22:50:10Z</time>
      </trkpt>
      <trkpt lat="47.33817" lon="-2.42576">
        <ele>41</ele>
        <time>2023-11-01T22:51:04Z</time>
      </trkpt>
      <trkpt lat="47.33817" lon="-2.42609">
        <ele>41</ele>
        <time>2023-11-01T22:51:34Z</time>
      </trkpt>
      <trkpt lat="47.338" lon="-2.42666">
        <ele>42</ele>
        <time>2023-11-01T22:52:30Z</time>
      </trkpt>
      <trkpt lat="47.33789" lon="-2.42722">
        <ele>40</ele>
        <time>2023-11-01T22:53:23Z</time>
      </trkpt>
      <trkpt lat="47.33771" lon="-2.42736">
        <ele>40</ele>
        <time>2023-11-01T22:53:50Z</time>
      </trkpt>
      <trkpt lat="47.33751" lon="-2.42741">
        <ele>39</ele>
        <time>2023-11-01T22:54:17Z</time>
      </trkpt>
      <trkpt lat="47.33732" lon="-2.42742">
        <ele>40</ele>
        <time>2023-11-01T22:54:43Z</time>
      </trkpt>
      <trkpt lat="47.33712" lon="-2.42733">
        <ele>40</ele>
        <time>2023-11-01T22:55:11Z</time>
      </trkpt>
      <trkpt lat="47.33673" lon="-2.42725">
        <ele>41</ele>
        <time>2023-11-01T22:56:03Z</time>
      </trkpt>
      <trkpt lat="47.33652" lon="-2.42725">
        <ele>41</ele>
        <time>2023-11-01T22:56:31Z</time>
      </trkpt>
      <trkpt lat="47.3363" lon="-2.42731">
        <ele>41</ele>
        <time>2023-11-01T22:57:01Z</time>
      </trkpt>
      <trkpt lat="47.3361" lon="-2.42732">
        <ele>41</ele>
        <time>2023-11-01T22:57:28Z</time>
      </trkpt>
      <trkpt lat="47.3359" lon="-2.42739">
        <ele>41</ele>
        <time>2023-11-01T22:57:55Z</time>
      </trkpt>
      <trkpt lat="47.3357" lon="-2.42734">
        <ele>41</ele>
        <time>2023-11-01T22:58:22Z</time>
      </trkpt>
      <trkpt lat="47.33582" lon="-2.42678">
        <ele>42</ele>
        <time>2023-11-01T22:59:15Z</time>
      </trkpt>
      <trkpt lat="47.33585" lon="-2.42649">
        <ele>42</ele>
        <time>2023-11-01T22:59:42Z</time>
      </trkpt>
      <trkpt lat="47.33583" lon="-2.4262">
        <ele>42</ele>
        <time>2023-11-01T23:00:08Z</time>
      </trkpt>
      <trkpt lat="47.3357" lon="-2.42535">
        <ele>42</ele>
        <time>2023-11-01T23:01:27Z</time>
      </trkpt>
      <trkpt lat="47.33559" lon="-2.42514">
        <ele>43</ele>
        <time>2023-11-01T23:01:51Z</time>
      </trkpt>
      <trkpt lat="47.3354" lon="-2.42501">
        <ele>44</ele>
        <time>2023-11-01T23:02:19Z</time>
      </trkpt>
      <trkpt lat="47.335" lon="-2.42486">
        <ele>45</ele>
        <time>2023-11-01T23:03:14Z</time>
      </trkpt>
      <trkpt lat="47.33483" lon="-2.42473">
        <ele>46</ele>
        <time>2023-11-01T23:03:40Z</time>
      </trkpt>
      <trkpt lat="47.33469" lon="-2.42453">
        <ele>46</ele>
        <time>2023-11-01T23:04:06Z</time>
      </trkpt>
      <trkpt lat="47.33433" lon="-2.42438">
        <ele>48</ele>
        <time>2023-11-01T23:04:55Z</time>
      </trkpt>
      <trkpt lat="47.3341" lon="-2.42433">
        <ele>49</ele>
        <time>2023-11-01T23:05:26Z</time>
      </trkpt>
      <trkpt lat="47.33388" lon="-2.42432">
        <ele>49</ele>
        <time>2023-11-01T23:05:56Z</time>
      </trkpt>
      <trkpt lat="47.3337" lon="-2.42419">
        <ele>48</ele>
        <time>2023-11-01T23:06:23Z</time>
      </trkpt>
      <trkpt lat="47.33352" lon="-2.42421">
        <ele>48</ele>
        <time>2023-11-01T23:06:47Z</time>
      </trkpt>
      <trkpt lat="47.33314" lon="-2.42443">
        <ele>48</ele>
        <time>2023-11-01T23:07:41Z</time>
      </trkpt>
      <trkpt lat="47.33277" lon="-2.42468">
        <ele>47</ele>
        <time>2023-11-01T23:08:35Z</time>
      </trkpt>
      <trkpt lat="47.33258" lon="-2.42466">
        <ele>47</ele>
        <time>2023-11-01T23:09:01Z</time>
      </trkpt>
      <trkpt lat="47.33245" lon="-2.42486">
        <ele>47</ele>
        <time>2023-11-01T23:09:26Z</time>
      </trkpt>
      <trkpt lat="47.33227" lon="-2.425">
        <ele>47</ele>
        <time>2023-11-01T23:09:53Z</time>
      </trkpt>
      <trkpt lat="47.33189" lon="-2.42522">
        <ele>46</ele>
        <time>2023-11-01T23:10:48Z</time>
      </trkpt>
      <trkpt lat="47.33173" lon="-2.42536">
        <ele>46</ele>
        <time>2023-11-01T23:11:12Z</time>
      </trkpt>
      <trkpt lat="47.33141" lon="-2.42578">
        <ele>46</ele>
        <time>2023-11-01T23:12:10Z</time>
      </trkpt>
      <trkpt lat="47.33133" lon="-2.42668">
        <ele>46</ele>
        <time>2023-11-01T23:13:32Z</time>
      </trkpt>
      <trkpt lat="47.33146" lon="-2.42689">
        <ele>46</ele>
        <time>2023-11-01T23:13:57Z</time>
      </trkpt>
      <trkpt lat="47.33165" lon="-2.42745">
        <ele>47</ele>
        <time>2023-11-01T23:14:54Z</time>
      </trkpt>
      <trkpt lat="47.3319" lon="-2.4279">
        <ele>47</ele>
        <time>2023-11-01T23:15:47Z</time>
      </trkpt>
      <trkpt lat="47.33208" lon="-2.42849">
        <ele>47</ele>
        <time>2023-11-01T23:16:45Z</time>
      </trkpt>
      <trkpt lat="47.33219" lon="-2.42871">
        <ele>46</ele>
        <time>2023-11-01T23:17:10Z</time>
      </trkpt>
      <trkpt lat="47.33237" lon="-2.42876">
        <ele>46</ele>
        <time>2023-11-01T23:17:34Z</time>
      </trkpt>
      <trkpt lat="47.33259" lon="-2.42875">
        <ele>45</ele>
        <time>2023-11-01T23:18:04Z</time>
      </trkpt>
      <trkpt lat="47.33301" lon="-2.42868">
        <ele>44</ele>
        <time>2023-11-01T23:19:00Z</time>
      </trkpt>
      <trkpt lat="47.33339" lon="-2.42865">
        <ele>44</ele>
        <time>2023-11-01T23:19:51Z</time>
      </trkpt>
      <trkpt lat="47.33359" lon="-2.42866">
        <ele>43</ele>
        <time>2023-11-01T23:20:18Z</time>
      </trkpt>
      <trkpt lat="47.33378" lon="-2.42862">
        <ele>43</ele>
        <time>2023-11-01T23:20:43Z</time>
      </trkpt>
      <trkpt lat="47.33399" lon="-2.42861">
        <ele>43</ele>
        <time>2023-11-01T23:21:11Z</time>
      </trkpt>
      <trkpt lat="47.3342" lon="-2.42874">
        <ele>43</ele>
        <time>2023-11-01T23:21:42Z</time>
      </trkpt>
      <trkpt lat="47.33481" lon="-2.42864">
        <ele>42</ele>
        <time>2023-11-01T23:23:04Z</time>
      </trkpt>
      <trkpt lat="47.33498" lon="-2.42856">
        <ele>41</ele>
        <time>2023-11-01T23:23:27Z</time>
      </trkpt>
      <trkpt lat="47.33517" lon="-2.4286">
        <ele>41</ele>
        <time>2023-11-01T23:23:53Z</time>
      </trkpt>
      <trkpt lat="47.33533" lon="-2.42873">
        <ele>41</ele>
        <time>2023-11-01T23:24:17Z</time>
      </trkpt>
      <trkpt lat="47.33508" lon="-2.43089">
        <ele>43</ele>
        <time>2023-11-01T23:27:36Z</time>
      </trkpt>
      <trkpt lat="47.33499" lon="-2.4312">
        <ele>43</ele>
        <time>2023-11-01T23:28:06Z</time>
      </trkpt>
      <trkpt lat="47.33469" lon="-2.43161">
        <ele>43</ele>
        <time>2023-11-01T23:29:01Z</time>
      </trkpt>
      <trkpt lat="47.33459" lon="-2.43182">
        <ele>44</ele>
        <time>2023-11-01T23:29:24Z</time>
      </trkpt>
      <trkpt lat="47.33445" lon="-2.43238">
        <ele>45</ele>
        <time>2023-11-01T23:30:18Z</time>
      </trkpt>
      <trkpt lat="47.33429" lon="-2.43253">
        <ele>45</ele>
        <time>2023-11-01T23:30:43Z</time>
      </trkpt>
      <trkpt lat="47.33433" lon="-2.43279">
        <ele>45</ele>
        <time>2023-11-01T23:31:07Z</time>
      </trkpt>
      <trkpt lat="47.33427" lon="-2.4331">
        <ele>44</ele>
        <time>2023-11-01T23:31:36Z</time>
      </trkpt>
      <trkpt lat="47.3341" lon="-2.43363">
        <ele>45</ele>
        <time>2023-11-01T23:32:29Z</time>
      </trkpt>
      <trkpt lat="47.33398" lon="-2.43417">
        <ele>46</ele>
        <time>2023-11-01T23:33:21Z</time>
      </trkpt>
      <trkpt lat="47.33406" lon="-2.43476">
        <ele>46</ele>
        <time>2023-11-01T23:34:15Z</time>
      </trkpt>
      <trkpt lat="47.33411" lon="-2.4354">
        <ele>46</ele>
        <time>2023-11-01T23:35:13Z</time>
      </trkpt>
      <trkpt lat="47.33407" lon="-2.43572">
        <ele>46</ele>
        <time>2023-11-01T23:35:43Z</time>
      </trkpt>
      <trkpt lat="47.33363" lon="-2.43679">
        <ele>47</ele>
        <time>2023-11-01T23:37:36Z</time>
      </trkpt>
      <trkpt lat="47.33344" lon="-2.43685">
        <ele>47</ele>
        <time>2023-11-01T23:38:02Z</time>
      </trkpt>
      <trkpt lat="47.33331" lon="-2.43703">
        <ele>47</ele>
        <time>2023-11-01T23:38:26Z</time>
      </trkpt>
      <trkpt lat="47.33334" lon="-2.43736">
        <ele>46</ele>
        <time>2023-11-01T23:38:56Z</time>
      </trkpt>
      <trkpt lat="47.33318" lon="-2.43752">
        <ele>46</ele>
        <time>2023-11-01T23:39:22Z</time>
      </trkpt>
      <trkpt lat="47.33201" lon="-2.43786">
        <ele>48</ele>
        <time>2023-11-01T23:42:01Z</time>
      </trkpt>
      <trkpt lat="47.33198" lon="-2.43816">
        <ele>47</ele>
        <time>2023-11-01T23:42:28Z</time>
      </trkpt>
      <trkpt lat="47.33206" lon="-2.43842">
        <ele>47</ele>
        <time>2023-11-01T23:42:54Z</time>
      </trkpt>
      <trkpt lat="47.33217" lon="-2.43865">
        <ele>47</ele>
        <time>2023-11-01T23:43:20Z</time>
      </trkpt>
      <trkpt lat="47.33235" lon="-2.43882">
        <ele>47</ele>
        <time>2023-11-01T23:43:48Z</time>
      </trkpt>
      <trkpt lat="47.33254" lon="-2.4389">
        <ele>48</ele>
        <time>2023-11-01T23:44:14Z</time>
      </trkpt>
      <trkpt lat="47.3329" lon="-2.43914">
        <ele>48</ele>
        <time>2023-11-01T23:45:07Z</time>
      </trkpt>
      <trkpt lat="47.33309" lon="-2.43922">
        <ele>48</ele>
        <time>2023-11-01T23:45:33Z</time>
      </trkpt>
      <trkpt lat="47.33326" lon="-2.43934">
        <ele>48</ele>
        <time>2023-11-01T23:45:59Z</time>
      </trkpt>
      <trkpt lat="47.33342" lon="-2.43953">
        <ele>48</ele>
        <time>2023-11-01T23:46:26Z</time>
      </trkpt>
      <trkpt lat="47.33396" lon="-2.44006">
        <ele>48</ele>
        <time>2023-11-01T23:47:53Z</time>
      </trkpt>
      <trkpt lat="47.33427" lon="-2.4404">
        <ele>48</ele>
        <time>2023-11-01T23:48:44Z</time>
      </trkpt>
      <trkpt lat="47.33477" lon="-2.44083">
        <ele>47</ele>
        <time>2023-11-01T23:50:01Z</time>
      </trkpt>
      <trkpt lat="47.33493" lon="-2.441">
        <ele>47</ele>
        <time>2023-11-01T23:50:28Z</time>
      </trkpt>
      <trkpt lat="47.33583" lon="-2.4417">
        <ele>48</ele>
        <time>2023-11-01T23:52:43Z</time>
      </trkpt>
      <trkpt lat="47.33616" lon="-2.44199">
        <ele>48</ele>
        <time>2023-11-01T23:53:35Z</time>
      </trkpt>
      <trkpt lat="47.33635" lon="-2.44212">
        <ele>49</ele>
        <time>2023-11-01T23:54:03Z</time>
      </trkpt>
      <trkpt lat="47.33703" lon="-2.44275">
        <ele>48</ele>
        <time>2023-11-01T23:55:50Z</time>
      </trkpt>
      <trkpt lat="47.3374" lon="-2.44313">
        <ele>47</ele>
        <time>2023-11-01T23:56:50Z</time>
      </trkpt>
      <trkpt lat="47.33758" lon="-2.44324">
        <ele>46</ele>
        <time>2023-11-01T23:57:16Z</time>
      </trkpt>
      <trkpt lat="47.33774" lon="-2.44338">
        <ele>46</ele>
        <time>2023-11-01T23:57:41Z</time>
      </trkpt>
      <trkpt lat="47.33791" lon="-2.44345">
        <ele>46</ele>
        <time>2023-11-01T23:58:04Z</time>
      </trkpt>
      <trkpt lat="47.33812" lon="-2.44341">
        <ele>47</ele>
        <time>2023-11-01T23:58:33Z</time>
      </trkpt>
      <trkpt lat="47.33834" lon="-2.44343">
        <ele>47</ele>
        <time>2023-11-01T23:59:02Z</time>
      </trkpt>
      <trkpt lat="47.33854" lon="-2.44348">
        <ele>46</ele>
        <time>2023-11-01T23:59:29Z</time>
      </trkpt>
      <trkpt lat="47.33875" lon="-2.44347">
        <ele>45</ele>
        <time>2023-11-01T23:59:57Z</time>
      </trkpt>
      <trkpt lat="47.33895" lon="-2.4435">
        <ele>44</ele>
        <time>2023-11-02T00:00:24Z</time>
      </trkpt>
      <trkpt lat="47.33972" lon="-2.44391">
        <ele>42</ele>
        <time>2023-11-02T00:02:13Z</time>
      </trkpt>
      <trkpt lat="47.33993" lon="-2.44397">
        <ele>42</ele>
        <time>2023-11-02T00:02:42Z</time>
      </trkpt>
      <trkpt lat="47.3403" lon="-2.44426">
        <ele>42</ele>
        <time>2023-11-02T00:03:38Z</time>
      </trkpt>
      <trkpt lat="47.34044" lon="-2.44449">
        <ele>42</ele>
        <time>2023-11-02T00:04:06Z</time>
      </trkpt>
      <trkpt lat="47.34047" lon="-2.44478">
        <ele>42</ele>
        <time>2023-11-02T00:04:32Z</time>
      </trkpt>
      <trkpt lat="47.34054" lon="-2.44592">
        <ele>42</ele>
        <time>2023-11-02T00:06:16Z</time>
      </trkpt>
      <trkpt lat="47.3405" lon="-2.4465">
        <ele>42</ele>
        <time>2023-11-02T00:07:08Z</time>
      </trkpt>
      <trkpt lat="47.3404" lon="-2.44735">
        <ele>42</ele>
        <time>2023-11-02T00:08:26Z</time>
      </trkpt>
      <trkpt lat="47.34019" lon="-2.44814">
        <ele>43</ele>
        <time>2023-11-02T00:09:43Z</time>
      </trkpt>
      <trkpt lat="47.34001" lon="-2.44864">
        <ele>44</ele>
        <time>2023-11-02T00:10:34Z</time>
      </trkpt>
      <trkpt lat="47.33988" lon="-2.44922">
        <ele>45</ele>
        <time>2023-11-02T00:11:30Z</time>
      </trkpt>
      <trkpt lat="47.33985" lon="-2.44951">
        <ele>45</ele>
        <time>2023-11-02T00:11:56Z</time>
      </trkpt>
      <trkpt lat="47.33986" lon="-2.4498">
        <ele>45</ele>
        <time>2023-11-02T00:12:22Z</time>
      </trkpt>
      <trkpt lat="47.34004" lon="-2.45062">
        <ele>46</ele>
        <time>2023-11-02T00:13:40Z</time>
      </trkpt>
      <trkpt lat="47.34018" lon="-2.45114">
        <ele>46</ele>
        <time>2023-11-02T00:14:31Z</time>
      </trkpt>
      <trkpt lat="47.34028" lon="-2.4514">
        <ele>46</ele>
        <time>2023-11-02T00:14:58Z</time>
      </trkpt>
      <trkpt lat="47.34057" lon="-2.45247">
        <ele>47</ele>
        <time>2023-11-02T00:16:42Z</time>
      </trkpt>
      <trkpt lat="47.34076" lon="-2.4525">
        <ele>47</ele>
        <time>2023-11-02T00:17:08Z</time>
      </trkpt>
      <trkpt lat="47.34144" lon="-2.45202">
        <ele>46</ele>
        <time>2023-11-02T00:18:48Z</time>
      </trkpt>
      <trkpt lat="47.34179" lon="-2.45173">
        <ele>46</ele>
        <time>2023-11-02T00:19:42Z</time>
      </trkpt>
      <trkpt lat="47.34251" lon="-2.4512">
        <ele>45</ele>
        <time>2023-11-02T00:21:29Z</time>
      </trkpt>
      <trkpt lat="47.34269" lon="-2.45109">
        <ele>45</ele>
        <time>2023-11-02T00:21:55Z</time>
      </trkpt>
      <trkpt lat="47.34321" lon="-2.45066">
        <ele>46</ele>
        <time>2023-11-02T00:23:15Z</time>
      </trkpt>
      <trkpt lat="47.34382" lon="-2.44992">
        <ele>47</ele>
        <time>2023-11-02T00:25:00Z</time>
      </trkpt>
      <trkpt lat="47.34401" lon="-2.44987">
        <ele>46</ele>
        <time>2023-11-02T00:25:26Z</time>
      </trkpt>
      <trkpt lat="47.34433" lon="-2.4506">
        <ele>45</ele>
        <time>2023-11-02T00:26:44Z</time>
      </trkpt>
      <trkpt lat="47.3447" lon="-2.45132">
        <ele>43</ele>
        <time>2023-11-02T00:28:06Z</time>
      </trkpt>
      <trkpt lat="47.34514" lon="-2.45184">
        <ele>42</ele>
        <time>2023-11-02T00:29:21Z</time>
      </trkpt>
      <trkpt lat="47.34541" lon="-2.45227">
        <ele>42</ele>
        <time>2023-11-02T00:30:14Z</time>
      </trkpt>
      <trkpt lat="47.3457" lon="-2.45266">
        <ele>43</ele>
        <time>2023-11-02T00:31:07Z</time>
      </trkpt>
      <trkpt lat="47.34595" lon="-2.45309">
        <ele>43</ele>
        <time>2023-11-02T00:31:58Z</time>
      </trkpt>
      <trkpt lat="47.34633" lon="-2.45414">
        <ele>41</ele>
        <time>2023-11-02T00:33:46Z</time>
      </trkpt>
      <trkpt lat="47.34643" lon="-2.45436">
        <ele>42</ele>
        <time>2023-11-02T00:34:10Z</time>
      </trkpt>
      <trkpt lat="47.34681" lon="-2.45545">
        <ele>43</ele>
        <time>2023-11-02T00:36:00Z</time>
      </trkpt>
      <trkpt lat="47.34701" lon="-2.45594">
        <ele>44</ele>
        <time>2023-11-02T00:36:52Z</time>
      </trkpt>
      <trkpt lat="47.34747" lon="-2.45689">
        <ele>43</ele>
        <time>2023-11-02T00:38:38Z</time>
      </trkpt>
      <trkpt lat="47.34757" lon="-2.45715">
        <ele>43</ele>
        <time>2023-11-02T00:39:05Z</time>
      </trkpt>
      <trkpt lat="47.3478" lon="-2.45797">
        <ele>42</ele>
        <time>2023-11-02T00:40:25Z</time>
      </trkpt>
      <trkpt lat="47.34784" lon="-2.45859">
        <ele>42</ele>
        <time>2023-11-02T00:41:21Z</time>
      </trkpt>
      <trkpt lat="47.3479" lon="-2.45884">
        <ele>41</ele>
        <time>2023-11-02T00:41:45Z</time>
      </trkpt>
      <trkpt lat="47.34795" lon="-2.45942">
        <ele>39</ele>
        <time>2023-11-02T00:42:38Z</time>
      </trkpt>
      <trkpt lat="47.34817" lon="-2.46085">
        <ele>36</ele>
        <time>2023-11-02T00:44:51Z</time>
      </trkpt>
      <trkpt lat="47.34816" lon="-2.46146">
        <ele>37</ele>
        <time>2023-11-02T00:45:46Z</time>
      </trkpt>
      <trkpt lat="47.34822" lon="-2.46232">
        <ele>38</ele>
        <time>2023-11-02T00:47:04Z</time>
      </trkpt>
      <trkpt lat="47.34815" lon="-2.46261">
        <ele>38</ele>
        <time>2023-11-02T00:47:32Z</time>
      </trkpt>
      <trkpt lat="47.34734" lon="-2.46276">
        <ele>37</ele>
        <time>2023-11-02T00:49:21Z</time>
      </trkpt>
      <trkpt lat="47.34596" lon="-2.46329">
        <ele>39</ele>
        <time>2023-11-02T00:52:31Z</time>
      </trkpt>
      <trkpt lat="47.34578" lon="-2.4634">
        <ele>39</ele>
        <time>2023-11-02T00:52:57Z</time>
      </trkpt>
      <trkpt lat="47.34528" lon="-2.46389">
        <ele>41</ele>
        <time>2023-11-02T00:54:17Z</time>
      </trkpt>
      <trkpt lat="47.34469" lon="-2.46416">
        <ele>42</ele>
        <time>2023-11-02T00:55:40Z</time>
      </trkpt>
      <trkpt lat="47.3445" lon="-2.46427">
        <ele>42</ele>
        <time>2023-11-02T00:56:07Z</time>
      </trkpt>
      <trkpt lat="47.34431" lon="-2.46432">
        <ele>41</ele>
        <time>2023-11-02T00:56:33Z</time>
      </trkpt>
      <trkpt lat="47.34371" lon="-2.46463">
        <ele>42</ele>
        <time>2023-11-02T00:57:57Z</time>
      </trkpt>
      <trkpt lat="47.34333" lon="-2.46475">
        <ele>42</ele>
        <time>2023-11-02T00:58:49Z</time>
      </trkpt>
      <trkpt lat="47.34294" lon="-2.46484">
        <ele>42</ele>
        <time>2023-11-02T00:59:42Z</time>
      </trkpt>
      <trkpt lat="47.34135" lon="-2.46493">
        <ele>42</ele>
        <time>2023-11-02T01:03:14Z</time>
      </trkpt>
      <trkpt lat="47.34097" lon="-2.46491">
        <ele>43</ele>
        <time>2023-11-02T01:04:05Z</time>
      </trkpt>
      <trkpt lat="47.34078" lon="-2.46495">
        <ele>43</ele>
        <time>2023-11-02T01:04:31Z</time>
      </trkpt>
      <trkpt lat="47.34061" lon="-2.46502">
        <ele>43</ele>
        <time>2023-11-02T01:04:54Z</time>
      </trkpt>
      <trkpt lat="47.3402" lon="-2.46529">
        <ele>44</ele>
        <time>2023-11-02T01:05:54Z</time>
      </trkpt>
      <trkpt lat="47.33983" lon="-2.46559">
        <ele>44</ele>
        <time>2023-11-02T01:06:50Z</time>
      </trkpt>
      <trkpt lat="47.33964" lon="-2.46569">
        <ele>44</ele>
        <time>2023-11-02T01:07:17Z</time>
      </trkpt>
      <trkpt lat="47.33947" lon="-2.46582">
        <ele>45</ele>
        <time>2023-11-02T01:07:43Z</time>
      </trkpt>
      <trkpt lat="47.33914" lon="-2.46614">
        <ele>45</ele>
        <time>2023-11-02T01:08:36Z</time>
      </trkpt>
      <trkpt lat="47.33882" lon="-2.4665">
        <ele>45</ele>
        <time>2023-11-02T01:09:29Z</time>
      </trkpt>
      <trkpt lat="47.33864" lon="-2.46665">
        <ele>45</ele>
        <time>2023-11-02T01:09:57Z</time>
      </trkpt>
      <trkpt lat="47.33809" lon="-2.46698">
        <ele>44</ele>
        <time>2023-11-02T01:11:16Z</time>
      </trkpt>
      <trkpt lat="47.3379" lon="-2.46703">
        <ele>44</ele>
        <time>2023-11-02T01:11:42Z</time>
      </trkpt>
      <trkpt lat="47.3377" lon="-2.46703">
        <ele>44</ele>
        <time>2023-11-02T01:12:09Z</time>
      </trkpt>
      <trkpt lat="47.33752" lon="-2.46694">
        <ele>45</ele>
        <time>2023-11-02T01:12:34Z</time>
      </trkpt>
      <trkpt lat="47.3373" lon="-2.46691">
        <ele>44</ele>
        <time>2023-11-02T01:13:03Z</time>
      </trkpt>
      <trkpt lat="47.33712" lon="-2.4668">
        <ele>44</ele>
        <time>2023-11-02T01:13:29Z</time>
      </trkpt>
      <trkpt lat="47.33702" lon="-2.46704">
        <ele>43</ele>
        <time>2023-11-02T01:13:55Z</time>
      </trkpt>
      <trkpt lat="47.33684" lon="-2.46716">
        <ele>43</ele>
        <time>2023-11-02T01:14:21Z</time>
      </trkpt>
      <trkpt lat="47.33664" lon="-2.46719">
        <ele>42</ele>
        <time>2023-11-02T01:14:48Z</time>
      </trkpt>
      <trkpt lat="47.33648" lon="-2.46732">
        <ele>41</ele>
        <time>2023-11-02T01:15:12Z</time>
      </trkpt>
      <trkpt lat="47.33629" lon="-2.46743">
        <ele>39</ele>
        <time>2023-11-02T01:15:40Z</time>
      </trkpt>
      <trkpt lat="47.33631" lon="-2.46772">
        <ele>38</ele>
        <time>2023-11-02T01:16:06Z</time>
      </trkpt>
      <trkpt lat="47.33645" lon="-2.46793">
        <ele>39</ele>
        <time>2023-11-02T01:16:33Z</time>
      </trkpt>
      <trkpt lat="47.33661" lon="-2.46815">
        <ele>39</ele>
        <time>2023-11-02T01:17:02Z</time>
      </trkpt>
      <trkpt lat="47.33682" lon="-2.46817">
        <ele>40</ele>
        <time>2023-11-02T01:17:30Z</time>
      </trkpt>
      <trkpt lat="47.33743" lon="-2.46903">
        <ele>40</ele>
        <time>2023-11-02T01:19:23Z</time>
      </trkpt>
      <trkpt lat="47.3375" lon="-2.46931">
        <ele>39</ele>
        <time>2023-11-02T01:19:50Z</time>
      </trkpt>
      <trkpt lat="47.33748" lon="-2.4696">
        <ele>38</ele>
        <time>2023-11-02T01:20:16Z</time>
      </trkpt>
      <trkpt lat="47.33753" lon="-2.47052">
        <ele>35</ele>
        <time>2023-11-02T01:21:39Z</time>
      </trkpt>
      <trkpt lat="47.33776" lon="-2.4717">
        <ele>34</ele>
        <time>2023-11-02T01:23:30Z</time>
      </trkpt>
      <trkpt lat="47.33779" lon="-2.47199">
        <ele>34</ele>
        <time>2023-11-02T01:23:57Z</time>
      </trkpt>
      <trkpt lat="47.33784" lon="-2.47293">
        <ele>32</ele>
        <time>2023-11-02T01:25:22Z</time>
      </trkpt>
      <trkpt lat="47.33783" lon="-2.47325">
        <ele>31</ele>
        <time>2023-11-02T01:25:51Z</time>
      </trkpt>
      <trkpt lat="47.33779" lon="-2.47383">
        <ele>29</ele>
        <time>2023-11-02T01:26:44Z</time>
      </trkpt>
      <trkpt lat="47.33768" lon="-2.4747">
        <ele>27</ele>
        <time>2023-11-02T01:28:04Z</time>
      </trkpt>
      <trkpt lat="47.33753" lon="-2.47526">
        <ele>25</ele>
        <time>2023-11-02T01:28:58Z</time>
      </trkpt>
      <trkpt lat="47.33741" lon="-2.47583">
        <ele>24</ele>
        <time>2023-11-02T01:29:52Z</time>
      </trkpt>
      <trkpt lat="47.33738" lon="-2.4761">
        <ele>23</ele>
        <time>2023-11-02T01:30:17Z</time>
      </trkpt>
      <trkpt lat="47.33722" lon="-2.47624">
        <ele>22</ele>
        <time>2023-11-02T01:30:42Z</time>
      </trkpt>
      <trkpt lat="47.33702" lon="-2.4762">
        <ele>22</ele>
        <time>2023-11-02T01:31:09Z</time>
      </trkpt>
      <trkpt lat="47.3368" lon="-2.47624">
        <ele>22</ele>
        <time>2023-11-02T01:31:38Z</time>
      </trkpt>
      <trkpt lat="47.33628" lon="-2.47661">
        <ele>21</ele>
        <time>2023-11-02T01:32:55Z</time>
      </trkpt>
      <trkpt lat="47.33592" lon="-2.47693">
        <ele>21</ele>
        <time>2023-11-02T01:33:52Z</time>
      </trkpt>
      <trkpt lat="47.33574" lon="-2.47699">
        <ele>21</ele>
        <time>2023-11-02T01:34:16Z</time>
      </trkpt>
      <trkpt lat="47.33534" lon="-2.47676">
        <ele>20</ele>
        <time>2023-11-02T01:35:13Z</time>
      </trkpt>
      <trkpt lat="47.33519" lon="-2.47659">
        <ele>20</ele>
        <time>2023-11-02T01:35:39Z</time>
      </trkpt>
      <trkpt lat="47.33498" lon="-2.47615">
        <ele>22</ele>
        <time>2023-11-02T01:36:27Z</time>
      </trkpt>
      <trkpt lat="47.3348" lon="-2.476">
        <ele>21</ele>
        <time>2023-11-02T01:36:55Z</time>
      </trkpt>
      <trkpt lat="47.33467" lon="-2.4758">
        <ele>21</ele>
        <time>2023-11-02T01:37:20Z</time>
      </trkpt>
      <trkpt lat="47.33435" lon="-2.47514">
        <ele>20</ele>
        <time>2023-11-02T01:38:33Z</time>
      </trkpt>
      <trkpt lat="47.33426" lon="-2.4748">
        <ele>20</ele>
        <time>2023-11-02T01:39:06Z</time>
      </trkpt>
      <trkpt lat="47.33415" lon="-2.4745">
        <ele>20</ele>
        <time>2023-11-02T01:39:37Z</time>
      </trkpt>
      <trkpt lat="47.33412" lon="-2.47422">
        <ele>21</ele>
        <time>2023-11-02T01:40:03Z</time>
      </trkpt>
      <trkpt lat="47.33385" lon="-2.47307">
        <ele>21</ele>
        <time>2023-11-02T01:41:53Z</time>
      </trkpt>
      <trkpt lat="47.3338" lon="-2.47252">
        <ele>20</ele>
        <time>2023-11-02T01:42:43Z</time>
      </trkpt>
      <trkpt lat="47.33367" lon="-2.47172">
        <ele>19</ele>
        <time>2023-11-02T01:43:58Z</time>
      </trkpt>
      <trkpt lat="47.33365" lon="-2.47145">
        <ele>19</ele>
        <time>2023-11-02T01:44:22Z</time>
      </trkpt>
      <trkpt lat="47.33349" lon="-2.47084">
        <ele>17</ele>
        <time>2023-11-02T01:45:21Z</time>
      </trkpt>
      <trkpt lat="47.33331" lon="-2.46971">
        <ele>17</ele>
        <time>2023-11-02T01:47:06Z</time>
      </trkpt>
      <trkpt lat="47.33317" lon="-2.46921">
        <ele>20</ele>
        <time>2023-11-02T01:47:55Z</time>
      </trkpt>
      <trkpt lat="47.33306" lon="-2.46867">
        <ele>22</ele>
        <time>2023-11-02T01:48:46Z</time>
      </trkpt>
      <trkpt lat="47.33286" lon="-2.46815">
        <ele>24</ele>
        <time>2023-11-02T01:49:40Z</time>
      </trkpt>
      <trkpt lat="47.33273" lon="-2.46789">
        <ele>24</ele>
        <time>2023-11-02T01:50:10Z</time>
      </trkpt>
      <trkpt lat="47.33254" lon="-2.46784">
        <ele>23</ele>
        <time>2023-11-02T01:50:35Z</time>
      </trkpt>
      <trkpt lat="47.33232" lon="-2.46793">
        <ele>22</ele>
        <time>2023-11-02T01:51:06Z</time>
      </trkpt>
      <trkpt lat="47.3321" lon="-2.46787">
        <ele>21</ele>
        <time>2023-11-02T01:51:36Z</time>
      </trkpt>
      <trkpt lat="47.33174" lon="-2.4675">
        <ele>20</ele>
        <time>2023-11-02T01:52:34Z</time>
      </trkpt>
      <trkpt lat="47.33145" lon="-2.46708">
        <ele>19</ele>
        <time>2023-11-02T01:53:28Z</time>
      </trkpt>
      <trkpt lat="47.33137" lon="-2.46684">
        <ele>19</ele>
        <time>2023-11-02T01:53:53Z</time>
      </trkpt>
      <trkpt lat="47.33123" lon="-2.46666">
        <ele>19</ele>
        <time>2023-11-02T01:54:17Z</time>
      </trkpt>
      <trkpt lat="47.33098" lon="-2.46622">
        <ele>18</ele>
        <time>2023-11-02T01:55:09Z</time>
      </trkpt>
      <trkpt lat="47.33082" lon="-2.46562">
        <ele>18</ele>
        <time>2023-11-02T01:56:08Z</time>
      </trkpt>
      <trkpt lat="47.33077" lon="-2.46533">
        <ele>18</ele>
        <time>2023-11-02T01:56:35Z</time>
      </trkpt>
      <trkpt lat="47.33013" lon="-2.46546">
        <ele>12</ele>
        <time>2023-11-02T01:58:01Z</time>
      </trkpt>
      <trkpt lat="47.32994" lon="-2.46556">
        <ele>11</ele>
        <time>2023-11-02T01:58:28Z</time>
      </trkpt>
      <trkpt lat="47.32974" lon="-2.46563">
        <ele>10</ele>
        <time>2023-11-02T01:58:55Z</time>
      </trkpt>
      <trkpt lat="47.3296" lon="-2.46543">
        <ele>10</ele>
        <time>2023-11-02T01:59:21Z</time>
      </trkpt>
      <trkpt lat="47.32963" lon="-2.4648">
        <ele>11</ele>
        <time>2023-11-02T02:00:18Z</time>
      </trkpt>
      <trkpt lat="47.32962" lon="-2.46448">
        <ele>13</ele>
        <time>2023-11-02T02:00:47Z</time>
      </trkpt>
      <trkpt lat="47.32966" lon="-2.46386">
        <ele>17</ele>
        <time>2023-11-02T02:01:44Z</time>
      </trkpt>
      <trkpt lat="47.32953" lon="-2.46324">
        <ele>21</ele>
        <time>2023-11-02T02:02:42Z</time>
      </trkpt>
      <trkpt lat="47.32929" lon="-2.46235">
        <ele>23</ele>
        <time>2023-11-02T02:04:09Z</time>
      </trkpt>
      <trkpt lat="47.32902" lon="-2.46158">
        <ele>24</ele>
        <time>2023-11-02T02:05:27Z</time>
      </trkpt>
      <trkpt lat="47.32883" lon="-2.46156">
        <ele>23</ele>
        <time>2023-11-02T02:05:53Z</time>
      </trkpt>
      <trkpt lat="47.32825" lon="-2.4619">
        <ele>18</ele>
        <time>2023-11-02T02:07:16Z</time>
      </trkpt>
      <trkpt lat="47.32807" lon="-2.46194">
        <ele>16</ele>
        <time>2023-11-02T02:07:40Z</time>
      </trkpt>
      <trkpt lat="47.32787" lon="-2.46179">
        <ele>15</ele>
        <time>2023-11-02T02:08:10Z</time>
      </trkpt>
      <trkpt lat="47.32762" lon="-2.46134">
        <ele>14</ele>
        <time>2023-11-02T02:09:03Z</time>
      </trkpt>
      <trkpt lat="47.32758" lon="-2.46107">
        <ele>14</ele>
        <time>2023-11-02T02:09:28Z</time>
      </trkpt>
      <trkpt lat="47.32742" lon="-2.46084">
        <ele>13</ele>
        <time>2023-11-02T02:09:58Z</time>
      </trkpt>
      <trkpt lat="47.32696" lon="-2.46031">
        <ele>10</ele>
        <time>2023-11-02T02:11:16Z</time>
      </trkpt>
      <trkpt lat="47.32667" lon="-2.4599">
        <ele>9</ele>
        <time>2023-11-02T02:12:09Z</time>
      </trkpt>
      <trkpt lat="47.3265" lon="-2.4597">
        <ele>9</ele>
        <time>2023-11-02T02:12:38Z</time>
      </trkpt>
      <trkpt lat="47.32633" lon="-2.45957">
        <ele>9</ele>
        <time>2023-11-02T02:13:04Z</time>
      </trkpt>
      <trkpt lat="47.32606" lon="-2.45911">
        <ele>10</ele>
        <time>2023-11-02T02:13:59Z</time>
      </trkpt>
      <trkpt lat="47.32577" lon="-2.45875">
        <ele>9</ele>
        <time>2023-11-02T02:14:49Z</time>
      </trkpt>
      <trkpt lat="47.32528" lon="-2.45791">
        <ele>8</ele>
        <time>2023-11-02T02:16:30Z</time>
      </trkpt>
      <trkpt lat="47.32513" lon="-2.45775">
        <ele>8</ele>
        <time>2023-11-02T02:16:54Z</time>
      </trkpt>
      <trkpt lat="47.32499" lon="-2.45752">
        <ele>8</ele>
        <time>2023-11-02T02:17:22Z</time>
      </trkpt>
      <trkpt lat="47.32488" lon="-2.45727">
        <ele>8</ele>
        <time>2023-11-02T02:17:49Z</time>
      </trkpt>
      <trkpt lat="47.32435" lon="-2.45639">
        <ele>9</ele>
        <time>2023-11-02T02:19:36Z</time>
      </trkpt>
      <trkpt lat="47.32413" lon="-2.4559">
        <ele>10</ele>
        <time>2023-11-02T02:20:29Z</time>
      </trkpt>
      <trkpt lat="47.32399" lon="-2.45573">
        <ele>10</ele>
        <time>2023-11-02T02:20:53Z</time>
      </trkpt>
      <trkpt lat="47.32378" lon="-2.45527">
        <ele>10</ele>
        <time>2023-11-02T02:21:43Z</time>
      </trkpt>
      <trkpt lat="47.32364" lon="-2.45509">
        <ele>10</ele>
        <time>2023-11-02T02:22:08Z</time>
      </trkpt>
      <trkpt lat="47.32327" lon="-2.45446">
        <ele>10</ele>
        <time>2023-11-02T02:23:24Z</time>
      </trkpt>
      <trkpt lat="47.32318" lon="-2.4542">
        <ele>10</ele>
        <time>2023-11-02T02:23:50Z</time>
      </trkpt>
      <trkpt lat="47.3232" lon="-2.45391">
        <ele>11</ele>
        <time>2023-11-02T02:24:16Z</time>
      </trkpt>
      <trkpt lat="47.32314" lon="-2.45364">
        <ele>11</ele>
        <time>2023-11-02T02:24:42Z</time>
      </trkpt>
      <trkpt lat="47.32313" lon="-2.45304">
        <ele>12</ele>
        <time>2023-11-02T02:25:36Z</time>
      </trkpt>
      <trkpt lat="47.32298" lon="-2.45252">
        <ele>12</ele>
        <time>2023-11-02T02:26:27Z</time>
      </trkpt>
      <trkpt lat="47.32275" lon="-2.45202">
        <ele>12</ele>
        <time>2023-11-02T02:27:22Z</time>
      </trkpt>
      <trkpt lat="47.32265" lon="-2.45174">
        <ele>12</ele>
        <time>2023-11-02T02:27:51Z</time>
      </trkpt>
      <trkpt lat="47.32261" lon="-2.45146">
        <ele>13</ele>
        <time>2023-11-02T02:28:17Z</time>
      </trkpt>
      <trkpt lat="47.32235" lon="-2.45075">
        <ele>14</ele>
        <time>2023-11-02T02:29:30Z</time>
      </trkpt>
      <trkpt lat="47.32199" lon="-2.45004">
        <ele>15</ele>
        <time>2023-11-02T02:30:50Z</time>
      </trkpt>
      <trkpt lat="47.32186" lon="-2.44984">
        <ele>14</ele>
        <time>2023-11-02T02:31:15Z</time>
      </trkpt>
      <trkpt lat="47.32172" lon="-2.44966">
        <ele>13</ele>
        <time>2023-11-02T02:31:40Z</time>
      </trkpt>
      <trkpt lat="47.32139" lon="-2.44936">
        <ele>12</ele>
        <time>2023-11-02T02:32:31Z</time>
      </trkpt>
      <trkpt lat="47.32124" lon="-2.44919">
        <ele>11</ele>
        <time>2023-11-02T02:32:57Z</time>
      </trkpt>
      <trkpt lat="47.32082" lon="-2.44821">
        <ele>11</ele>
        <time>2023-11-02T02:34:41Z</time>
      </trkpt>
      <trkpt lat="47.32073" lon="-2.44791">
        <ele>11</ele>
        <time>2023-11-02T02:35:11Z</time>
      </trkpt>
      <trkpt lat="47.32046" lon="-2.4475">
        <ele>10</ele>
        <time>2023-11-02T02:36:03Z</time>
      </trkpt>
      <trkpt lat="47.32032" lon="-2.44723">
        <ele>10</ele>
        <time>2023-11-02T02:36:34Z</time>
      </trkpt>
      <trkpt lat="47.32003" lon="-2.44686">
        <ele>8</ele>
        <time>2023-11-02T02:37:25Z</time>
      </trkpt>
      <trkpt lat="47.3199" lon="-2.44665">
        <ele>8</ele>
        <time>2023-11-02T02:37:51Z</time>
      </trkpt>
      <trkpt lat="47.31912" lon="-2.44575">
        <ele>7</ele>
        <time>2023-11-02T02:40:03Z</time>
      </trkpt>
      <trkpt lat="47.31902" lon="-2.4455">
        <ele>6</ele>
        <time>2023-11-02T02:40:29Z</time>
      </trkpt>
      <trkpt lat="47.31962" lon="-2.44405">
        <ele>7</ele>
        <time>2023-11-02T02:43:03Z</time>
      </trkpt>
      <trkpt lat="47.31971" lon="-2.44377">
        <ele>7</ele>
        <time>2023-11-02T02:43:31Z</time>
      </trkpt>
      <trkpt lat="47.32013" lon="-2.44318">
        <ele>11</ele>
        <time>2023-11-02T02:44:48Z</time>
      </trkpt>
      <trkpt lat="47.32053" lon="-2.44254">
        <ele>15</ele>
        <time>2023-11-02T02:46:07Z</time>
      </trkpt>
      <trkpt lat="47.32124" lon="-2.44157">
        <ele>21</ele>
        <time>2023-11-02T02:48:16Z</time>
      </trkpt>
      <trkpt lat="47.32172" lon="-2.44101">
        <ele>26</ele>
        <time>2023-11-02T02:49:38Z</time>
      </trkpt>
      <trkpt lat="47.32203" lon="-2.44069">
        <ele>28</ele>
        <time>2023-11-02T02:50:28Z</time>
      </trkpt>
      <trkpt lat="47.32219" lon="-2.44056">
        <ele>29</ele>
        <time>2023-11-02T02:50:52Z</time>
      </trkpt>
      <trkpt lat="47.3221" lon="-2.44033">
        <ele>29</ele>
        <time>2023-11-02T02:51:16Z</time>
      </trkpt>
      <trkpt lat="47.3223" lon="-2.44044">
        <ele>30</ele>
        <time>2023-11-02T02:51:45Z</time>
      </trkpt>
      <trkpt lat="47.3225" lon="-2.44036">
        <ele>31</ele>
        <time>2023-11-02T02:52:13Z</time>
      </trkpt>
      <trkpt lat="47.32299" lon="-2.43989">
        <ele>34</ele>
        <time>2023-11-02T02:53:31Z</time>
      </trkpt>
      <trkpt lat="47.32311" lon="-2.43968">
        <ele>34</ele>
        <time>2023-11-02T02:53:55Z</time>
      </trkpt>
      <trkpt lat="47.32342" lon="-2.43827">
        <ele>35</ele>
        <time>2023-11-02T02:56:10Z</time>
      </trkpt>
      <trkpt lat="47.32368" lon="-2.43751">
        <ele>37</ele>
        <time>2023-11-02T02:57:27Z</time>
      </trkpt>
      <trkpt lat="47.3238" lon="-2.43697">
        <ele>38</ele>
        <time>2023-11-02T02:58:18Z</time>
      </trkpt>
      <trkpt lat="47.32386" lon="-2.43636">
        <ele>39</ele>
        <time>2023-11-02T02:59:14Z</time>
      </trkpt>
      <trkpt lat="47.324" lon="-2.4358">
        <ele>40</ele>
        <time>2023-11-02T03:00:08Z</time>
      </trkpt>
      <trkpt lat="47.3242" lon="-2.43532">
        <ele>39</ele>
        <time>2023-11-02T03:00:59Z</time>
      </trkpt>
      <trkpt lat="47.32433" lon="-2.43514">
        <ele>39</ele>
        <time>2023-11-02T03:01:22Z</time>
      </trkpt>
      <trkpt lat="47.32482" lon="-2.43469">
        <ele>40</ele>
        <time>2023-11-02T03:02:39Z</time>
      </trkpt>
      <trkpt lat="47.32497" lon="-2.43451">
        <ele>41</ele>
        <time>2023-11-02T03:03:05Z</time>
      </trkpt>
      <trkpt lat="47.32483" lon="-2.43394">
        <ele>39</ele>
        <time>2023-11-02T03:04:00Z</time>
      </trkpt>
      <trkpt lat="47.32455" lon="-2.43355">
        <ele>39</ele>
        <time>2023-11-02T03:04:52Z</time>
      </trkpt>
      <trkpt lat="47.32469" lon="-2.43377">
        <ele>39</ele>
        <time>2023-11-02T03:05:19Z</time>
      </trkpt>
      <trkpt lat="47.32487" lon="-2.43398">
        <ele>40</ele>
        <time>2023-11-02T03:05:49Z</time>
      </trkpt>
      <trkpt lat="47.32507" lon="-2.43404">
        <ele>40</ele>
        <time>2023-11-02T03:06:17Z</time>
      </trkpt>
      <trkpt lat="47.32526" lon="-2.43403">
        <ele>40</ele>
        <time>2023-11-02T03:06:42Z</time>
      </trkpt>
      <trkpt lat="47.32534" lon="-2.43377">
        <ele>41</ele>
        <time>2023-11-02T03:07:08Z</time>
      </trkpt>
      <trkpt lat="47.32544" lon="-2.43313">
        <ele>42</ele>
        <time>2023-11-02T03:08:07Z</time>
      </trkpt>
      <trkpt lat="47.32556" lon="-2.43259">
        <ele>44</ele>
        <time>2023-11-02T03:08:59Z</time>
      </trkpt>
      <trkpt lat="47.32569" lon="-2.43236">
        <ele>45</ele>
        <time>2023-11-02T03:09:26Z</time>
      </trkpt>
      <trkpt lat="47.32583" lon="-2.43218">
        <ele>46</ele>
        <time>2023-11-02T03:09:51Z</time>
      </trkpt>
      <trkpt lat="47.3262" lon="-2.43198">
        <ele>47</ele>
        <time>2023-11-02T03:10:43Z</time>
      </trkpt>
      <trkpt lat="47.32637" lon="-2.43183">
        <ele>48</ele>
        <time>2023-11-02T03:11:10Z</time>
      </trkpt>
      <trkpt lat="47.32614" lon="-2.43095">
        <ele>49</ele>
        <time>2023-11-02T03:12:35Z</time>
      </trkpt>
      <trkpt lat="47.32623" lon="-2.43068">
        <ele>50</ele>
        <time>2023-11-02T03:13:02Z</time>
      </trkpt>
      <trkpt lat="47.3262" lon="-2.43039">
        <ele>50</ele>
        <time>2023-11-02T03:13:29Z</time>
      </trkpt>
      <trkpt lat="47.32625" lon="-2.4301">
        <ele>51</ele>
        <time>2023-11-02T03:13:56Z</time>
      </trkpt>
      <trkpt lat="47.32629" lon="-2.42926">
        <ele>51</ele>
        <time>2023-11-02T03:15:12Z</time>
      </trkpt>
      <trkpt lat="47.32641" lon="-2.42859">
        <ele>51</ele>
        <time>2023-11-02T03:16:15Z</time>
      </trkpt>
      <trkpt lat="47.32655" lon="-2.42802">
        <ele>50</ele>
        <time>2023-11-02T03:17:09Z</time>
      </trkpt>
      <trkpt lat="47.3268" lon="-2.4275">
        <ele>50</ele>
        <time>2023-11-02T03:18:07Z</time>
      </trkpt>
      <trkpt lat="47.32696" lon="-2.42724">
        <ele>50</ele>
        <time>2023-11-02T03:18:39Z</time>
      </trkpt>
      <trkpt lat="47.32709" lon="-2.42706">
        <ele>50</ele>
        <time>2023-11-02T03:19:03Z</time>
      </trkpt>
      <trkpt lat="47.32728" lon="-2.42693">
        <ele>50</ele>
        <time>2023-11-02T03:19:31Z</time>
      </trkpt>
      <trkpt lat="47.32747" lon="-2.42692">
        <ele>51</ele>
        <time>2023-11-02T03:19:56Z</time>
      </trkpt>
      <trkpt lat="47.32765" lon="-2.42699">
        <ele>51</ele>
        <time>2023-11-02T03:20:21Z</time>
      </trkpt>
      <trkpt lat="47.32834" lon="-2.42709">
        <ele>53</ele>
        <time>2023-11-02T03:21:53Z</time>
      </trkpt>
      <trkpt lat="47.32853" lon="-2.42714">
        <ele>53</ele>
        <time>2023-11-02T03:22:19Z</time>
      </trkpt>
      <trkpt lat="47.32872" lon="-2.42701">
        <ele>52</ele>
        <time>2023-11-02T03:22:47Z</time>
      </trkpt>
      <trkpt lat="47.32884" lon="-2.42643">
        <ele>51</ele>
        <time>2023-11-02T03:23:42Z</time>
      </trkpt>
      <trkpt lat="47.32896" lon="-2.42615">
        <ele>50</ele>
        <time>2023-11-02T03:24:12Z</time>
      </trkpt>
      <trkpt lat="47.32915" lon="-2.42618">
        <ele>50</ele>
        <time>2023-11-02T03:24:37Z</time>
      </trkpt>
      <trkpt lat="47.32953" lon="-2.42649">
        <ele>50</ele>
        <time>2023-11-02T03:25:35Z</time>
      </trkpt>
      <trkpt lat="47.32984" lon="-2.42688">
        <ele>50</ele>
        <time>2023-11-02T03:26:30Z</time>
      </trkpt>
      <trkpt lat="47.33005" lon="-2.42679">
        <ele>49</ele>
        <time>2023-11-02T03:26:59Z</time>
      </trkpt>
      <trkpt lat="47.33023" lon="-2.42667">
        <ele>49</ele>
        <time>2023-11-02T03:27:25Z</time>
      </trkpt>
      <trkpt lat="47.33041" lon="-2.42664">
        <ele>48</ele>
        <time>2023-11-02T03:27:49Z</time>
      </trkpt>
      <trkpt lat="47.33076" lon="-2.42635">
        <ele>48</ele>
        <time>2023-11-02T03:28:43Z</time>
      </trkpt>
      <trkpt lat="47.33123" lon="-2.42575">
        <ele>46</ele>
        <time>2023-11-02T03:30:06Z</time>
      </trkpt>
      <trkpt lat="47.33143" lon="-2.42554">
        <ele>46</ele>
        <time>2023-11-02T03:30:39Z</time>
      </trkpt>
    </trkseg>
  </trk>
  <trk>
    <name><![CDATA[Guérande_Coteaux_13.3km-8655485]]></name>
    <extensions>
      <line xmlns="http://www.topografix.com/GPX/gpx_style/0/2">
        <color>00FFFF</color>
        <opacity>0.85</opacity>
        <width>4</width>
      </line>
    </extensions>
    <trkseg>
      <trkpt lat="47.32856" lon="-2.43289">
        <ele>47</ele>
        <time>2023-11-01T20:06:26Z</time>
      </trkpt>
      <trkpt lat="47.32859" lon="-2.43321">
        <ele>46</ele>
        <time>2023-11-01T20:06:55Z</time>
      </trkpt>
      <trkpt lat="47.32866" lon="-2.43422">
        <ele>45</ele>
        <time>2023-11-01T20:08:27Z</time>
      </trkpt>
      <trkpt lat="47.32874" lon="-2.43528">
        <ele>46</ele>
        <time>2023-11-01T20:10:04Z</time>
      </trkpt>
      <trkpt lat="47.32897" lon="-2.43688">
        <ele>48</ele>
        <time>2023-11-01T20:12:31Z</time>
      </trkpt>
      <trkpt lat="47.32903" lon="-2.43718">
        <ele>47</ele>
        <time>2023-11-01T20:13:00Z</time>
      </trkpt>
      <trkpt lat="47.32905" lon="-2.43728">
        <ele>47</ele>
        <time>2023-11-01T20:13:09Z</time>
      </trkpt>
      <trkpt lat="47.32913" lon="-2.43742">
        <ele>47</ele>
        <time>2023-11-01T20:13:26Z</time>
      </trkpt>
      <trkpt lat="47.32917" lon="-2.43746">
        <ele>47</ele>
        <time>2023-11-01T20:13:32Z</time>
      </trkpt>
      <trkpt lat="47.32906" lon="-2.43771">
        <ele>47</ele>
        <time>2023-11-01T20:13:59Z</time>
      </trkpt>
      <trkpt lat="47.32923" lon="-2.43847">
        <ele>46</ele>
        <time>2023-11-01T20:15:12Z</time>
      </trkpt>
      <trkpt lat="47.32935" lon="-2.43902">
        <ele>47</ele>
        <time>2023-11-01T20:16:04Z</time>
      </trkpt>
      <trkpt lat="47.32937" lon="-2.43929">
        <ele>47</ele>
        <time>2023-11-01T20:16:28Z</time>
      </trkpt>
      <trkpt lat="47.32896" lon="-2.43955">
        <ele>47</ele>
        <time>2023-11-01T20:17:28Z</time>
      </trkpt>
      <trkpt lat="47.32855" lon="-2.43973">
        <ele>46</ele>
        <time>2023-11-01T20:18:25Z</time>
      </trkpt>
      <trkpt lat="47.32829" lon="-2.43983">
        <ele>46</ele>
        <time>2023-11-01T20:19:01Z</time>
      </trkpt>
      <trkpt lat="47.328" lon="-2.44139">
        <ele>44</ele>
        <time>2023-11-01T20:21:27Z</time>
      </trkpt>
      <trkpt lat="47.32776" lon="-2.44249">
        <ele>43</ele>
        <time>2023-11-01T20:23:12Z</time>
      </trkpt>
      <trkpt lat="47.32766" lon="-2.44307">
        <ele>42</ele>
        <time>2023-11-01T20:24:06Z</time>
      </trkpt>
      <trkpt lat="47.32763" lon="-2.44342">
        <ele>42</ele>
        <time>2023-11-01T20:24:38Z</time>
      </trkpt>
      <trkpt lat="47.32764" lon="-2.44376">
        <ele>43</ele>
        <time>2023-11-01T20:25:09Z</time>
      </trkpt>
      <trkpt lat="47.32766" lon="-2.44399">
        <ele>43</ele>
        <time>2023-11-01T20:25:29Z</time>
      </trkpt>
      <trkpt lat="47.3276" lon="-2.44404">
        <ele>43</ele>
        <time>2023-11-01T20:25:39Z</time>
      </trkpt>
      <trkpt lat="47.32757" lon="-2.4441">
        <ele>43</ele>
        <time>2023-11-01T20:25:45Z</time>
      </trkpt>
      <trkpt lat="47.32757" lon="-2.44417">
        <ele>43</ele>
        <time>2023-11-01T20:25:52Z</time>
      </trkpt>
      <trkpt lat="47.32756" lon="-2.44438">
        <ele>43</ele>
        <time>2023-11-01T20:26:11Z</time>
      </trkpt>
      <trkpt lat="47.32709" lon="-2.44475">
        <ele>42</ele>
        <time>2023-11-01T20:27:22Z</time>
      </trkpt>
      <trkpt lat="47.32673" lon="-2.44496">
        <ele>42</ele>
        <time>2023-11-01T20:28:14Z</time>
      </trkpt>
      <trkpt lat="47.32658" lon="-2.44526">
        <ele>42</ele>
        <time>2023-11-01T20:28:47Z</time>
      </trkpt>
      <trkpt lat="47.32629" lon="-2.44578">
        <ele>41</ele>
        <time>2023-11-01T20:29:48Z</time>
      </trkpt>
      <trkpt lat="47.32608" lon="-2.44615">
        <ele>40</ele>
        <time>2023-11-01T20:30:32Z</time>
      </trkpt>
      <trkpt lat="47.32601" lon="-2.44625">
        <ele>40</ele>
        <time>2023-11-01T20:30:45Z</time>
      </trkpt>
      <trkpt lat="47.32574" lon="-2.44664">
        <ele>40</ele>
        <time>2023-11-01T20:31:35Z</time>
      </trkpt>
      <trkpt lat="47.32539" lon="-2.44708">
        <ele>38</ele>
        <time>2023-11-01T20:32:37Z</time>
      </trkpt>
      <trkpt lat="47.32532" lon="-2.44725">
        <ele>38</ele>
        <time>2023-11-01T20:32:55Z</time>
      </trkpt>
      <trkpt lat="47.32501" lon="-2.44758">
        <ele>36</ele>
        <time>2023-11-01T20:33:46Z</time>
      </trkpt>
      <trkpt lat="47.32495" lon="-2.44764">
        <ele>36</ele>
        <time>2023-11-01T20:33:55Z</time>
      </trkpt>
      <trkpt lat="47.32355" lon="-2.44867">
        <ele>24</ele>
        <time>2023-11-01T20:37:24Z</time>
      </trkpt>
      <trkpt lat="47.32351" lon="-2.4487">
        <ele>24</ele>
        <time>2023-11-01T20:37:30Z</time>
      </trkpt>
      <trkpt lat="47.32303" lon="-2.4493">
        <ele>21</ele>
        <time>2023-11-01T20:38:54Z</time>
      </trkpt>
      <trkpt lat="47.32289" lon="-2.44948">
        <ele>20</ele>
        <time>2023-11-01T20:39:19Z</time>
      </trkpt>
      <trkpt lat="47.3226" lon="-2.44979">
        <ele>19</ele>
        <time>2023-11-01T20:40:07Z</time>
      </trkpt>
      <trkpt lat="47.32226" lon="-2.45017">
        <ele>16</ele>
        <time>2023-11-01T20:41:04Z</time>
      </trkpt>
      <trkpt lat="47.32214" lon="-2.45034">
        <ele>14</ele>
        <time>2023-11-01T20:41:26Z</time>
      </trkpt>
      <trkpt lat="47.32234" lon="-2.45082">
        <ele>14</ele>
        <time>2023-11-01T20:42:17Z</time>
      </trkpt>
      <trkpt lat="47.32246" lon="-2.45107">
        <ele>14</ele>
        <time>2023-11-01T20:42:44Z</time>
      </trkpt>
      <trkpt lat="47.32266" lon="-2.4517">
        <ele>12</ele>
        <time>2023-11-01T20:43:47Z</time>
      </trkpt>
      <trkpt lat="47.32276" lon="-2.45198">
        <ele>12</ele>
        <time>2023-11-01T20:44:16Z</time>
      </trkpt>
      <trkpt lat="47.32292" lon="-2.45232">
        <ele>12</ele>
        <time>2023-11-01T20:44:53Z</time>
      </trkpt>
      <trkpt lat="47.32294" lon="-2.45238">
        <ele>12</ele>
        <time>2023-11-01T20:44:59Z</time>
      </trkpt>
      <trkpt lat="47.32305" lon="-2.45276">
        <ele>12</ele>
        <time>2023-11-01T20:45:37Z</time>
      </trkpt>
      <trkpt lat="47.3231" lon="-2.4529">
        <ele>12</ele>
        <time>2023-11-01T20:45:51Z</time>
      </trkpt>
      <trkpt lat="47.32312" lon="-2.45302">
        <ele>12</ele>
        <time>2023-11-01T20:46:02Z</time>
      </trkpt>
      <trkpt lat="47.32316" lon="-2.45329">
        <ele>12</ele>
        <time>2023-11-01T20:46:27Z</time>
      </trkpt>
      <trkpt lat="47.32317" lon="-2.45368">
        <ele>11</ele>
        <time>2023-11-01T20:47:03Z</time>
      </trkpt>
      <trkpt lat="47.32321" lon="-2.45397">
        <ele>11</ele>
        <time>2023-11-01T20:47:29Z</time>
      </trkpt>
      <trkpt lat="47.32318" lon="-2.45399">
        <ele>11</ele>
        <time>2023-11-01T20:47:34Z</time>
      </trkpt>
      <trkpt lat="47.3231" lon="-2.45408">
        <ele>10</ele>
        <time>2023-11-01T20:47:47Z</time>
      </trkpt>
      <trkpt lat="47.32299" lon="-2.4542">
        <ele>9</ele>
        <time>2023-11-01T20:48:05Z</time>
      </trkpt>
      <trkpt lat="47.32306" lon="-2.45423">
        <ele>10</ele>
        <time>2023-11-01T20:48:15Z</time>
      </trkpt>
      <trkpt lat="47.32313" lon="-2.45429">
        <ele>10</ele>
        <time>2023-11-01T20:48:26Z</time>
      </trkpt>
      <trkpt lat="47.32319" lon="-2.45435">
        <ele>10</ele>
        <time>2023-11-01T20:48:36Z</time>
      </trkpt>
      <trkpt lat="47.3237" lon="-2.45515">
        <ele>10</ele>
        <time>2023-11-01T20:50:15Z</time>
      </trkpt>
      <trkpt lat="47.32377" lon="-2.45524">
        <ele>10</ele>
        <time>2023-11-01T20:50:27Z</time>
      </trkpt>
      <trkpt lat="47.32382" lon="-2.45536">
        <ele>10</ele>
        <time>2023-11-01T20:50:40Z</time>
      </trkpt>
      <trkpt lat="47.32398" lon="-2.45564">
        <ele>10</ele>
        <time>2023-11-01T20:51:13Z</time>
      </trkpt>
      <trkpt lat="47.32411" lon="-2.45589">
        <ele>10</ele>
        <time>2023-11-01T20:51:42Z</time>
      </trkpt>
      <trkpt lat="47.32415" lon="-2.45599">
        <ele>10</ele>
        <time>2023-11-01T20:51:52Z</time>
      </trkpt>
      <trkpt lat="47.3242" lon="-2.45612">
        <ele>10</ele>
        <time>2023-11-01T20:52:06Z</time>
      </trkpt>
      <trkpt lat="47.32425" lon="-2.45624">
        <ele>10</ele>
        <time>2023-11-01T20:52:19Z</time>
      </trkpt>
      <trkpt lat="47.32442" lon="-2.45651">
        <ele>9</ele>
        <time>2023-11-01T20:52:52Z</time>
      </trkpt>
      <trkpt lat="47.32464" lon="-2.45684">
        <ele>9</ele>
        <time>2023-11-01T20:53:34Z</time>
      </trkpt>
      <trkpt lat="47.32507" lon="-2.45759">
        <ele>8</ele>
        <time>2023-11-01T20:55:03Z</time>
      </trkpt>
      <trkpt lat="47.32527" lon="-2.45796">
        <ele>8</ele>
        <time>2023-11-01T20:55:45Z</time>
      </trkpt>
      <trkpt lat="47.32548" lon="-2.45823">
        <ele>9</ele>
        <time>2023-11-01T20:56:23Z</time>
      </trkpt>
      <trkpt lat="47.32563" lon="-2.45851">
        <ele>9</ele>
        <time>2023-11-01T20:56:55Z</time>
      </trkpt>
      <trkpt lat="47.32577" lon="-2.45871">
        <ele>9</ele>
        <time>2023-11-01T20:57:21Z</time>
      </trkpt>
      <trkpt lat="47.32607" lon="-2.45912">
        <ele>10</ele>
        <time>2023-11-01T20:58:15Z</time>
      </trkpt>
      <trkpt lat="47.32653" lon="-2.45976">
        <ele>9</ele>
        <time>2023-11-01T20:59:40Z</time>
      </trkpt>
      <trkpt lat="47.32657" lon="-2.45984">
        <ele>9</ele>
        <time>2023-11-01T20:59:49Z</time>
      </trkpt>
      <trkpt lat="47.3269" lon="-2.46023">
        <ele>10</ele>
        <time>2023-11-01T21:00:45Z</time>
      </trkpt>
      <trkpt lat="47.32717" lon="-2.46056">
        <ele>12</ele>
        <time>2023-11-01T21:01:32Z</time>
      </trkpt>
      <trkpt lat="47.32732" lon="-2.46072">
        <ele>13</ele>
        <time>2023-11-01T21:01:57Z</time>
      </trkpt>
      <trkpt lat="47.32743" lon="-2.46087">
        <ele>13</ele>
        <time>2023-11-01T21:02:17Z</time>
      </trkpt>
      <trkpt lat="47.32761" lon="-2.46116">
        <ele>14</ele>
        <time>2023-11-01T21:02:52Z</time>
      </trkpt>
      <trkpt lat="47.32767" lon="-2.46131">
        <ele>15</ele>
        <time>2023-11-01T21:03:08Z</time>
      </trkpt>
      <trkpt lat="47.32772" lon="-2.46147">
        <ele>15</ele>
        <time>2023-11-01T21:03:24Z</time>
      </trkpt>
      <trkpt lat="47.32778" lon="-2.46159">
        <ele>15</ele>
        <time>2023-11-01T21:03:37Z</time>
      </trkpt>
      <trkpt lat="47.32788" lon="-2.46173">
        <ele>16</ele>
        <time>2023-11-01T21:03:56Z</time>
      </trkpt>
      <trkpt lat="47.32807" lon="-2.4619">
        <ele>16</ele>
        <time>2023-11-01T21:04:25Z</time>
      </trkpt>
      <trkpt lat="47.32816" lon="-2.46195">
        <ele>17</ele>
        <time>2023-11-01T21:04:38Z</time>
      </trkpt>
      <trkpt lat="47.32827" lon="-2.4619">
        <ele>18</ele>
        <time>2023-11-01T21:04:54Z</time>
      </trkpt>
      <trkpt lat="47.32901" lon="-2.46145">
        <ele>24</ele>
        <time>2023-11-01T21:06:40Z</time>
      </trkpt>
      <trkpt lat="47.32904" lon="-2.46158">
        <ele>24</ele>
        <time>2023-11-01T21:06:53Z</time>
      </trkpt>
      <trkpt lat="47.32909" lon="-2.46178">
        <ele>24</ele>
        <time>2023-11-01T21:07:12Z</time>
      </trkpt>
      <trkpt lat="47.32957" lon="-2.4635">
        <ele>19</ele>
        <time>2023-11-01T21:10:00Z</time>
      </trkpt>
      <trkpt lat="47.3296" lon="-2.46371">
        <ele>18</ele>
        <time>2023-11-01T21:10:20Z</time>
      </trkpt>
      <trkpt lat="47.32962" lon="-2.46394">
        <ele>17</ele>
        <time>2023-11-01T21:10:41Z</time>
      </trkpt>
      <trkpt lat="47.32962" lon="-2.4641">
        <ele>15</ele>
        <time>2023-11-01T21:10:55Z</time>
      </trkpt>
      <trkpt lat="47.32962" lon="-2.4643">
        <ele>14</ele>
        <time>2023-11-01T21:11:13Z</time>
      </trkpt>
      <trkpt lat="47.32959" lon="-2.46502">
        <ele>10</ele>
        <time>2023-11-01T21:12:19Z</time>
      </trkpt>
      <trkpt lat="47.32957" lon="-2.46557">
        <ele>10</ele>
        <time>2023-11-01T21:13:08Z</time>
      </trkpt>
      <trkpt lat="47.32955" lon="-2.46571">
        <ele>9</ele>
        <time>2023-11-01T21:13:21Z</time>
      </trkpt>
      <trkpt lat="47.33008" lon="-2.46544">
        <ele>12</ele>
        <time>2023-11-01T21:14:36Z</time>
      </trkpt>
      <trkpt lat="47.33022" lon="-2.46539">
        <ele>13</ele>
        <time>2023-11-01T21:14:55Z</time>
      </trkpt>
      <trkpt lat="47.33035" lon="-2.46541">
        <ele>14</ele>
        <time>2023-11-01T21:15:13Z</time>
      </trkpt>
      <trkpt lat="47.33041" lon="-2.4654">
        <ele>15</ele>
        <time>2023-11-01T21:15:21Z</time>
      </trkpt>
      <trkpt lat="47.33066" lon="-2.4653">
        <ele>17</ele>
        <time>2023-11-01T21:15:55Z</time>
      </trkpt>
      <trkpt lat="47.33075" lon="-2.46526">
        <ele>18</ele>
        <time>2023-11-01T21:16:08Z</time>
      </trkpt>
      <trkpt lat="47.33078" lon="-2.46542">
        <ele>18</ele>
        <time>2023-11-01T21:16:23Z</time>
      </trkpt>
      <trkpt lat="47.33086" lon="-2.46577">
        <ele>18</ele>
        <time>2023-11-01T21:16:56Z</time>
      </trkpt>
      <trkpt lat="47.33094" lon="-2.46605">
        <ele>18</ele>
        <time>2023-11-01T21:17:24Z</time>
      </trkpt>
      <trkpt lat="47.33101" lon="-2.46625">
        <ele>18</ele>
        <time>2023-11-01T21:17:44Z</time>
      </trkpt>
      <trkpt lat="47.33108" lon="-2.4664">
        <ele>19</ele>
        <time>2023-11-01T21:18:01Z</time>
      </trkpt>
      <trkpt lat="47.33154" lon="-2.46721">
        <ele>20</ele>
        <time>2023-11-01T21:19:36Z</time>
      </trkpt>
      <trkpt lat="47.33166" lon="-2.46737">
        <ele>20</ele>
        <time>2023-11-01T21:19:58Z</time>
      </trkpt>
      <trkpt lat="47.3319" lon="-2.46767">
        <ele>21</ele>
        <time>2023-11-01T21:20:40Z</time>
      </trkpt>
      <trkpt lat="47.33192" lon="-2.4677">
        <ele>21</ele>
        <time>2023-11-01T21:20:44Z</time>
      </trkpt>
      <trkpt lat="47.33207" lon="-2.46786">
        <ele>21</ele>
        <time>2023-11-01T21:21:08Z</time>
      </trkpt>
      <trkpt lat="47.33214" lon="-2.46791">
        <ele>21</ele>
        <time>2023-11-01T21:21:19Z</time>
      </trkpt>
      <trkpt lat="47.3322" lon="-2.46794">
        <ele>22</ele>
        <time>2023-11-01T21:21:27Z</time>
      </trkpt>
      <trkpt lat="47.33226" lon="-2.46794">
        <ele>22</ele>
        <time>2023-11-01T21:21:35Z</time>
      </trkpt>
      <trkpt lat="47.33246" lon="-2.46787">
        <ele>23</ele>
        <time>2023-11-01T21:22:03Z</time>
      </trkpt>
      <trkpt lat="47.33258" lon="-2.46783">
        <ele>23</ele>
        <time>2023-11-01T21:22:19Z</time>
      </trkpt>
      <trkpt lat="47.33267" lon="-2.46785">
        <ele>24</ele>
        <time>2023-11-01T21:22:31Z</time>
      </trkpt>
      <trkpt lat="47.33271" lon="-2.46789">
        <ele>24</ele>
        <time>2023-11-01T21:22:38Z</time>
      </trkpt>
      <trkpt lat="47.33275" lon="-2.46794">
        <ele>24</ele>
        <time>2023-11-01T21:22:45Z</time>
      </trkpt>
      <trkpt lat="47.3328" lon="-2.46805">
        <ele>24</ele>
        <time>2023-11-01T21:22:57Z</time>
      </trkpt>
      <trkpt lat="47.333" lon="-2.46857">
        <ele>23</ele>
        <time>2023-11-01T21:23:51Z</time>
      </trkpt>
      <trkpt lat="47.33306" lon="-2.46876">
        <ele>22</ele>
        <time>2023-11-01T21:24:10Z</time>
      </trkpt>
      <trkpt lat="47.3331" lon="-2.46897">
        <ele>21</ele>
        <time>2023-11-01T21:24:29Z</time>
      </trkpt>
      <trkpt lat="47.3333" lon="-2.46969">
        <ele>17</ele>
        <time>2023-11-01T21:25:40Z</time>
      </trkpt>
      <trkpt lat="47.33338" lon="-2.47">
        <ele>16</ele>
        <time>2023-11-01T21:26:10Z</time>
      </trkpt>
      <trkpt lat="47.33345" lon="-2.47038">
        <ele>17</ele>
        <time>2023-11-01T21:26:45Z</time>
      </trkpt>
      <trkpt lat="47.33346" lon="-2.47048">
        <ele>17</ele>
        <time>2023-11-01T21:26:55Z</time>
      </trkpt>
      <trkpt lat="47.33347" lon="-2.47062">
        <ele>17</ele>
        <time>2023-11-01T21:27:07Z</time>
      </trkpt>
      <trkpt lat="47.3335" lon="-2.47085">
        <ele>17</ele>
        <time>2023-11-01T21:27:28Z</time>
      </trkpt>
      <trkpt lat="47.33363" lon="-2.4714">
        <ele>19</ele>
        <time>2023-11-01T21:28:21Z</time>
      </trkpt>
      <trkpt lat="47.33372" lon="-2.47203">
        <ele>20</ele>
        <time>2023-11-01T21:29:19Z</time>
      </trkpt>
      <trkpt lat="47.33377" lon="-2.47232">
        <ele>20</ele>
        <time>2023-11-01T21:29:46Z</time>
      </trkpt>
      <trkpt lat="47.33384" lon="-2.47294">
        <ele>20</ele>
        <time>2023-11-01T21:30:43Z</time>
      </trkpt>
      <trkpt lat="47.33387" lon="-2.47333">
        <ele>21</ele>
        <time>2023-11-01T21:31:19Z</time>
      </trkpt>
      <trkpt lat="47.33391" lon="-2.47354">
        <ele>21</ele>
        <time>2023-11-01T21:31:39Z</time>
      </trkpt>
      <trkpt lat="47.33396" lon="-2.47373">
        <ele>21</ele>
        <time>2023-11-01T21:31:57Z</time>
      </trkpt>
      <trkpt lat="47.33407" lon="-2.47406">
        <ele>21</ele>
        <time>2023-11-01T21:32:30Z</time>
      </trkpt>
      <trkpt lat="47.33414" lon="-2.4744">
        <ele>20</ele>
        <time>2023-11-01T21:33:02Z</time>
      </trkpt>
      <trkpt lat="47.33424" lon="-2.47476">
        <ele>20</ele>
        <time>2023-11-01T21:33:38Z</time>
      </trkpt>
      <trkpt lat="47.33442" lon="-2.4752">
        <ele>20</ele>
        <time>2023-11-01T21:34:24Z</time>
      </trkpt>
      <trkpt lat="47.33446" lon="-2.47531">
        <ele>20</ele>
        <time>2023-11-01T21:34:35Z</time>
      </trkpt>
      <trkpt lat="47.33475" lon="-2.47589">
        <ele>21</ele>
        <time>2023-11-01T21:35:41Z</time>
      </trkpt>
      <trkpt lat="47.3348" lon="-2.476">
        <ele>21</ele>
        <time>2023-11-01T21:35:52Z</time>
      </trkpt>
      <trkpt lat="47.33482" lon="-2.47601">
        <ele>21</ele>
        <time>2023-11-01T21:35:55Z</time>
      </trkpt>
      <trkpt lat="47.33488" lon="-2.47606">
        <ele>22</ele>
        <time>2023-11-01T21:36:04Z</time>
      </trkpt>
      <trkpt lat="47.33496" lon="-2.47611">
        <ele>22</ele>
        <time>2023-11-01T21:36:16Z</time>
      </trkpt>
      <trkpt lat="47.33502" lon="-2.47619">
        <ele>22</ele>
        <time>2023-11-01T21:36:27Z</time>
      </trkpt>
      <trkpt lat="47.33506" lon="-2.47628">
        <ele>21</ele>
        <time>2023-11-01T21:36:37Z</time>
      </trkpt>
      <trkpt lat="47.3352" lon="-2.47662">
        <ele>20</ele>
        <time>2023-11-01T21:37:13Z</time>
      </trkpt>
      <trkpt lat="47.33527" lon="-2.47671">
        <ele>20</ele>
        <time>2023-11-01T21:37:25Z</time>
      </trkpt>
      <trkpt lat="47.33535" lon="-2.47677">
        <ele>20</ele>
        <time>2023-11-01T21:37:37Z</time>
      </trkpt>
      <trkpt lat="47.33545" lon="-2.47681">
        <ele>20</ele>
        <time>2023-11-01T21:37:51Z</time>
      </trkpt>
      <trkpt lat="47.33549" lon="-2.47682">
        <ele>20</ele>
        <time>2023-11-01T21:37:56Z</time>
      </trkpt>
      <trkpt lat="47.33555" lon="-2.47688">
        <ele>20</ele>
        <time>2023-11-01T21:38:06Z</time>
      </trkpt>
      <trkpt lat="47.3356" lon="-2.47695">
        <ele>20</ele>
        <time>2023-11-01T21:38:15Z</time>
      </trkpt>
      <trkpt lat="47.33567" lon="-2.47701">
        <ele>20</ele>
        <time>2023-11-01T21:38:26Z</time>
      </trkpt>
      <trkpt lat="47.33575" lon="-2.47703">
        <ele>20</ele>
        <time>2023-11-01T21:38:37Z</time>
      </trkpt>
      <trkpt lat="47.33584" lon="-2.47703">
        <ele>21</ele>
        <time>2023-11-01T21:38:49Z</time>
      </trkpt>
      <trkpt lat="47.33589" lon="-2.47701">
        <ele>21</ele>
        <time>2023-11-01T21:38:56Z</time>
      </trkpt>
      <trkpt lat="47.33624" lon="-2.47669">
        <ele>21</ele>
        <time>2023-11-01T21:39:51Z</time>
      </trkpt>
      <trkpt lat="47.33675" lon="-2.47632">
        <ele>21</ele>
        <time>2023-11-01T21:41:06Z</time>
      </trkpt>
      <trkpt lat="47.33685" lon="-2.47627">
        <ele>22</ele>
        <time>2023-11-01T21:41:21Z</time>
      </trkpt>
      <trkpt lat="47.33693" lon="-2.47624">
        <ele>22</ele>
        <time>2023-11-01T21:41:32Z</time>
      </trkpt>
      <trkpt lat="47.33716" lon="-2.47622">
        <ele>22</ele>
        <time>2023-11-01T21:42:02Z</time>
      </trkpt>
      <trkpt lat="47.33729" lon="-2.47623">
        <ele>22</ele>
        <time>2023-11-01T21:42:20Z</time>
      </trkpt>
      <trkpt lat="47.33743" lon="-2.47633">
        <ele>22</ele>
        <time>2023-11-01T21:42:40Z</time>
      </trkpt>
      <trkpt lat="47.33752" lon="-2.47639">
        <ele>22</ele>
        <time>2023-11-01T21:42:54Z</time>
      </trkpt>
      <trkpt lat="47.33755" lon="-2.47642">
        <ele>22</ele>
        <time>2023-11-01T21:42:58Z</time>
      </trkpt>
      <trkpt lat="47.3376" lon="-2.47654">
        <ele>22</ele>
        <time>2023-11-01T21:43:11Z</time>
      </trkpt>
      <trkpt lat="47.33767" lon="-2.47669">
        <ele>22</ele>
        <time>2023-11-01T21:43:28Z</time>
      </trkpt>
      <trkpt lat="47.33801" lon="-2.47713">
        <ele>21</ele>
        <time>2023-11-01T21:44:28Z</time>
      </trkpt>
      <trkpt lat="47.33818" lon="-2.47736">
        <ele>20</ele>
        <time>2023-11-01T21:44:59Z</time>
      </trkpt>
      <trkpt lat="47.33845" lon="-2.47767">
        <ele>20</ele>
        <time>2023-11-01T21:45:44Z</time>
      </trkpt>
      <trkpt lat="47.3385" lon="-2.47775">
        <ele>20</ele>
        <time>2023-11-01T21:45:54Z</time>
      </trkpt>
      <trkpt lat="47.33851" lon="-2.47778">
        <ele>20</ele>
        <time>2023-11-01T21:45:57Z</time>
      </trkpt>
      <trkpt lat="47.33851" lon="-2.47783">
        <ele>19</ele>
        <time>2023-11-01T21:46:02Z</time>
      </trkpt>
      <trkpt lat="47.33848" lon="-2.47795">
        <ele>19</ele>
        <time>2023-11-01T21:46:13Z</time>
      </trkpt>
      <trkpt lat="47.33845" lon="-2.47805">
        <ele>19</ele>
        <time>2023-11-01T21:46:23Z</time>
      </trkpt>
      <trkpt lat="47.33839" lon="-2.47818">
        <ele>18</ele>
        <time>2023-11-01T21:46:37Z</time>
      </trkpt>
      <trkpt lat="47.3383" lon="-2.47831">
        <ele>17</ele>
        <time>2023-11-01T21:46:54Z</time>
      </trkpt>
      <trkpt lat="47.33816" lon="-2.47856">
        <ele>16</ele>
        <time>2023-11-01T21:47:24Z</time>
      </trkpt>
      <trkpt lat="47.33787" lon="-2.47905">
        <ele>15</ele>
        <time>2023-11-01T21:48:22Z</time>
      </trkpt>
      <trkpt lat="47.33768" lon="-2.47945">
        <ele>14</ele>
        <time>2023-11-01T21:49:07Z</time>
      </trkpt>
      <trkpt lat="47.33753" lon="-2.47995">
        <ele>13</ele>
        <time>2023-11-01T21:49:56Z</time>
      </trkpt>
      <trkpt lat="47.33743" lon="-2.48049">
        <ele>12</ele>
        <time>2023-11-01T21:50:47Z</time>
      </trkpt>
      <trkpt lat="47.33731" lon="-2.48113">
        <ele>11</ele>
        <time>2023-11-01T21:51:47Z</time>
      </trkpt>
      <trkpt lat="47.33722" lon="-2.48252">
        <ele>9</ele>
        <time>2023-11-01T21:53:53Z</time>
      </trkpt>
      <trkpt lat="47.33721" lon="-2.48274">
        <ele>9</ele>
        <time>2023-11-01T21:54:13Z</time>
      </trkpt>
      <trkpt lat="47.33721" lon="-2.48292">
        <ele>9</ele>
        <time>2023-11-01T21:54:29Z</time>
      </trkpt>
      <trkpt lat="47.33722" lon="-2.48314">
        <ele>9</ele>
        <time>2023-11-01T21:54:49Z</time>
      </trkpt>
      <trkpt lat="47.33725" lon="-2.48329">
        <ele>9</ele>
        <time>2023-11-01T21:55:03Z</time>
      </trkpt>
      <trkpt lat="47.33734" lon="-2.48326">
        <ele>9</ele>
        <time>2023-11-01T21:55:16Z</time>
      </trkpt>
      <trkpt lat="47.33756" lon="-2.48314">
        <ele>10</ele>
        <time>2023-11-01T21:55:47Z</time>
      </trkpt>
      <trkpt lat="47.33768" lon="-2.48306">
        <ele>10</ele>
        <time>2023-11-01T21:56:04Z</time>
      </trkpt>
      <trkpt lat="47.33787" lon="-2.48296">
        <ele>11</ele>
        <time>2023-11-01T21:56:31Z</time>
      </trkpt>
      <trkpt lat="47.33793" lon="-2.48291">
        <ele>11</ele>
        <time>2023-11-01T21:56:41Z</time>
      </trkpt>
      <trkpt lat="47.33853" lon="-2.48272">
        <ele>12</ele>
        <time>2023-11-01T21:58:02Z</time>
      </trkpt>
      <trkpt lat="47.33868" lon="-2.48268">
        <ele>12</ele>
        <time>2023-11-01T21:58:23Z</time>
      </trkpt>
      <trkpt lat="47.33896" lon="-2.48256">
        <ele>13</ele>
        <time>2023-11-01T21:59:02Z</time>
      </trkpt>
      <trkpt lat="47.33934" lon="-2.48231">
        <ele>13</ele>
        <time>2023-11-01T21:59:57Z</time>
      </trkpt>
      <trkpt lat="47.33944" lon="-2.48226">
        <ele>13</ele>
        <time>2023-11-01T22:00:11Z</time>
      </trkpt>
      <trkpt lat="47.33955" lon="-2.48222">
        <ele>13</ele>
        <time>2023-11-01T22:00:26Z</time>
      </trkpt>
      <trkpt lat="47.3396" lon="-2.48222">
        <ele>13</ele>
        <time>2023-11-01T22:00:33Z</time>
      </trkpt>
      <trkpt lat="47.33965" lon="-2.48221">
        <ele>13</ele>
        <time>2023-11-01T22:00:40Z</time>
      </trkpt>
      <trkpt lat="47.33975" lon="-2.48223">
        <ele>13</ele>
        <time>2023-11-01T22:00:53Z</time>
      </trkpt>
      <trkpt lat="47.33994" lon="-2.48229">
        <ele>13</ele>
        <time>2023-11-01T22:01:19Z</time>
      </trkpt>
      <trkpt lat="47.34032" lon="-2.48243">
        <ele>13</ele>
        <time>2023-11-01T22:02:12Z</time>
      </trkpt>
      <trkpt lat="47.34124" lon="-2.48266">
        <ele>11</ele>
        <time>2023-11-01T22:04:16Z</time>
      </trkpt>
      <trkpt lat="47.34141" lon="-2.48274">
        <ele>10</ele>
        <time>2023-11-01T22:04:40Z</time>
      </trkpt>
      <trkpt lat="47.34158" lon="-2.48288">
        <ele>10</ele>
        <time>2023-11-01T22:05:06Z</time>
      </trkpt>
      <trkpt lat="47.34182" lon="-2.48316">
        <ele>9</ele>
        <time>2023-11-01T22:05:47Z</time>
      </trkpt>
      <trkpt lat="47.34213" lon="-2.48353">
        <ele>9</ele>
        <time>2023-11-01T22:06:40Z</time>
      </trkpt>
      <trkpt lat="47.34227" lon="-2.48368">
        <ele>9</ele>
        <time>2023-11-01T22:07:03Z</time>
      </trkpt>
      <trkpt lat="47.34231" lon="-2.48371">
        <ele>9</ele>
        <time>2023-11-01T22:07:09Z</time>
      </trkpt>
      <trkpt lat="47.34253" lon="-2.4838">
        <ele>9</ele>
        <time>2023-11-01T22:07:39Z</time>
      </trkpt>
      <trkpt lat="47.34268" lon="-2.48384">
        <ele>10</ele>
        <time>2023-11-01T22:08:00Z</time>
      </trkpt>
      <trkpt lat="47.34283" lon="-2.48382">
        <ele>10</ele>
        <time>2023-11-01T22:08:20Z</time>
      </trkpt>
      <trkpt lat="47.343" lon="-2.48375">
        <ele>10</ele>
        <time>2023-11-01T22:08:43Z</time>
      </trkpt>
      <trkpt lat="47.34313" lon="-2.48373">
        <ele>10</ele>
        <time>2023-11-01T22:09:01Z</time>
      </trkpt>
      <trkpt lat="47.3433" lon="-2.48374">
        <ele>10</ele>
        <time>2023-11-01T22:09:24Z</time>
      </trkpt>
      <trkpt lat="47.34347" lon="-2.48382">
        <ele>13</ele>
        <time>2023-11-01T22:09:47Z</time>
      </trkpt>
      <trkpt lat="47.34366" lon="-2.48389">
        <ele>16</ele>
        <time>2023-11-01T22:10:14Z</time>
      </trkpt>
      <trkpt lat="47.34381" lon="-2.48391">
        <ele>17</ele>
        <time>2023-11-01T22:10:34Z</time>
      </trkpt>
      <trkpt lat="47.34389" lon="-2.48389">
        <ele>18</ele>
        <time>2023-11-01T22:10:44Z</time>
      </trkpt>
      <trkpt lat="47.34396" lon="-2.48402">
        <ele>20</ele>
        <time>2023-11-01T22:10:59Z</time>
      </trkpt>
      <trkpt lat="47.34436" lon="-2.48435">
        <ele>23</ele>
        <time>2023-11-01T22:12:01Z</time>
      </trkpt>
      <trkpt lat="47.34444" lon="-2.48443">
        <ele>23</ele>
        <time>2023-11-01T22:12:13Z</time>
      </trkpt>
      <trkpt lat="47.34469" lon="-2.48486">
        <ele>23</ele>
        <time>2023-11-01T22:13:05Z</time>
      </trkpt>
      <trkpt lat="47.34475" lon="-2.48494">
        <ele>24</ele>
        <time>2023-11-01T22:13:16Z</time>
      </trkpt>
      <trkpt lat="47.34487" lon="-2.48495">
        <ele>24</ele>
        <time>2023-11-01T22:13:32Z</time>
      </trkpt>
      <trkpt lat="47.34498" lon="-2.48495">
        <ele>25</ele>
        <time>2023-11-01T22:13:46Z</time>
      </trkpt>
      <trkpt lat="47.34509" lon="-2.48494">
        <ele>26</ele>
        <time>2023-11-01T22:14:01Z</time>
      </trkpt>
      <trkpt lat="47.34509" lon="-2.48517">
        <ele>25</ele>
        <time>2023-11-01T22:14:22Z</time>
      </trkpt>
      <trkpt lat="47.3452" lon="-2.4852">
        <ele>26</ele>
        <time>2023-11-01T22:14:37Z</time>
      </trkpt>
      <trkpt lat="47.34527" lon="-2.4853">
        <ele>26</ele>
        <time>2023-11-01T22:14:50Z</time>
      </trkpt>
      <trkpt lat="47.34534" lon="-2.48544">
        <ele>26</ele>
        <time>2023-11-01T22:15:05Z</time>
      </trkpt>
      <trkpt lat="47.34547" lon="-2.48526">
        <ele>27</ele>
        <time>2023-11-01T22:15:29Z</time>
      </trkpt>
      <trkpt lat="47.34549" lon="-2.48518">
        <ele>27</ele>
        <time>2023-11-01T22:15:37Z</time>
      </trkpt>
      <trkpt lat="47.34549" lon="-2.48505">
        <ele>28</ele>
        <time>2023-11-01T22:15:49Z</time>
      </trkpt>
      <trkpt lat="47.34546" lon="-2.48476">
        <ele>28</ele>
        <time>2023-11-01T22:16:15Z</time>
      </trkpt>
      <trkpt lat="47.34554" lon="-2.48495">
        <ele>28</ele>
        <time>2023-11-01T22:16:35Z</time>
      </trkpt>
      <trkpt lat="47.34582" lon="-2.48536">
        <ele>29</ele>
        <time>2023-11-01T22:17:28Z</time>
      </trkpt>
      <trkpt lat="47.34607" lon="-2.48572">
        <ele>27</ele>
        <time>2023-11-01T22:18:15Z</time>
      </trkpt>
      <trkpt lat="47.34637" lon="-2.48608">
        <ele>26</ele>
        <time>2023-11-01T22:19:06Z</time>
      </trkpt>
      <trkpt lat="47.34645" lon="-2.48615">
        <ele>26</ele>
        <time>2023-11-01T22:19:19Z</time>
      </trkpt>
      <trkpt lat="47.34658" lon="-2.48641">
        <ele>26</ele>
        <time>2023-11-01T22:19:48Z</time>
      </trkpt>
      <trkpt lat="47.3468" lon="-2.48681">
        <ele>26</ele>
        <time>2023-11-01T22:20:34Z</time>
      </trkpt>
      <trkpt lat="47.34689" lon="-2.48701">
        <ele>25</ele>
        <time>2023-11-01T22:20:56Z</time>
      </trkpt>
      <trkpt lat="47.34695" lon="-2.48713">
        <ele>25</ele>
        <time>2023-11-01T22:21:10Z</time>
      </trkpt>
      <trkpt lat="47.34702" lon="-2.48733">
        <ele>25</ele>
        <time>2023-11-01T22:21:30Z</time>
      </trkpt>
      <trkpt lat="47.347" lon="-2.48748">
        <ele>24</ele>
        <time>2023-11-01T22:21:44Z</time>
      </trkpt>
      <trkpt lat="47.34701" lon="-2.48764">
        <ele>24</ele>
        <time>2023-11-01T22:21:58Z</time>
      </trkpt>
      <trkpt lat="47.34709" lon="-2.48784">
        <ele>24</ele>
        <time>2023-11-01T22:22:19Z</time>
      </trkpt>
      <trkpt lat="47.34712" lon="-2.48795">
        <ele>24</ele>
        <time>2023-11-01T22:22:30Z</time>
      </trkpt>
      <trkpt lat="47.34715" lon="-2.48806">
        <ele>24</ele>
        <time>2023-11-01T22:22:41Z</time>
      </trkpt>
      <trkpt lat="47.34718" lon="-2.48833">
        <ele>23</ele>
        <time>2023-11-01T22:23:06Z</time>
      </trkpt>
      <trkpt lat="47.34723" lon="-2.48851">
        <ele>23</ele>
        <time>2023-11-01T22:23:23Z</time>
      </trkpt>
      <trkpt lat="47.34729" lon="-2.48863">
        <ele>24</ele>
        <time>2023-11-01T22:23:37Z</time>
      </trkpt>
      <trkpt lat="47.34747" lon="-2.4886">
        <ele>25</ele>
        <time>2023-11-01T22:24:01Z</time>
      </trkpt>
      <trkpt lat="47.3482" lon="-2.48857">
        <ele>28</ele>
        <time>2023-11-01T22:25:38Z</time>
      </trkpt>
      <trkpt lat="47.34831" lon="-2.4886">
        <ele>29</ele>
        <time>2023-11-01T22:25:53Z</time>
      </trkpt>
      <trkpt lat="47.34836" lon="-2.48848">
        <ele>29</ele>
        <time>2023-11-01T22:26:06Z</time>
      </trkpt>
      <trkpt lat="47.34886" lon="-2.48789">
        <ele>34</ele>
        <time>2023-11-01T22:27:31Z</time>
      </trkpt>
      <trkpt lat="47.34901" lon="-2.48767">
        <ele>36</ele>
        <time>2023-11-01T22:28:00Z</time>
      </trkpt>
      <trkpt lat="47.34906" lon="-2.48751">
        <ele>38</ele>
        <time>2023-11-01T22:28:15Z</time>
      </trkpt>
      <trkpt lat="47.34908" lon="-2.48742">
        <ele>38</ele>
        <time>2023-11-01T22:28:24Z</time>
      </trkpt>
      <trkpt lat="47.34909" lon="-2.48735">
        <ele>38</ele>
        <time>2023-11-01T22:28:31Z</time>
      </trkpt>
      <trkpt lat="47.3491" lon="-2.4872">
        <ele>38</ele>
        <time>2023-11-01T22:28:44Z</time>
      </trkpt>
      <trkpt lat="47.34909" lon="-2.48701">
        <ele>38</ele>
        <time>2023-11-01T22:29:01Z</time>
      </trkpt>
      <trkpt lat="47.34903" lon="-2.48676">
        <ele>37</ele>
        <time>2023-11-01T22:29:25Z</time>
      </trkpt>
      <trkpt lat="47.3491" lon="-2.48675">
        <ele>38</ele>
        <time>2023-11-01T22:29:35Z</time>
      </trkpt>
      <trkpt lat="47.34912" lon="-2.48672">
        <ele>38</ele>
        <time>2023-11-01T22:29:39Z</time>
      </trkpt>
      <trkpt lat="47.34921" lon="-2.48622">
        <ele>36</ele>
        <time>2023-11-01T22:30:25Z</time>
      </trkpt>
      <trkpt lat="47.34927" lon="-2.48611">
        <ele>36</ele>
        <time>2023-11-01T22:30:38Z</time>
      </trkpt>
      <trkpt lat="47.34941" lon="-2.48593">
        <ele>35</ele>
        <time>2023-11-01T22:31:03Z</time>
      </trkpt>
      <trkpt lat="47.34951" lon="-2.4858">
        <ele>34</ele>
        <time>2023-11-01T22:31:21Z</time>
      </trkpt>
      <trkpt lat="47.34973" lon="-2.48558">
        <ele>34</ele>
        <time>2023-11-01T22:31:56Z</time>
      </trkpt>
      <trkpt lat="47.34991" lon="-2.48542">
        <ele>34</ele>
        <time>2023-11-01T22:32:24Z</time>
      </trkpt>
      <trkpt lat="47.3501" lon="-2.48528">
        <ele>33</ele>
        <time>2023-11-01T22:32:52Z</time>
      </trkpt>
      <trkpt lat="47.35018" lon="-2.48522">
        <ele>33</ele>
        <time>2023-11-01T22:33:04Z</time>
      </trkpt>
      <trkpt lat="47.35046" lon="-2.48507">
        <ele>33</ele>
        <time>2023-11-01T22:33:44Z</time>
      </trkpt>
      <trkpt lat="47.35049" lon="-2.48505">
        <ele>33</ele>
        <time>2023-11-01T22:33:49Z</time>
      </trkpt>
      <trkpt lat="47.35078" lon="-2.48486">
        <ele>32</ele>
        <time>2023-11-01T22:34:31Z</time>
      </trkpt>
      <trkpt lat="47.35092" lon="-2.48477">
        <ele>32</ele>
        <time>2023-11-01T22:34:51Z</time>
      </trkpt>
      <trkpt lat="47.3511" lon="-2.48458">
        <ele>33</ele>
        <time>2023-11-01T22:35:21Z</time>
      </trkpt>
      <trkpt lat="47.3512" lon="-2.48448">
        <ele>32</ele>
        <time>2023-11-01T22:35:37Z</time>
      </trkpt>
      <trkpt lat="47.3514" lon="-2.48419">
        <ele>32</ele>
        <time>2023-11-01T22:36:14Z</time>
      </trkpt>
      <trkpt lat="47.35161" lon="-2.48389">
        <ele>32</ele>
        <time>2023-11-01T22:36:53Z</time>
      </trkpt>
      <trkpt lat="47.35223" lon="-2.48312">
        <ele>33</ele>
        <time>2023-11-01T22:38:42Z</time>
      </trkpt>
      <trkpt lat="47.35255" lon="-2.48274">
        <ele>32</ele>
        <time>2023-11-01T22:39:36Z</time>
      </trkpt>
      <trkpt lat="47.35269" lon="-2.48254">
        <ele>32</ele>
        <time>2023-11-01T22:40:02Z</time>
      </trkpt>
      <trkpt lat="47.35277" lon="-2.48236">
        <ele>32</ele>
        <time>2023-11-01T22:40:22Z</time>
      </trkpt>
      <trkpt lat="47.35292" lon="-2.48209">
        <ele>32</ele>
        <time>2023-11-01T22:40:53Z</time>
      </trkpt>
      <trkpt lat="47.35339" lon="-2.48149">
        <ele>31</ele>
        <time>2023-11-01T22:42:16Z</time>
      </trkpt>
      <trkpt lat="47.35343" lon="-2.48133">
        <ele>31</ele>
        <time>2023-11-01T22:42:32Z</time>
      </trkpt>
      <trkpt lat="47.3534" lon="-2.48127">
        <ele>31</ele>
        <time>2023-11-01T22:42:38Z</time>
      </trkpt>
      <trkpt lat="47.35305" lon="-2.48076">
        <ele>32</ele>
        <time>2023-11-01T22:43:44Z</time>
      </trkpt>
      <trkpt lat="47.35295" lon="-2.48058">
        <ele>32</ele>
        <time>2023-11-01T22:44:05Z</time>
      </trkpt>
      <trkpt lat="47.3529" lon="-2.48055">
        <ele>32</ele>
        <time>2023-11-01T22:44:12Z</time>
      </trkpt>
      <trkpt lat="47.35283" lon="-2.48054">
        <ele>32</ele>
        <time>2023-11-01T22:44:22Z</time>
      </trkpt>
      <trkpt lat="47.35256" lon="-2.4806">
        <ele>33</ele>
        <time>2023-11-01T22:44:58Z</time>
      </trkpt>
      <trkpt lat="47.35234" lon="-2.48082">
        <ele>33</ele>
        <time>2023-11-01T22:45:34Z</time>
      </trkpt>
      <trkpt lat="47.35206" lon="-2.48115">
        <ele>33</ele>
        <time>2023-11-01T22:46:21Z</time>
      </trkpt>
      <trkpt lat="47.35178" lon="-2.48146">
        <ele>34</ele>
        <time>2023-11-01T22:47:08Z</time>
      </trkpt>
      <trkpt lat="47.35167" lon="-2.4816">
        <ele>34</ele>
        <time>2023-11-01T22:47:28Z</time>
      </trkpt>
      <trkpt lat="47.35162" lon="-2.4817">
        <ele>34</ele>
        <time>2023-11-01T22:47:39Z</time>
      </trkpt>
      <trkpt lat="47.35159" lon="-2.48181">
        <ele>34</ele>
        <time>2023-11-01T22:47:49Z</time>
      </trkpt>
      <trkpt lat="47.35154" lon="-2.48189">
        <ele>34</ele>
        <time>2023-11-01T22:47:59Z</time>
      </trkpt>
      <trkpt lat="47.35134" lon="-2.48208">
        <ele>35</ele>
        <time>2023-11-01T22:48:31Z</time>
      </trkpt>
      <trkpt lat="47.35117" lon="-2.48219">
        <ele>35</ele>
        <time>2023-11-01T22:48:56Z</time>
      </trkpt>
      <trkpt lat="47.35102" lon="-2.48228">
        <ele>36</ele>
        <time>2023-11-01T22:49:17Z</time>
      </trkpt>
      <trkpt lat="47.35092" lon="-2.48231">
        <ele>36</ele>
        <time>2023-11-01T22:49:31Z</time>
      </trkpt>
      <trkpt lat="47.35087" lon="-2.48208">
        <ele>36</ele>
        <time>2023-11-01T22:49:53Z</time>
      </trkpt>
      <trkpt lat="47.35084" lon="-2.482">
        <ele>37</ele>
        <time>2023-11-01T22:50:01Z</time>
      </trkpt>
      <trkpt lat="47.35077" lon="-2.48191">
        <ele>37</ele>
        <time>2023-11-01T22:50:14Z</time>
      </trkpt>
      <trkpt lat="47.35068" lon="-2.48178">
        <ele>37</ele>
        <time>2023-11-01T22:50:30Z</time>
      </trkpt>
      <trkpt lat="47.35059" lon="-2.48164">
        <ele>38</ele>
        <time>2023-11-01T22:50:48Z</time>
      </trkpt>
      <trkpt lat="47.35051" lon="-2.48149">
        <ele>37</ele>
        <time>2023-11-01T22:51:05Z</time>
      </trkpt>
      <trkpt lat="47.35049" lon="-2.48142">
        <ele>37</ele>
        <time>2023-11-01T22:51:12Z</time>
      </trkpt>
      <trkpt lat="47.35047" lon="-2.48134">
        <ele>37</ele>
        <time>2023-11-01T22:51:20Z</time>
      </trkpt>
      <trkpt lat="47.35044" lon="-2.4812">
        <ele>37</ele>
        <time>2023-11-01T22:51:33Z</time>
      </trkpt>
      <trkpt lat="47.35039" lon="-2.481">
        <ele>37</ele>
        <time>2023-11-01T22:51:52Z</time>
      </trkpt>
      <trkpt lat="47.35034" lon="-2.48086">
        <ele>37</ele>
        <time>2023-11-01T22:52:06Z</time>
      </trkpt>
      <trkpt lat="47.3503" lon="-2.48079">
        <ele>37</ele>
        <time>2023-11-01T22:52:15Z</time>
      </trkpt>
      <trkpt lat="47.35026" lon="-2.48074">
        <ele>37</ele>
        <time>2023-11-01T22:52:22Z</time>
      </trkpt>
      <trkpt lat="47.35029" lon="-2.4807">
        <ele>37</ele>
        <time>2023-11-01T22:52:27Z</time>
      </trkpt>
      <trkpt lat="47.35032" lon="-2.48062">
        <ele>37</ele>
        <time>2023-11-01T22:52:35Z</time>
      </trkpt>
      <trkpt lat="47.35033" lon="-2.48056">
        <ele>37</ele>
        <time>2023-11-01T22:52:41Z</time>
      </trkpt>
      <trkpt lat="47.35034" lon="-2.48045">
        <ele>37</ele>
        <time>2023-11-01T22:52:51Z</time>
      </trkpt>
      <trkpt lat="47.35034" lon="-2.4803">
        <ele>36</ele>
        <time>2023-11-01T22:53:05Z</time>
      </trkpt>
      <trkpt lat="47.35034" lon="-2.48009">
        <ele>36</ele>
        <time>2023-11-01T22:53:24Z</time>
      </trkpt>
      <trkpt lat="47.35033" lon="-2.47973">
        <ele>36</ele>
        <time>2023-11-01T22:53:56Z</time>
      </trkpt>
      <trkpt lat="47.35034" lon="-2.47945">
        <ele>36</ele>
        <time>2023-11-01T22:54:22Z</time>
      </trkpt>
      <trkpt lat="47.35035" lon="-2.4791">
        <ele>36</ele>
        <time>2023-11-01T22:54:53Z</time>
      </trkpt>
      <trkpt lat="47.35045" lon="-2.47706">
        <ele>37</ele>
        <time>2023-11-01T22:57:58Z</time>
      </trkpt>
      <trkpt lat="47.35048" lon="-2.4769">
        <ele>36</ele>
        <time>2023-11-01T22:58:13Z</time>
      </trkpt>
      <trkpt lat="47.35044" lon="-2.47683">
        <ele>36</ele>
        <time>2023-11-01T22:58:21Z</time>
      </trkpt>
      <trkpt lat="47.35042" lon="-2.47669">
        <ele>36</ele>
        <time>2023-11-01T22:58:34Z</time>
      </trkpt>
      <trkpt lat="47.3504" lon="-2.47631">
        <ele>36</ele>
        <time>2023-11-01T22:59:09Z</time>
      </trkpt>
      <trkpt lat="47.35017" lon="-2.47366">
        <ele>39</ele>
        <time>2023-11-01T23:03:10Z</time>
      </trkpt>
      <trkpt lat="47.35016" lon="-2.47357">
        <ele>39</ele>
        <time>2023-11-01T23:03:19Z</time>
      </trkpt>
      <trkpt lat="47.34993" lon="-2.47275">
        <ele>40</ele>
        <time>2023-11-01T23:04:39Z</time>
      </trkpt>
      <trkpt lat="47.34973" lon="-2.47216">
        <ele>40</ele>
        <time>2023-11-01T23:05:38Z</time>
      </trkpt>
      <trkpt lat="47.3494" lon="-2.47128">
        <ele>42</ele>
        <time>2023-11-01T23:07:09Z</time>
      </trkpt>
      <trkpt lat="47.34927" lon="-2.47091">
        <ele>43</ele>
        <time>2023-11-01T23:07:47Z</time>
      </trkpt>
      <trkpt lat="47.34914" lon="-2.47062">
        <ele>43</ele>
        <time>2023-11-01T23:08:19Z</time>
      </trkpt>
      <trkpt lat="47.34909" lon="-2.47049">
        <ele>43</ele>
        <time>2023-11-01T23:08:32Z</time>
      </trkpt>
      <trkpt lat="47.349" lon="-2.47011">
        <ele>43</ele>
        <time>2023-11-01T23:09:08Z</time>
      </trkpt>
      <trkpt lat="47.34892" lon="-2.46969">
        <ele>43</ele>
        <time>2023-11-01T23:09:48Z</time>
      </trkpt>
      <trkpt lat="47.3489" lon="-2.46941">
        <ele>42</ele>
        <time>2023-11-01T23:10:13Z</time>
      </trkpt>
      <trkpt lat="47.34887" lon="-2.46921">
        <ele>42</ele>
        <time>2023-11-01T23:10:32Z</time>
      </trkpt>
      <trkpt lat="47.34883" lon="-2.46899">
        <ele>42</ele>
        <time>2023-11-01T23:10:52Z</time>
      </trkpt>
      <trkpt lat="47.34873" lon="-2.46852">
        <ele>41</ele>
        <time>2023-11-01T23:11:37Z</time>
      </trkpt>
      <trkpt lat="47.34869" lon="-2.46823">
        <ele>41</ele>
        <time>2023-11-01T23:12:04Z</time>
      </trkpt>
      <trkpt lat="47.34865" lon="-2.46752">
        <ele>41</ele>
        <time>2023-11-01T23:13:08Z</time>
      </trkpt>
      <trkpt lat="47.34858" lon="-2.46657">
        <ele>41</ele>
        <time>2023-11-01T23:14:35Z</time>
      </trkpt>
      <trkpt lat="47.34849" lon="-2.46559">
        <ele>38</ele>
        <time>2023-11-01T23:16:04Z</time>
      </trkpt>
      <trkpt lat="47.34847" lon="-2.46535">
        <ele>38</ele>
        <time>2023-11-01T23:16:26Z</time>
      </trkpt>
      <trkpt lat="47.34848" lon="-2.46507">
        <ele>37</ele>
        <time>2023-11-01T23:16:51Z</time>
      </trkpt>
      <trkpt lat="47.34847" lon="-2.46475">
        <ele>37</ele>
        <time>2023-11-01T23:17:20Z</time>
      </trkpt>
      <trkpt lat="47.34844" lon="-2.46446">
        <ele>38</ele>
        <time>2023-11-01T23:17:47Z</time>
      </trkpt>
      <trkpt lat="47.34839" lon="-2.46394">
        <ele>38</ele>
        <time>2023-11-01T23:18:34Z</time>
      </trkpt>
      <trkpt lat="47.34833" lon="-2.4635">
        <ele>38</ele>
        <time>2023-11-01T23:19:15Z</time>
      </trkpt>
      <trkpt lat="47.34826" lon="-2.46303">
        <ele>38</ele>
        <time>2023-11-01T23:19:58Z</time>
      </trkpt>
      <trkpt lat="47.34824" lon="-2.46287">
        <ele>38</ele>
        <time>2023-11-01T23:20:13Z</time>
      </trkpt>
      <trkpt lat="47.34824" lon="-2.46275">
        <ele>39</ele>
        <time>2023-11-01T23:20:24Z</time>
      </trkpt>
      <trkpt lat="47.34824" lon="-2.4627">
        <ele>39</ele>
        <time>2023-11-01T23:20:28Z</time>
      </trkpt>
      <trkpt lat="47.34823" lon="-2.46262">
        <ele>39</ele>
        <time>2023-11-01T23:20:36Z</time>
      </trkpt>
      <trkpt lat="47.34818" lon="-2.4625">
        <ele>39</ele>
        <time>2023-11-01T23:20:48Z</time>
      </trkpt>
      <trkpt lat="47.3482" lon="-2.46239">
        <ele>38</ele>
        <time>2023-11-01T23:20:59Z</time>
      </trkpt>
      <trkpt lat="47.34819" lon="-2.46217">
        <ele>38</ele>
        <time>2023-11-01T23:21:19Z</time>
      </trkpt>
      <trkpt lat="47.34815" lon="-2.46152">
        <ele>37</ele>
        <time>2023-11-01T23:22:18Z</time>
      </trkpt>
      <trkpt lat="47.34814" lon="-2.46117">
        <ele>37</ele>
        <time>2023-11-01T23:22:49Z</time>
      </trkpt>
      <trkpt lat="47.34812" lon="-2.46088">
        <ele>36</ele>
        <time>2023-11-01T23:23:16Z</time>
      </trkpt>
      <trkpt lat="47.34806" lon="-2.46044">
        <ele>37</ele>
        <time>2023-11-01T23:23:56Z</time>
      </trkpt>
      <trkpt lat="47.34795" lon="-2.4596">
        <ele>39</ele>
        <time>2023-11-01T23:25:14Z</time>
      </trkpt>
      <trkpt lat="47.3479" lon="-2.45906">
        <ele>40</ele>
        <time>2023-11-01T23:26:03Z</time>
      </trkpt>
      <trkpt lat="47.34789" lon="-2.45888">
        <ele>41</ele>
        <time>2023-11-01T23:26:19Z</time>
      </trkpt>
      <trkpt lat="47.3479" lon="-2.45879">
        <ele>41</ele>
        <time>2023-11-01T23:26:28Z</time>
      </trkpt>
      <trkpt lat="47.34787" lon="-2.45875">
        <ele>41</ele>
        <time>2023-11-01T23:26:33Z</time>
      </trkpt>
      <trkpt lat="47.34784" lon="-2.45866">
        <ele>42</ele>
        <time>2023-11-01T23:26:42Z</time>
      </trkpt>
      <trkpt lat="47.34782" lon="-2.45857">
        <ele>42</ele>
        <time>2023-11-01T23:26:51Z</time>
      </trkpt>
      <trkpt lat="47.3478" lon="-2.45823">
        <ele>42</ele>
        <time>2023-11-01T23:27:21Z</time>
      </trkpt>
      <trkpt lat="47.34776" lon="-2.45793">
        <ele>42</ele>
        <time>2023-11-01T23:27:49Z</time>
      </trkpt>
      <trkpt lat="47.34768" lon="-2.45756">
        <ele>43</ele>
        <time>2023-11-01T23:28:24Z</time>
      </trkpt>
      <trkpt lat="47.34756" lon="-2.45718">
        <ele>43</ele>
        <time>2023-11-01T23:29:02Z</time>
      </trkpt>
      <trkpt lat="47.34738" lon="-2.45673">
        <ele>43</ele>
        <time>2023-11-01T23:29:49Z</time>
      </trkpt>
      <trkpt lat="47.34711" lon="-2.4562">
        <ele>43</ele>
        <time>2023-11-01T23:30:49Z</time>
      </trkpt>
      <trkpt lat="47.34692" lon="-2.4558">
        <ele>44</ele>
        <time>2023-11-01T23:31:33Z</time>
      </trkpt>
      <trkpt lat="47.3464" lon="-2.45435">
        <ele>42</ele>
        <time>2023-11-01T23:34:02Z</time>
      </trkpt>
      <trkpt lat="47.34621" lon="-2.45384">
        <ele>41</ele>
        <time>2023-11-01T23:34:54Z</time>
      </trkpt>
      <trkpt lat="47.34593" lon="-2.45316">
        <ele>43</ele>
        <time>2023-11-01T23:36:06Z</time>
      </trkpt>
      <trkpt lat="47.34576" lon="-2.45283">
        <ele>43</ele>
        <time>2023-11-01T23:36:44Z</time>
      </trkpt>
      <trkpt lat="47.34526" lon="-2.45209">
        <ele>42</ele>
        <time>2023-11-01T23:38:18Z</time>
      </trkpt>
      <trkpt lat="47.34512" lon="-2.45187">
        <ele>42</ele>
        <time>2023-11-01T23:38:46Z</time>
      </trkpt>
      <trkpt lat="47.34467" lon="-2.45134">
        <ele>43</ele>
        <time>2023-11-01T23:40:02Z</time>
      </trkpt>
      <trkpt lat="47.34464" lon="-2.4513">
        <ele>43</ele>
        <time>2023-11-01T23:40:08Z</time>
      </trkpt>
      <trkpt lat="47.34459" lon="-2.45122">
        <ele>44</ele>
        <time>2023-11-01T23:40:18Z</time>
      </trkpt>
      <trkpt lat="47.34447" lon="-2.45095">
        <ele>44</ele>
        <time>2023-11-01T23:40:47Z</time>
      </trkpt>
      <trkpt lat="47.34404" lon="-2.44997">
        <ele>46</ele>
        <time>2023-11-01T23:42:32Z</time>
      </trkpt>
      <trkpt lat="47.34397" lon="-2.44982">
        <ele>46</ele>
        <time>2023-11-01T23:42:49Z</time>
      </trkpt>
      <trkpt lat="47.34384" lon="-2.44997">
        <ele>47</ele>
        <time>2023-11-01T23:43:11Z</time>
      </trkpt>
      <trkpt lat="47.34359" lon="-2.45025">
        <ele>47</ele>
        <time>2023-11-01T23:43:53Z</time>
      </trkpt>
      <trkpt lat="47.34311" lon="-2.45078">
        <ele>46</ele>
        <time>2023-11-01T23:45:13Z</time>
      </trkpt>
      <trkpt lat="47.34298" lon="-2.45091">
        <ele>46</ele>
        <time>2023-11-01T23:45:34Z</time>
      </trkpt>
      <trkpt lat="47.34136" lon="-2.4521">
        <ele>47</ele>
        <time>2023-11-01T23:49:35Z</time>
      </trkpt>
      <trkpt lat="47.34063" lon="-2.45265">
        <ele>47</ele>
        <time>2023-11-01T23:51:25Z</time>
      </trkpt>
      <trkpt lat="47.3405" lon="-2.45225">
        <ele>47</ele>
        <time>2023-11-01T23:52:05Z</time>
      </trkpt>
      <trkpt lat="47.3404" lon="-2.45186">
        <ele>47</ele>
        <time>2023-11-01T23:52:42Z</time>
      </trkpt>
      <trkpt lat="47.34033" lon="-2.45153">
        <ele>46</ele>
        <time>2023-11-01T23:53:14Z</time>
      </trkpt>
      <trkpt lat="47.34015" lon="-2.45102">
        <ele>46</ele>
        <time>2023-11-01T23:54:06Z</time>
      </trkpt>
      <trkpt lat="47.34002" lon="-2.45059">
        <ele>46</ele>
        <time>2023-11-01T23:54:48Z</time>
      </trkpt>
      <trkpt lat="47.33988" lon="-2.4499">
        <ele>46</ele>
        <time>2023-11-01T23:55:53Z</time>
      </trkpt>
      <trkpt lat="47.33984" lon="-2.44971">
        <ele>45</ele>
        <time>2023-11-01T23:56:11Z</time>
      </trkpt>
      <trkpt lat="47.33985" lon="-2.44948">
        <ele>45</ele>
        <time>2023-11-01T23:56:32Z</time>
      </trkpt>
      <trkpt lat="47.33989" lon="-2.4492">
        <ele>45</ele>
        <time>2023-11-01T23:56:58Z</time>
      </trkpt>
      <trkpt lat="47.33993" lon="-2.44902">
        <ele>45</ele>
        <time>2023-11-01T23:57:15Z</time>
      </trkpt>
      <trkpt lat="47.33998" lon="-2.44878">
        <ele>44</ele>
        <time>2023-11-01T23:57:38Z</time>
      </trkpt>
      <trkpt lat="47.34033" lon="-2.44765">
        <ele>43</ele>
        <time>2023-11-01T23:59:30Z</time>
      </trkpt>
      <trkpt lat="47.34044" lon="-2.447">
        <ele>42</ele>
        <time>2023-11-02T00:00:31Z</time>
      </trkpt>
      <trkpt lat="47.3405" lon="-2.44639">
        <ele>42</ele>
        <time>2023-11-02T00:01:27Z</time>
      </trkpt>
      <trkpt lat="47.34052" lon="-2.44582">
        <ele>42</ele>
        <time>2023-11-02T00:02:18Z</time>
      </trkpt>
      <trkpt lat="47.3405" lon="-2.44497">
        <ele>42</ele>
        <time>2023-11-02T00:03:35Z</time>
      </trkpt>
      <trkpt lat="47.34049" lon="-2.44472">
        <ele>42</ele>
        <time>2023-11-02T00:03:58Z</time>
      </trkpt>
      <trkpt lat="47.34048" lon="-2.44465">
        <ele>42</ele>
        <time>2023-11-02T00:04:04Z</time>
      </trkpt>
      <trkpt lat="47.34047" lon="-2.44453">
        <ele>42</ele>
        <time>2023-11-02T00:04:15Z</time>
      </trkpt>
      <trkpt lat="47.34043" lon="-2.44442">
        <ele>42</ele>
        <time>2023-11-02T00:04:27Z</time>
      </trkpt>
      <trkpt lat="47.34038" lon="-2.44434">
        <ele>42</ele>
        <time>2023-11-02T00:04:36Z</time>
      </trkpt>
      <trkpt lat="47.34025" lon="-2.44423">
        <ele>42</ele>
        <time>2023-11-02T00:04:56Z</time>
      </trkpt>
      <trkpt lat="47.34014" lon="-2.44415">
        <ele>42</ele>
        <time>2023-11-02T00:05:13Z</time>
      </trkpt>
      <trkpt lat="47.33994" lon="-2.444">
        <ele>42</ele>
        <time>2023-11-02T00:05:43Z</time>
      </trkpt>
      <trkpt lat="47.33987" lon="-2.44396">
        <ele>42</ele>
        <time>2023-11-02T00:05:53Z</time>
      </trkpt>
      <trkpt lat="47.33964" lon="-2.44382">
        <ele>43</ele>
        <time>2023-11-02T00:06:26Z</time>
      </trkpt>
      <trkpt lat="47.33926" lon="-2.44359">
        <ele>43</ele>
        <time>2023-11-02T00:07:21Z</time>
      </trkpt>
      <trkpt lat="47.33902" lon="-2.44352">
        <ele>44</ele>
        <time>2023-11-02T00:07:53Z</time>
      </trkpt>
      <trkpt lat="47.33895" lon="-2.4435">
        <ele>44</ele>
        <time>2023-11-02T00:08:03Z</time>
      </trkpt>
      <trkpt lat="47.33867" lon="-2.44348">
        <ele>45</ele>
        <time>2023-11-02T00:08:40Z</time>
      </trkpt>
      <trkpt lat="47.33857" lon="-2.44347">
        <ele>46</ele>
        <time>2023-11-02T00:08:54Z</time>
      </trkpt>
      <trkpt lat="47.33801" lon="-2.44342">
        <ele>47</ele>
        <time>2023-11-02T00:10:08Z</time>
      </trkpt>
      <trkpt lat="47.33759" lon="-2.4433">
        <ele>46</ele>
        <time>2023-11-02T00:11:06Z</time>
      </trkpt>
      <trkpt lat="47.33747" lon="-2.44318">
        <ele>47</ele>
        <time>2023-11-02T00:11:25Z</time>
      </trkpt>
      <trkpt lat="47.33724" lon="-2.44298">
        <ele>48</ele>
        <time>2023-11-02T00:12:01Z</time>
      </trkpt>
      <trkpt lat="47.33679" lon="-2.44254">
        <ele>49</ele>
        <time>2023-11-02T00:13:13Z</time>
      </trkpt>
      <trkpt lat="47.33659" lon="-2.44234">
        <ele>49</ele>
        <time>2023-11-02T00:13:45Z</time>
      </trkpt>
      <trkpt lat="47.33622" lon="-2.44203">
        <ele>48</ele>
        <time>2023-11-02T00:14:42Z</time>
      </trkpt>
      <trkpt lat="47.33528" lon="-2.4413">
        <ele>48</ele>
        <time>2023-11-02T00:17:03Z</time>
      </trkpt>
      <trkpt lat="47.33472" lon="-2.4408">
        <ele>47</ele>
        <time>2023-11-02T00:18:31Z</time>
      </trkpt>
      <trkpt lat="47.33428" lon="-2.4404">
        <ele>48</ele>
        <time>2023-11-02T00:19:40Z</time>
      </trkpt>
      <trkpt lat="47.33392" lon="-2.44004">
        <ele>48</ele>
        <time>2023-11-02T00:20:38Z</time>
      </trkpt>
      <trkpt lat="47.33343" lon="-2.43948">
        <ele>48</ele>
        <time>2023-11-02T00:22:00Z</time>
      </trkpt>
      <trkpt lat="47.33331" lon="-2.43937">
        <ele>48</ele>
        <time>2023-11-02T00:22:19Z</time>
      </trkpt>
      <trkpt lat="47.33297" lon="-2.43917">
        <ele>48</ele>
        <time>2023-11-02T00:23:08Z</time>
      </trkpt>
      <trkpt lat="47.33281" lon="-2.43908">
        <ele>48</ele>
        <time>2023-11-02T00:23:31Z</time>
      </trkpt>
      <trkpt lat="47.33273" lon="-2.43905">
        <ele>48</ele>
        <time>2023-11-02T00:23:42Z</time>
      </trkpt>
      <trkpt lat="47.33244" lon="-2.43897">
        <ele>48</ele>
        <time>2023-11-02T00:24:21Z</time>
      </trkpt>
      <trkpt lat="47.33234" lon="-2.43894">
        <ele>48</ele>
        <time>2023-11-02T00:24:35Z</time>
      </trkpt>
      <trkpt lat="47.33227" lon="-2.43889">
        <ele>47</ele>
        <time>2023-11-02T00:24:45Z</time>
      </trkpt>
      <trkpt lat="47.33211" lon="-2.43873">
        <ele>47</ele>
        <time>2023-11-02T00:25:11Z</time>
      </trkpt>
      <trkpt lat="47.332" lon="-2.43851">
        <ele>47</ele>
        <time>2023-11-02T00:25:36Z</time>
      </trkpt>
      <trkpt lat="47.33194" lon="-2.43837">
        <ele>47</ele>
        <time>2023-11-02T00:25:51Z</time>
      </trkpt>
      <trkpt lat="47.33185" lon="-2.43809">
        <ele>47</ele>
        <time>2023-11-02T00:26:19Z</time>
      </trkpt>
      <trkpt lat="47.33019" lon="-2.43872">
        <ele>47</ele>
        <time>2023-11-02T00:30:08Z</time>
      </trkpt>
      <trkpt lat="47.33004" lon="-2.43879">
        <ele>47</ele>
        <time>2023-11-02T00:30:29Z</time>
      </trkpt>
      <trkpt lat="47.32987" lon="-2.43888">
        <ele>47</ele>
        <time>2023-11-02T00:30:53Z</time>
      </trkpt>
      <trkpt lat="47.32983" lon="-2.4389">
        <ele>47</ele>
        <time>2023-11-02T00:30:58Z</time>
      </trkpt>
      <trkpt lat="47.32937" lon="-2.43929">
        <ele>47</ele>
        <time>2023-11-02T00:32:09Z</time>
      </trkpt>
    </trkseg>
  </trk>
  <trk>
    <name><![CDATA[Guerande_CoteauxGR3_22.2km-18167601]]></name>
    <extensions>
      <line xmlns="http://www.topografix.com/GPX/gpx_style/0/2">
        <color>800080</color>
        <width>4</width>
      </line>
    </extensions>
    <trkseg>
      <trkpt lat="47.33126" lon="-2.42617">
        <ele>46</ele>
        <time>2024-01-09T12:29:25Z</time>
      </trkpt>
      <trkpt lat="47.33132" lon="-2.42648">
        <ele>46</ele>
        <time>2024-01-09T12:29:54Z</time>
      </trkpt>
      <trkpt lat="47.33126" lon="-2.42679">
        <ele>47</ele>
        <time>2024-01-09T12:30:23Z</time>
      </trkpt>
      <trkpt lat="47.33068" lon="-2.42765">
        <ele>49</ele>
        <time>2024-01-09T12:32:13Z</time>
      </trkpt>
      <trkpt lat="47.33058" lon="-2.42789">
        <ele>49</ele>
        <time>2024-01-09T12:32:39Z</time>
      </trkpt>
      <trkpt lat="47.33025" lon="-2.42834">
        <ele>49</ele>
        <time>2024-01-09T12:33:38Z</time>
      </trkpt>
      <trkpt lat="47.33018" lon="-2.42849">
        <ele>49</ele>
        <time>2024-01-09T12:33:55Z</time>
      </trkpt>
      <trkpt lat="47.3298" lon="-2.42853">
        <ele>50</ele>
        <time>2024-01-09T12:34:46Z</time>
      </trkpt>
      <trkpt lat="47.32968" lon="-2.42883">
        <ele>50</ele>
        <time>2024-01-09T12:35:17Z</time>
      </trkpt>
      <trkpt lat="47.32965" lon="-2.42908">
        <ele>50</ele>
        <time>2024-01-09T12:35:40Z</time>
      </trkpt>
      <trkpt lat="47.32954" lon="-2.42935">
        <ele>50</ele>
        <time>2024-01-09T12:36:09Z</time>
      </trkpt>
      <trkpt lat="47.3296" lon="-2.4296">
        <ele>50</ele>
        <time>2024-01-09T12:36:33Z</time>
      </trkpt>
      <trkpt lat="47.32966" lon="-2.43082">
        <ele>48</ele>
        <time>2024-01-09T12:38:23Z</time>
      </trkpt>
      <trkpt lat="47.3296" lon="-2.43109">
        <ele>48</ele>
        <time>2024-01-09T12:38:49Z</time>
      </trkpt>
      <trkpt lat="47.3295" lon="-2.43132">
        <ele>47</ele>
        <time>2024-01-09T12:39:14Z</time>
      </trkpt>
      <trkpt lat="47.32934" lon="-2.43154">
        <ele>47</ele>
        <time>2024-01-09T12:39:43Z</time>
      </trkpt>
      <trkpt lat="47.32916" lon="-2.43172">
        <ele>47</ele>
        <time>2024-01-09T12:40:12Z</time>
      </trkpt>
      <trkpt lat="47.32879" lon="-2.43194">
        <ele>48</ele>
        <time>2024-01-09T12:41:05Z</time>
      </trkpt>
      <trkpt lat="47.32844" lon="-2.43231">
        <ele>48</ele>
        <time>2024-01-09T12:42:03Z</time>
      </trkpt>
      <trkpt lat="47.3285" lon="-2.43257">
        <ele>47</ele>
        <time>2024-01-09T12:42:28Z</time>
      </trkpt>
      <trkpt lat="47.3287" lon="-2.43529">
        <ele>46</ele>
        <time>2024-01-09T12:46:35Z</time>
      </trkpt>
      <trkpt lat="47.32905" lon="-2.4376">
        <ele>47</ele>
        <time>2024-01-09T12:50:09Z</time>
      </trkpt>
      <trkpt lat="47.32895" lon="-2.43785">
        <ele>47</ele>
        <time>2024-01-09T12:50:35Z</time>
      </trkpt>
      <trkpt lat="47.32908" lon="-2.43804">
        <ele>46</ele>
        <time>2024-01-09T12:51:00Z</time>
      </trkpt>
      <trkpt lat="47.32919" lon="-2.43832">
        <ele>46</ele>
        <time>2024-01-09T12:51:29Z</time>
      </trkpt>
      <trkpt lat="47.3293" lon="-2.43893">
        <ele>47</ele>
        <time>2024-01-09T12:52:26Z</time>
      </trkpt>
      <trkpt lat="47.32941" lon="-2.43914">
        <ele>47</ele>
        <time>2024-01-09T12:52:50Z</time>
      </trkpt>
      <trkpt lat="47.32998" lon="-2.43877">
        <ele>47</ele>
        <time>2024-01-09T12:54:13Z</time>
      </trkpt>
      <trkpt lat="47.33019" lon="-2.43866">
        <ele>47</ele>
        <time>2024-01-09T12:54:43Z</time>
      </trkpt>
      <trkpt lat="47.33169" lon="-2.43812">
        <ele>47</ele>
        <time>2024-01-09T12:58:09Z</time>
      </trkpt>
      <trkpt lat="47.33183" lon="-2.4379">
        <ele>48</ele>
        <time>2024-01-09T12:58:36Z</time>
      </trkpt>
      <trkpt lat="47.33283" lon="-2.4376">
        <ele>47</ele>
        <time>2024-01-09T13:00:52Z</time>
      </trkpt>
      <trkpt lat="47.33323" lon="-2.43755">
        <ele>46</ele>
        <time>2024-01-09T13:01:46Z</time>
      </trkpt>
      <trkpt lat="47.33416" lon="-2.43916">
        <ele>47</ele>
        <time>2024-01-09T13:04:57Z</time>
      </trkpt>
      <trkpt lat="47.33501" lon="-2.44054">
        <ele>47</ele>
        <time>2024-01-09T13:07:46Z</time>
      </trkpt>
      <trkpt lat="47.33505" lon="-2.44085">
        <ele>47</ele>
        <time>2024-01-09T13:08:15Z</time>
      </trkpt>
      <trkpt lat="47.33512" lon="-2.44115">
        <ele>47</ele>
        <time>2024-01-09T13:08:43Z</time>
      </trkpt>
      <trkpt lat="47.33647" lon="-2.4422">
        <ele>49</ele>
        <time>2024-01-09T13:12:07Z</time>
      </trkpt>
      <trkpt lat="47.33683" lon="-2.44254">
        <ele>49</ele>
        <time>2024-01-09T13:13:04Z</time>
      </trkpt>
      <trkpt lat="47.33734" lon="-2.44309">
        <ele>47</ele>
        <time>2024-01-09T13:14:28Z</time>
      </trkpt>
      <trkpt lat="47.33754" lon="-2.44322">
        <ele>46</ele>
        <time>2024-01-09T13:14:57Z</time>
      </trkpt>
      <trkpt lat="47.33774" lon="-2.44334">
        <ele>46</ele>
        <time>2024-01-09T13:15:26Z</time>
      </trkpt>
      <trkpt lat="47.33795" lon="-2.4434">
        <ele>47</ele>
        <time>2024-01-09T13:15:55Z</time>
      </trkpt>
      <trkpt lat="47.3384" lon="-2.44345">
        <ele>46</ele>
        <time>2024-01-09T13:16:55Z</time>
      </trkpt>
      <trkpt lat="47.33883" lon="-2.44355">
        <ele>45</ele>
        <time>2024-01-09T13:17:53Z</time>
      </trkpt>
      <trkpt lat="47.33905" lon="-2.44351">
        <ele>44</ele>
        <time>2024-01-09T13:18:23Z</time>
      </trkpt>
      <trkpt lat="47.33923" lon="-2.44357">
        <ele>43</ele>
        <time>2024-01-09T13:18:47Z</time>
      </trkpt>
      <trkpt lat="47.34002" lon="-2.44404">
        <ele>42</ele>
        <time>2024-01-09T13:20:41Z</time>
      </trkpt>
      <trkpt lat="47.34021" lon="-2.44418">
        <ele>42</ele>
        <time>2024-01-09T13:21:09Z</time>
      </trkpt>
      <trkpt lat="47.34038" lon="-2.44437">
        <ele>42</ele>
        <time>2024-01-09T13:21:38Z</time>
      </trkpt>
      <trkpt lat="47.34049" lon="-2.44465">
        <ele>42</ele>
        <time>2024-01-09T13:22:07Z</time>
      </trkpt>
      <trkpt lat="47.34051" lon="-2.44523">
        <ele>42</ele>
        <time>2024-01-09T13:23:00Z</time>
      </trkpt>
      <trkpt lat="47.34056" lon="-2.44578">
        <ele>42</ele>
        <time>2024-01-09T13:23:50Z</time>
      </trkpt>
      <trkpt lat="47.34051" lon="-2.44646">
        <ele>42</ele>
        <time>2024-01-09T13:24:52Z</time>
      </trkpt>
      <trkpt lat="47.34041" lon="-2.44733">
        <ele>42</ele>
        <time>2024-01-09T13:26:11Z</time>
      </trkpt>
      <trkpt lat="47.34027" lon="-2.44792">
        <ele>43</ele>
        <time>2024-01-09T13:27:08Z</time>
      </trkpt>
      <trkpt lat="47.34001" lon="-2.44872">
        <ele>44</ele>
        <time>2024-01-09T13:28:28Z</time>
      </trkpt>
      <trkpt lat="47.33988" lon="-2.44938">
        <ele>45</ele>
        <time>2024-01-09T13:29:30Z</time>
      </trkpt>
      <trkpt lat="47.33987" lon="-2.44969">
        <ele>45</ele>
        <time>2024-01-09T13:29:58Z</time>
      </trkpt>
      <trkpt lat="47.33993" lon="-2.44999">
        <ele>46</ele>
        <time>2024-01-09T13:30:27Z</time>
      </trkpt>
      <trkpt lat="47.33996" lon="-2.45031">
        <ele>46</ele>
        <time>2024-01-09T13:30:56Z</time>
      </trkpt>
      <trkpt lat="47.34011" lon="-2.45089">
        <ele>46</ele>
        <time>2024-01-09T13:31:52Z</time>
      </trkpt>
      <trkpt lat="47.3403" lon="-2.45142">
        <ele>46</ele>
        <time>2024-01-09T13:32:46Z</time>
      </trkpt>
      <trkpt lat="47.34051" lon="-2.45227">
        <ele>47</ele>
        <time>2024-01-09T13:34:08Z</time>
      </trkpt>
      <trkpt lat="47.34061" lon="-2.45252">
        <ele>47</ele>
        <time>2024-01-09T13:34:34Z</time>
      </trkpt>
      <trkpt lat="47.34082" lon="-2.45246">
        <ele>47</ele>
        <time>2024-01-09T13:35:03Z</time>
      </trkpt>
      <trkpt lat="47.34272" lon="-2.45104">
        <ele>45</ele>
        <time>2024-01-09T13:39:47Z</time>
      </trkpt>
      <trkpt lat="47.34309" lon="-2.45074">
        <ele>46</ele>
        <time>2024-01-09T13:40:43Z</time>
      </trkpt>
      <trkpt lat="47.34326" lon="-2.45057">
        <ele>47</ele>
        <time>2024-01-09T13:41:11Z</time>
      </trkpt>
      <trkpt lat="47.34376" lon="-2.44999">
        <ele>47</ele>
        <time>2024-01-09T13:42:36Z</time>
      </trkpt>
      <trkpt lat="47.34398" lon="-2.44993">
        <ele>46</ele>
        <time>2024-01-09T13:43:05Z</time>
      </trkpt>
      <trkpt lat="47.34413" lon="-2.45015">
        <ele>46</ele>
        <time>2024-01-09T13:43:34Z</time>
      </trkpt>
      <trkpt lat="47.34426" lon="-2.4504">
        <ele>45</ele>
        <time>2024-01-09T13:44:02Z</time>
      </trkpt>
      <trkpt lat="47.3446" lon="-2.45121">
        <ele>44</ele>
        <time>2024-01-09T13:45:28Z</time>
      </trkpt>
      <trkpt lat="47.34509" lon="-2.45181">
        <ele>42</ele>
        <time>2024-01-09T13:46:53Z</time>
      </trkpt>
      <trkpt lat="47.34584" lon="-2.45293">
        <ele>43</ele>
        <time>2024-01-09T13:49:16Z</time>
      </trkpt>
      <trkpt lat="47.34638" lon="-2.45422">
        <ele>41</ele>
        <time>2024-01-09T13:51:33Z</time>
      </trkpt>
      <trkpt lat="47.34695" lon="-2.45582">
        <ele>44</ele>
        <time>2024-01-09T13:54:16Z</time>
      </trkpt>
      <trkpt lat="47.34718" lon="-2.45631">
        <ele>43</ele>
        <time>2024-01-09T13:55:10Z</time>
      </trkpt>
      <trkpt lat="47.34732" lon="-2.45655">
        <ele>43</ele>
        <time>2024-01-09T13:55:39Z</time>
      </trkpt>
      <trkpt lat="47.34765" lon="-2.45736">
        <ele>43</ele>
        <time>2024-01-09T13:57:04Z</time>
      </trkpt>
      <trkpt lat="47.34773" lon="-2.45766">
        <ele>43</ele>
        <time>2024-01-09T13:57:33Z</time>
      </trkpt>
      <trkpt lat="47.34783" lon="-2.45824">
        <ele>42</ele>
        <time>2024-01-09T13:58:28Z</time>
      </trkpt>
      <trkpt lat="47.34791" lon="-2.45884">
        <ele>41</ele>
        <time>2024-01-09T13:59:23Z</time>
      </trkpt>
      <trkpt lat="47.34796" lon="-2.45946">
        <ele>39</ele>
        <time>2024-01-09T14:00:19Z</time>
      </trkpt>
      <trkpt lat="47.3481" lon="-2.46033">
        <ele>37</ele>
        <time>2024-01-09T14:01:40Z</time>
      </trkpt>
      <trkpt lat="47.34816" lon="-2.46097">
        <ele>36</ele>
        <time>2024-01-09T14:02:39Z</time>
      </trkpt>
      <trkpt lat="47.34815" lon="-2.46125">
        <ele>37</ele>
        <time>2024-01-09T14:03:04Z</time>
      </trkpt>
      <trkpt lat="47.34819" lon="-2.46153">
        <ele>37</ele>
        <time>2024-01-09T14:03:30Z</time>
      </trkpt>
      <trkpt lat="47.34821" lon="-2.46213">
        <ele>38</ele>
        <time>2024-01-09T14:04:24Z</time>
      </trkpt>
      <trkpt lat="47.34819" lon="-2.46245">
        <ele>39</ele>
        <time>2024-01-09T14:04:53Z</time>
      </trkpt>
      <trkpt lat="47.34803" lon="-2.46259">
        <ele>38</ele>
        <time>2024-01-09T14:05:18Z</time>
      </trkpt>
      <trkpt lat="47.34783" lon="-2.46266">
        <ele>38</ele>
        <time>2024-01-09T14:05:45Z</time>
      </trkpt>
      <trkpt lat="47.34763" lon="-2.46267">
        <ele>37</ele>
        <time>2024-01-09T14:06:12Z</time>
      </trkpt>
      <trkpt lat="47.34724" lon="-2.46278">
        <ele>37</ele>
        <time>2024-01-09T14:07:05Z</time>
      </trkpt>
      <trkpt lat="47.34605" lon="-2.46325">
        <ele>39</ele>
        <time>2024-01-09T14:09:49Z</time>
      </trkpt>
      <trkpt lat="47.34586" lon="-2.46334">
        <ele>39</ele>
        <time>2024-01-09T14:10:16Z</time>
      </trkpt>
      <trkpt lat="47.34568" lon="-2.46346">
        <ele>39</ele>
        <time>2024-01-09T14:10:42Z</time>
      </trkpt>
      <trkpt lat="47.34537" lon="-2.4638">
        <ele>40</ele>
        <time>2024-01-09T14:11:34Z</time>
      </trkpt>
      <trkpt lat="47.34518" lon="-2.46393">
        <ele>41</ele>
        <time>2024-01-09T14:12:02Z</time>
      </trkpt>
      <trkpt lat="47.34401" lon="-2.4645">
        <ele>41</ele>
        <time>2024-01-09T14:14:46Z</time>
      </trkpt>
      <trkpt lat="47.34343" lon="-2.46472">
        <ele>42</ele>
        <time>2024-01-09T14:16:06Z</time>
      </trkpt>
      <trkpt lat="47.34323" lon="-2.46477">
        <ele>42</ele>
        <time>2024-01-09T14:16:33Z</time>
      </trkpt>
      <trkpt lat="47.3416" lon="-2.46493">
        <ele>42</ele>
        <time>2024-01-09T14:20:11Z</time>
      </trkpt>
      <trkpt lat="47.34097" lon="-2.46492">
        <ele>43</ele>
        <time>2024-01-09T14:21:35Z</time>
      </trkpt>
      <trkpt lat="47.34076" lon="-2.46494">
        <ele>43</ele>
        <time>2024-01-09T14:22:03Z</time>
      </trkpt>
      <trkpt lat="47.34058" lon="-2.46504">
        <ele>43</ele>
        <time>2024-01-09T14:22:29Z</time>
      </trkpt>
      <trkpt lat="47.33948" lon="-2.46581">
        <ele>45</ele>
        <time>2024-01-09T14:25:12Z</time>
      </trkpt>
      <trkpt lat="47.33913" lon="-2.46613">
        <ele>45</ele>
        <time>2024-01-09T14:26:07Z</time>
      </trkpt>
      <trkpt lat="47.3388" lon="-2.4665">
        <ele>45</ele>
        <time>2024-01-09T14:27:02Z</time>
      </trkpt>
      <trkpt lat="47.33823" lon="-2.4669">
        <ele>44</ele>
        <time>2024-01-09T14:28:26Z</time>
      </trkpt>
      <trkpt lat="47.33803" lon="-2.46701">
        <ele>44</ele>
        <time>2024-01-09T14:28:55Z</time>
      </trkpt>
      <trkpt lat="47.33783" lon="-2.46703">
        <ele>44</ele>
        <time>2024-01-09T14:29:21Z</time>
      </trkpt>
      <trkpt lat="47.33762" lon="-2.467">
        <ele>45</ele>
        <time>2024-01-09T14:29:49Z</time>
      </trkpt>
      <trkpt lat="47.33742" lon="-2.46692">
        <ele>45</ele>
        <time>2024-01-09T14:30:17Z</time>
      </trkpt>
      <trkpt lat="47.33705" lon="-2.467">
        <ele>44</ele>
        <time>2024-01-09T14:31:07Z</time>
      </trkpt>
      <trkpt lat="47.3363" lon="-2.46743">
        <ele>39</ele>
        <time>2024-01-09T14:32:54Z</time>
      </trkpt>
      <trkpt lat="47.33631" lon="-2.4677">
        <ele>38</ele>
        <time>2024-01-09T14:33:19Z</time>
      </trkpt>
      <trkpt lat="47.33658" lon="-2.46811">
        <ele>39</ele>
        <time>2024-01-09T14:34:11Z</time>
      </trkpt>
      <trkpt lat="47.33677" lon="-2.46813">
        <ele>40</ele>
        <time>2024-01-09T14:34:36Z</time>
      </trkpt>
      <trkpt lat="47.33693" lon="-2.46833">
        <ele>40</ele>
        <time>2024-01-09T14:35:04Z</time>
      </trkpt>
      <trkpt lat="47.33704" lon="-2.46858">
        <ele>39</ele>
        <time>2024-01-09T14:35:31Z</time>
      </trkpt>
      <trkpt lat="47.3372" lon="-2.46875">
        <ele>39</ele>
        <time>2024-01-09T14:35:57Z</time>
      </trkpt>
      <trkpt lat="47.33735" lon="-2.46896">
        <ele>40</ele>
        <time>2024-01-09T14:36:25Z</time>
      </trkpt>
      <trkpt lat="47.33747" lon="-2.46918">
        <ele>40</ele>
        <time>2024-01-09T14:36:50Z</time>
      </trkpt>
      <trkpt lat="47.33747" lon="-2.4701">
        <ele>36</ele>
        <time>2024-01-09T14:38:14Z</time>
      </trkpt>
      <trkpt lat="47.33757" lon="-2.47097">
        <ele>34</ele>
        <time>2024-01-09T14:39:33Z</time>
      </trkpt>
      <trkpt lat="47.33776" lon="-2.47179">
        <ele>34</ele>
        <time>2024-01-09T14:40:52Z</time>
      </trkpt>
      <trkpt lat="47.33784" lon="-2.47265">
        <ele>33</ele>
        <time>2024-01-09T14:42:10Z</time>
      </trkpt>
      <trkpt lat="47.33784" lon="-2.47321">
        <ele>31</ele>
        <time>2024-01-09T14:43:01Z</time>
      </trkpt>
      <trkpt lat="47.33769" lon="-2.47435">
        <ele>27</ele>
        <time>2024-01-09T14:44:46Z</time>
      </trkpt>
      <trkpt lat="47.33758" lon="-2.47491">
        <ele>26</ele>
        <time>2024-01-09T14:45:39Z</time>
      </trkpt>
      <trkpt lat="47.33744" lon="-2.47546">
        <ele>25</ele>
        <time>2024-01-09T14:46:32Z</time>
      </trkpt>
      <trkpt lat="47.33736" lon="-2.47602">
        <ele>23</ele>
        <time>2024-01-09T14:47:24Z</time>
      </trkpt>
      <trkpt lat="47.33722" lon="-2.47623">
        <ele>22</ele>
        <time>2024-01-09T14:47:50Z</time>
      </trkpt>
      <trkpt lat="47.33703" lon="-2.47622">
        <ele>22</ele>
        <time>2024-01-09T14:48:16Z</time>
      </trkpt>
      <trkpt lat="47.33682" lon="-2.47628">
        <ele>22</ele>
        <time>2024-01-09T14:48:44Z</time>
      </trkpt>
      <trkpt lat="47.33623" lon="-2.47668">
        <ele>21</ele>
        <time>2024-01-09T14:50:11Z</time>
      </trkpt>
      <trkpt lat="47.3359" lon="-2.47698">
        <ele>21</ele>
        <time>2024-01-09T14:51:02Z</time>
      </trkpt>
      <trkpt lat="47.3357" lon="-2.477">
        <ele>20</ele>
        <time>2024-01-09T14:51:29Z</time>
      </trkpt>
      <trkpt lat="47.33535" lon="-2.47677">
        <ele>20</ele>
        <time>2024-01-09T14:52:20Z</time>
      </trkpt>
      <trkpt lat="47.33519" lon="-2.47659">
        <ele>20</ele>
        <time>2024-01-09T14:52:47Z</time>
      </trkpt>
      <trkpt lat="47.33498" lon="-2.4761">
        <ele>22</ele>
        <time>2024-01-09T14:53:40Z</time>
      </trkpt>
      <trkpt lat="47.33481" lon="-2.47598">
        <ele>21</ele>
        <time>2024-01-09T14:54:05Z</time>
      </trkpt>
      <trkpt lat="47.33466" lon="-2.47575">
        <ele>21</ele>
        <time>2024-01-09T14:54:34Z</time>
      </trkpt>
      <trkpt lat="47.33441" lon="-2.47524">
        <ele>20</ele>
        <time>2024-01-09T14:55:31Z</time>
      </trkpt>
      <trkpt lat="47.33432" lon="-2.47499">
        <ele>20</ele>
        <time>2024-01-09T14:55:56Z</time>
      </trkpt>
      <trkpt lat="47.33415" lon="-2.47443">
        <ele>20</ele>
        <time>2024-01-09T14:56:52Z</time>
      </trkpt>
      <trkpt lat="47.33387" lon="-2.47332">
        <ele>21</ele>
        <time>2024-01-09T14:58:39Z</time>
      </trkpt>
      <trkpt lat="47.33378" lon="-2.47243">
        <ele>20</ele>
        <time>2024-01-09T15:00:00Z</time>
      </trkpt>
      <trkpt lat="47.33365" lon="-2.47156">
        <ele>19</ele>
        <time>2024-01-09T15:01:21Z</time>
      </trkpt>
      <trkpt lat="47.3335" lon="-2.47094">
        <ele>17</ele>
        <time>2024-01-09T15:02:20Z</time>
      </trkpt>
      <trkpt lat="47.33342" lon="-2.47038">
        <ele>16</ele>
        <time>2024-01-09T15:03:12Z</time>
      </trkpt>
      <trkpt lat="47.33324" lon="-2.46951">
        <ele>18</ele>
        <time>2024-01-09T15:04:34Z</time>
      </trkpt>
      <trkpt lat="47.3331" lon="-2.46899">
        <ele>21</ele>
        <time>2024-01-09T15:05:25Z</time>
      </trkpt>
      <trkpt lat="47.33306" lon="-2.46872">
        <ele>22</ele>
        <time>2024-01-09T15:05:50Z</time>
      </trkpt>
      <trkpt lat="47.33274" lon="-2.46793">
        <ele>24</ele>
        <time>2024-01-09T15:07:13Z</time>
      </trkpt>
      <trkpt lat="47.33257" lon="-2.46783">
        <ele>23</ele>
        <time>2024-01-09T15:07:38Z</time>
      </trkpt>
      <trkpt lat="47.33234" lon="-2.4679">
        <ele>22</ele>
        <time>2024-01-09T15:08:09Z</time>
      </trkpt>
      <trkpt lat="47.33214" lon="-2.46791">
        <ele>21</ele>
        <time>2024-01-09T15:08:36Z</time>
      </trkpt>
      <trkpt lat="47.33195" lon="-2.46773">
        <ele>21</ele>
        <time>2024-01-09T15:09:06Z</time>
      </trkpt>
      <trkpt lat="47.33151" lon="-2.46716">
        <ele>19</ele>
        <time>2024-01-09T15:10:24Z</time>
      </trkpt>
      <trkpt lat="47.33101" lon="-2.46629">
        <ele>18</ele>
        <time>2024-01-09T15:12:07Z</time>
      </trkpt>
      <trkpt lat="47.33078" lon="-2.46548">
        <ele>18</ele>
        <time>2024-01-09T15:13:26Z</time>
      </trkpt>
      <trkpt lat="47.33064" lon="-2.46529">
        <ele>17</ele>
        <time>2024-01-09T15:13:52Z</time>
      </trkpt>
      <trkpt lat="47.33046" lon="-2.46537">
        <ele>15</ele>
        <time>2024-01-09T15:14:17Z</time>
      </trkpt>
      <trkpt lat="47.33005" lon="-2.46544">
        <ele>11</ele>
        <time>2024-01-09T15:15:12Z</time>
      </trkpt>
      <trkpt lat="47.32967" lon="-2.46562">
        <ele>10</ele>
        <time>2024-01-09T15:16:05Z</time>
      </trkpt>
      <trkpt lat="47.32946" lon="-2.46575">
        <ele>9</ele>
        <time>2024-01-09T15:16:36Z</time>
      </trkpt>
      <trkpt lat="47.32954" lon="-2.46552">
        <ele>10</ele>
        <time>2024-01-09T15:16:59Z</time>
      </trkpt>
      <trkpt lat="47.32958" lon="-2.46518">
        <ele>10</ele>
        <time>2024-01-09T15:17:30Z</time>
      </trkpt>
      <trkpt lat="47.32962" lon="-2.46427">
        <ele>14</ele>
        <time>2024-01-09T15:18:53Z</time>
      </trkpt>
      <trkpt lat="47.32962" lon="-2.46365">
        <ele>19</ele>
        <time>2024-01-09T15:19:49Z</time>
      </trkpt>
      <trkpt lat="47.32949" lon="-2.46308">
        <ele>21</ele>
        <time>2024-01-09T15:20:43Z</time>
      </trkpt>
      <trkpt lat="47.32918" lon="-2.4622">
        <ele>23</ele>
        <time>2024-01-09T15:22:13Z</time>
      </trkpt>
      <trkpt lat="47.32905" lon="-2.46166">
        <ele>24</ele>
        <time>2024-01-09T15:23:05Z</time>
      </trkpt>
      <trkpt lat="47.32887" lon="-2.46153">
        <ele>23</ele>
        <time>2024-01-09T15:23:31Z</time>
      </trkpt>
      <trkpt lat="47.3285" lon="-2.46177">
        <ele>20</ele>
        <time>2024-01-09T15:24:25Z</time>
      </trkpt>
      <trkpt lat="47.32809" lon="-2.46194">
        <ele>16</ele>
        <time>2024-01-09T15:25:22Z</time>
      </trkpt>
      <trkpt lat="47.32776" lon="-2.46162">
        <ele>15</ele>
        <time>2024-01-09T15:26:15Z</time>
      </trkpt>
      <trkpt lat="47.32763" lon="-2.46137">
        <ele>14</ele>
        <time>2024-01-09T15:26:43Z</time>
      </trkpt>
      <trkpt lat="47.32759" lon="-2.46111">
        <ele>14</ele>
        <time>2024-01-09T15:27:08Z</time>
      </trkpt>
      <trkpt lat="47.32746" lon="-2.4609">
        <ele>14</ele>
        <time>2024-01-09T15:27:33Z</time>
      </trkpt>
      <trkpt lat="47.32714" lon="-2.46053">
        <ele>11</ele>
        <time>2024-01-09T15:28:28Z</time>
      </trkpt>
      <trkpt lat="47.32686" lon="-2.46016">
        <ele>10</ele>
        <time>2024-01-09T15:29:18Z</time>
      </trkpt>
      <trkpt lat="47.32678" lon="-2.45985">
        <ele>10</ele>
        <time>2024-01-09T15:29:48Z</time>
      </trkpt>
      <trkpt lat="47.32624" lon="-2.4594">
        <ele>10</ele>
        <time>2024-01-09T15:31:10Z</time>
      </trkpt>
      <trkpt lat="47.32564" lon="-2.45856">
        <ele>9</ele>
        <time>2024-01-09T15:33:01Z</time>
      </trkpt>
      <trkpt lat="47.32554" lon="-2.45831">
        <ele>9</ele>
        <time>2024-01-09T15:33:27Z</time>
      </trkpt>
      <trkpt lat="47.32538" lon="-2.45812">
        <ele>8</ele>
        <time>2024-01-09T15:33:55Z</time>
      </trkpt>
      <trkpt lat="47.32527" lon="-2.45789">
        <ele>8</ele>
        <time>2024-01-09T15:34:20Z</time>
      </trkpt>
      <trkpt lat="47.32513" lon="-2.45771">
        <ele>8</ele>
        <time>2024-01-09T15:34:45Z</time>
      </trkpt>
      <trkpt lat="47.32464" lon="-2.45683">
        <ele>9</ele>
        <time>2024-01-09T15:36:28Z</time>
      </trkpt>
      <trkpt lat="47.32435" lon="-2.45642">
        <ele>9</ele>
        <time>2024-01-09T15:37:21Z</time>
      </trkpt>
      <trkpt lat="47.3241" lon="-2.45596">
        <ele>10</ele>
        <time>2024-01-09T15:38:15Z</time>
      </trkpt>
      <trkpt lat="47.32378" lon="-2.45524">
        <ele>10</ele>
        <time>2024-01-09T15:39:33Z</time>
      </trkpt>
      <trkpt lat="47.32325" lon="-2.45439">
        <ele>10</ele>
        <time>2024-01-09T15:41:17Z</time>
      </trkpt>
      <trkpt lat="47.32316" lon="-2.45415">
        <ele>10</ele>
        <time>2024-01-09T15:41:42Z</time>
      </trkpt>
      <trkpt lat="47.32321" lon="-2.45385">
        <ele>11</ele>
        <time>2024-01-09T15:42:10Z</time>
      </trkpt>
      <trkpt lat="47.32312" lon="-2.45297">
        <ele>12</ele>
        <time>2024-01-09T15:43:30Z</time>
      </trkpt>
      <trkpt lat="47.32295" lon="-2.45243">
        <ele>12</ele>
        <time>2024-01-09T15:44:24Z</time>
      </trkpt>
      <trkpt lat="47.32272" lon="-2.45194">
        <ele>12</ele>
        <time>2024-01-09T15:45:18Z</time>
      </trkpt>
      <trkpt lat="47.32258" lon="-2.45134">
        <ele>13</ele>
        <time>2024-01-09T15:46:15Z</time>
      </trkpt>
      <trkpt lat="47.3224" lon="-2.45086">
        <ele>14</ele>
        <time>2024-01-09T15:47:05Z</time>
      </trkpt>
      <trkpt lat="47.32218" lon="-2.45041">
        <ele>14</ele>
        <time>2024-01-09T15:47:55Z</time>
      </trkpt>
      <trkpt lat="47.32227" lon="-2.45017">
        <ele>16</ele>
        <time>2024-01-09T15:48:20Z</time>
      </trkpt>
      <trkpt lat="47.32303" lon="-2.44927">
        <ele>21</ele>
        <time>2024-01-09T15:50:30Z</time>
      </trkpt>
      <trkpt lat="47.32319" lon="-2.44911">
        <ele>22</ele>
        <time>2024-01-09T15:50:56Z</time>
      </trkpt>
      <trkpt lat="47.32332" lon="-2.44887">
        <ele>23</ele>
        <time>2024-01-09T15:51:24Z</time>
      </trkpt>
      <trkpt lat="47.32349" lon="-2.44868">
        <ele>24</ele>
        <time>2024-01-09T15:51:52Z</time>
      </trkpt>
      <trkpt lat="47.32385" lon="-2.44837">
        <ele>27</ele>
        <time>2024-01-09T15:52:48Z</time>
      </trkpt>
      <trkpt lat="47.32443" lon="-2.44799">
        <ele>32</ele>
        <time>2024-01-09T15:54:13Z</time>
      </trkpt>
      <trkpt lat="47.32461" lon="-2.44782">
        <ele>33</ele>
        <time>2024-01-09T15:54:41Z</time>
      </trkpt>
      <trkpt lat="47.32479" lon="-2.44773">
        <ele>35</ele>
        <time>2024-01-09T15:55:06Z</time>
      </trkpt>
      <trkpt lat="47.32513" lon="-2.44744">
        <ele>37</ele>
        <time>2024-01-09T15:55:59Z</time>
      </trkpt>
      <trkpt lat="47.3253" lon="-2.44734">
        <ele>37</ele>
        <time>2024-01-09T15:56:23Z</time>
      </trkpt>
      <trkpt lat="47.3254" lon="-2.44707">
        <ele>38</ele>
        <time>2024-01-09T15:56:51Z</time>
      </trkpt>
      <trkpt lat="47.32599" lon="-2.44629">
        <ele>40</ele>
        <time>2024-01-09T15:58:37Z</time>
      </trkpt>
      <trkpt lat="47.32635" lon="-2.44567">
        <ele>41</ele>
        <time>2024-01-09T15:59:51Z</time>
      </trkpt>
      <trkpt lat="47.32661" lon="-2.44528">
        <ele>42</ele>
        <time>2024-01-09T16:00:40Z</time>
      </trkpt>
      <trkpt lat="47.32671" lon="-2.44499">
        <ele>42</ele>
        <time>2024-01-09T16:01:10Z</time>
      </trkpt>
      <trkpt lat="47.3269" lon="-2.44484">
        <ele>42</ele>
        <time>2024-01-09T16:01:38Z</time>
      </trkpt>
      <trkpt lat="47.32725" lon="-2.44463">
        <ele>43</ele>
        <time>2024-01-09T16:02:29Z</time>
      </trkpt>
      <trkpt lat="47.32741" lon="-2.44448">
        <ele>43</ele>
        <time>2024-01-09T16:02:54Z</time>
      </trkpt>
      <trkpt lat="47.32756" lon="-2.44396">
        <ele>43</ele>
        <time>2024-01-09T16:03:45Z</time>
      </trkpt>
      <trkpt lat="47.32761" lon="-2.44311">
        <ele>42</ele>
        <time>2024-01-09T16:05:02Z</time>
      </trkpt>
      <trkpt lat="47.32775" lon="-2.44223">
        <ele>43</ele>
        <time>2024-01-09T16:06:24Z</time>
      </trkpt>
      <trkpt lat="47.32775" lon="-2.44134">
        <ele>44</ele>
        <time>2024-01-09T16:07:45Z</time>
      </trkpt>
      <trkpt lat="47.32763" lon="-2.44047">
        <ele>45</ele>
        <time>2024-01-09T16:09:05Z</time>
      </trkpt>
      <trkpt lat="47.32736" lon="-2.43904">
        <ele>43</ele>
        <time>2024-01-09T16:11:19Z</time>
      </trkpt>
      <trkpt lat="47.32734" lon="-2.43876">
        <ele>43</ele>
        <time>2024-01-09T16:11:45Z</time>
      </trkpt>
      <trkpt lat="47.32735" lon="-2.43818">
        <ele>45</ele>
        <time>2024-01-09T16:12:37Z</time>
      </trkpt>
      <trkpt lat="47.32739" lon="-2.4379">
        <ele>45</ele>
        <time>2024-01-09T16:13:03Z</time>
      </trkpt>
      <trkpt lat="47.32741" lon="-2.43698">
        <ele>46</ele>
        <time>2024-01-09T16:14:26Z</time>
      </trkpt>
      <trkpt lat="47.32739" lon="-2.43668">
        <ele>46</ele>
        <time>2024-01-09T16:14:53Z</time>
      </trkpt>
      <trkpt lat="47.32726" lon="-2.43579">
        <ele>46</ele>
        <time>2024-01-09T16:16:16Z</time>
      </trkpt>
      <trkpt lat="47.32723" lon="-2.43483">
        <ele>45</ele>
        <time>2024-01-09T16:17:43Z</time>
      </trkpt>
      <trkpt lat="47.32711" lon="-2.43395">
        <ele>45</ele>
        <time>2024-01-09T16:19:04Z</time>
      </trkpt>
      <trkpt lat="47.32707" lon="-2.43309">
        <ele>45</ele>
        <time>2024-01-09T16:20:22Z</time>
      </trkpt>
      <trkpt lat="47.32714" lon="-2.43283">
        <ele>46</ele>
        <time>2024-01-09T16:20:47Z</time>
      </trkpt>
      <trkpt lat="47.32709" lon="-2.4322">
        <ele>48</ele>
        <time>2024-01-09T16:21:45Z</time>
      </trkpt>
      <trkpt lat="47.32726" lon="-2.43109">
        <ele>52</ele>
        <time>2024-01-09T16:23:28Z</time>
      </trkpt>
      <trkpt lat="47.32728" lon="-2.43079">
        <ele>53</ele>
        <time>2024-01-09T16:23:55Z</time>
      </trkpt>
      <trkpt lat="47.32742" lon="-2.43027">
        <ele>53</ele>
        <time>2024-01-09T16:24:45Z</time>
      </trkpt>
      <trkpt lat="47.32768" lon="-2.42982">
        <ele>54</ele>
        <time>2024-01-09T16:25:39Z</time>
      </trkpt>
      <trkpt lat="47.32778" lon="-2.42952">
        <ele>54</ele>
        <time>2024-01-09T16:26:09Z</time>
      </trkpt>
      <trkpt lat="47.32796" lon="-2.4295">
        <ele>54</ele>
        <time>2024-01-09T16:26:33Z</time>
      </trkpt>
      <trkpt lat="47.32857" lon="-2.42961">
        <ele>53</ele>
        <time>2024-01-09T16:27:55Z</time>
      </trkpt>
      <trkpt lat="47.32878" lon="-2.42949">
        <ele>52</ele>
        <time>2024-01-09T16:28:25Z</time>
      </trkpt>
      <trkpt lat="47.329" lon="-2.4295">
        <ele>51</ele>
        <time>2024-01-09T16:28:55Z</time>
      </trkpt>
      <trkpt lat="47.32918" lon="-2.42939">
        <ele>51</ele>
        <time>2024-01-09T16:29:21Z</time>
      </trkpt>
      <trkpt lat="47.32936" lon="-2.42933">
        <ele>50</ele>
        <time>2024-01-09T16:29:45Z</time>
      </trkpt>
      <trkpt lat="47.32953" lon="-2.42916">
        <ele>50</ele>
        <time>2024-01-09T16:30:13Z</time>
      </trkpt>
      <trkpt lat="47.32961" lon="-2.42892">
        <ele>50</ele>
        <time>2024-01-09T16:30:37Z</time>
      </trkpt>
      <trkpt lat="47.32959" lon="-2.42857">
        <ele>51</ele>
        <time>2024-01-09T16:31:09Z</time>
      </trkpt>
      <trkpt lat="47.32979" lon="-2.42844">
        <ele>50</ele>
        <time>2024-01-09T16:31:38Z</time>
      </trkpt>
      <trkpt lat="47.33" lon="-2.42839">
        <ele>50</ele>
        <time>2024-01-09T16:32:06Z</time>
      </trkpt>
      <trkpt lat="47.33019" lon="-2.42839">
        <ele>49</ele>
        <time>2024-01-09T16:32:32Z</time>
      </trkpt>
      <trkpt lat="47.3303" lon="-2.42817">
        <ele>49</ele>
        <time>2024-01-09T16:32:56Z</time>
      </trkpt>
      <trkpt lat="47.33061" lon="-2.42778">
        <ele>49</ele>
        <time>2024-01-09T16:33:51Z</time>
      </trkpt>
      <trkpt lat="47.33073" lon="-2.42752">
        <ele>49</ele>
        <time>2024-01-09T16:34:19Z</time>
      </trkpt>
      <trkpt lat="47.33091" lon="-2.42723">
        <ele>48</ele>
        <time>2024-01-09T16:34:55Z</time>
      </trkpt>
      <trkpt lat="47.33121" lon="-2.42684">
        <ele>47</ele>
        <time>2024-01-09T16:35:48Z</time>
      </trkpt>
      <trkpt lat="47.33136" lon="-2.4263">
        <ele>46</ele>
        <time>2024-01-09T16:36:41Z</time>
      </trkpt>
      <trkpt lat="47.33122" lon="-2.42612">
        <ele>46</ele>
        <time>2024-01-09T16:37:06Z</time>
      </trkpt>
      <trkpt lat="47.33135" lon="-2.42588">
        <ele>46</ele>
        <time>2024-01-09T16:37:33Z</time>
      </trkpt>
      <trkpt lat="47.33143" lon="-2.42559">
        <ele>46</ele>
        <time>2024-01-09T16:38:02Z</time>
      </trkpt>
      <trkpt lat="47.33175" lon="-2.4253">
        <ele>46</ele>
        <time>2024-01-09T16:38:52Z</time>
      </trkpt>
      <trkpt lat="47.3323" lon="-2.42495">
        <ele>47</ele>
        <time>2024-01-09T16:40:12Z</time>
      </trkpt>
      <trkpt lat="47.33251" lon="-2.4249">
        <ele>47</ele>
        <time>2024-01-09T16:40:40Z</time>
      </trkpt>
      <trkpt lat="47.33268" lon="-2.42495">
        <ele>47</ele>
        <time>2024-01-09T16:41:03Z</time>
      </trkpt>
      <trkpt lat="47.33248" lon="-2.42493">
        <ele>47</ele>
        <time>2024-01-09T16:41:30Z</time>
      </trkpt>
      <trkpt lat="47.33207" lon="-2.4251">
        <ele>46</ele>
        <time>2024-01-09T16:42:27Z</time>
      </trkpt>
      <trkpt lat="47.33188" lon="-2.42523">
        <ele>46</ele>
        <time>2024-01-09T16:42:55Z</time>
      </trkpt>
      <trkpt lat="47.3315" lon="-2.4256">
        <ele>46</ele>
        <time>2024-01-09T16:43:56Z</time>
      </trkpt>
      <trkpt lat="47.33136" lon="-2.42584">
        <ele>46</ele>
        <time>2024-01-09T16:44:24Z</time>
      </trkpt>
      <trkpt lat="47.3313" lon="-2.42611">
        <ele>46</ele>
        <time>2024-01-09T16:44:50Z</time>
      </trkpt>
      <trkpt lat="47.3311" lon="-2.42607">
        <ele>47</ele>
        <time>2024-01-09T16:45:17Z</time>
      </trkpt>
      <trkpt lat="47.33097" lon="-2.42584">
        <ele>47</ele>
        <time>2024-01-09T16:45:44Z</time>
      </trkpt>
      <trkpt lat="47.33082" lon="-2.42528">
        <ele>48</ele>
        <time>2024-01-09T16:46:38Z</time>
      </trkpt>
      <trkpt lat="47.33068" lon="-2.42507">
        <ele>48</ele>
        <time>2024-01-09T16:47:05Z</time>
      </trkpt>
      <trkpt lat="47.33039" lon="-2.42429">
        <ele>48</ele>
        <time>2024-01-09T16:48:25Z</time>
      </trkpt>
      <trkpt lat="47.33018" lon="-2.42417">
        <ele>48</ele>
        <time>2024-01-09T16:48:56Z</time>
      </trkpt>
      <trkpt lat="47.33001" lon="-2.42404">
        <ele>48</ele>
        <time>2024-01-09T16:49:21Z</time>
      </trkpt>
      <trkpt lat="47.32959" lon="-2.42304">
        <ele>47</ele>
        <time>2024-01-09T16:51:07Z</time>
      </trkpt>
      <trkpt lat="47.32947" lon="-2.42282">
        <ele>47</ele>
        <time>2024-01-09T16:51:33Z</time>
      </trkpt>
      <trkpt lat="47.32917" lon="-2.42207">
        <ele>45</ele>
        <time>2024-01-09T16:52:52Z</time>
      </trkpt>
      <trkpt lat="47.32905" lon="-2.42184">
        <ele>45</ele>
        <time>2024-01-09T16:53:18Z</time>
      </trkpt>
      <trkpt lat="47.32888" lon="-2.4217">
        <ele>45</ele>
        <time>2024-01-09T16:53:44Z</time>
      </trkpt>
      <trkpt lat="47.32826" lon="-2.42008">
        <ele>43</ele>
        <time>2024-01-09T16:56:32Z</time>
      </trkpt>
      <trkpt lat="47.32809" lon="-2.41995">
        <ele>44</ele>
        <time>2024-01-09T16:56:58Z</time>
      </trkpt>
      <trkpt lat="47.32798" lon="-2.41942">
        <ele>45</ele>
        <time>2024-01-09T16:57:48Z</time>
      </trkpt>
      <trkpt lat="47.32785" lon="-2.41918">
        <ele>46</ele>
        <time>2024-01-09T16:58:16Z</time>
      </trkpt>
      <trkpt lat="47.32755" lon="-2.41838">
        <ele>48</ele>
        <time>2024-01-09T16:59:38Z</time>
      </trkpt>
      <trkpt lat="47.32729" lon="-2.41788">
        <ele>48</ele>
        <time>2024-01-09T17:00:35Z</time>
      </trkpt>
      <trkpt lat="47.32713" lon="-2.41768">
        <ele>48</ele>
        <time>2024-01-09T17:01:03Z</time>
      </trkpt>
      <trkpt lat="47.32709" lon="-2.41741">
        <ele>48</ele>
        <time>2024-01-09T17:01:28Z</time>
      </trkpt>
      <trkpt lat="47.32717" lon="-2.41649">
        <ele>46</ele>
        <time>2024-01-09T17:02:52Z</time>
      </trkpt>
      <trkpt lat="47.32717" lon="-2.4162">
        <ele>46</ele>
        <time>2024-01-09T17:03:19Z</time>
      </trkpt>
      <trkpt lat="47.32708" lon="-2.41595">
        <ele>47</ele>
        <time>2024-01-09T17:03:44Z</time>
      </trkpt>
      <trkpt lat="47.32703" lon="-2.41566">
        <ele>47</ele>
        <time>2024-01-09T17:04:11Z</time>
      </trkpt>
      <trkpt lat="47.3272" lon="-2.41547">
        <ele>47</ele>
        <time>2024-01-09T17:04:40Z</time>
      </trkpt>
      <trkpt lat="47.32735" lon="-2.41522">
        <ele>47</ele>
        <time>2024-01-09T17:05:10Z</time>
      </trkpt>
      <trkpt lat="47.32741" lon="-2.41493">
        <ele>47</ele>
        <time>2024-01-09T17:05:37Z</time>
      </trkpt>
      <trkpt lat="47.32744" lon="-2.41462">
        <ele>47</ele>
        <time>2024-01-09T17:06:06Z</time>
      </trkpt>
      <trkpt lat="47.32743" lon="-2.41431">
        <ele>47</ele>
        <time>2024-01-09T17:06:34Z</time>
      </trkpt>
      <trkpt lat="47.32739" lon="-2.41402">
        <ele>47</ele>
        <time>2024-01-09T17:07:01Z</time>
      </trkpt>
      <trkpt lat="47.32727" lon="-2.4135">
        <ele>48</ele>
        <time>2024-01-09T17:07:50Z</time>
      </trkpt>
      <trkpt lat="47.32744" lon="-2.41331">
        <ele>47</ele>
        <time>2024-01-09T17:08:19Z</time>
      </trkpt>
      <trkpt lat="47.3275" lon="-2.41304">
        <ele>47</ele>
        <time>2024-01-09T17:08:44Z</time>
      </trkpt>
      <trkpt lat="47.3277" lon="-2.41294">
        <ele>47</ele>
        <time>2024-01-09T17:09:13Z</time>
      </trkpt>
      <trkpt lat="47.32808" lon="-2.41288">
        <ele>46</ele>
        <time>2024-01-09T17:10:04Z</time>
      </trkpt>
      <trkpt lat="47.3283" lon="-2.41293">
        <ele>46</ele>
        <time>2024-01-09T17:10:33Z</time>
      </trkpt>
      <trkpt lat="47.32848" lon="-2.41285">
        <ele>46</ele>
        <time>2024-01-09T17:10:58Z</time>
      </trkpt>
      <trkpt lat="47.3291" lon="-2.41279">
        <ele>47</ele>
        <time>2024-01-09T17:12:21Z</time>
      </trkpt>
      <trkpt lat="47.32928" lon="-2.41282">
        <ele>46</ele>
        <time>2024-01-09T17:12:45Z</time>
      </trkpt>
      <trkpt lat="47.3295" lon="-2.41272">
        <ele>46</ele>
        <time>2024-01-09T17:13:16Z</time>
      </trkpt>
      <trkpt lat="47.3297" lon="-2.41272">
        <ele>45</ele>
        <time>2024-01-09T17:13:43Z</time>
      </trkpt>
      <trkpt lat="47.3299" lon="-2.41263">
        <ele>45</ele>
        <time>2024-01-09T17:14:11Z</time>
      </trkpt>
      <trkpt lat="47.33004" lon="-2.41245">
        <ele>45</ele>
        <time>2024-01-09T17:14:36Z</time>
      </trkpt>
      <trkpt lat="47.3303" lon="-2.41199">
        <ele>45</ele>
        <time>2024-01-09T17:15:30Z</time>
      </trkpt>
      <trkpt lat="47.3304" lon="-2.41173">
        <ele>44</ele>
        <time>2024-01-09T17:15:57Z</time>
      </trkpt>
      <trkpt lat="47.33066" lon="-2.41124">
        <ele>44</ele>
        <time>2024-01-09T17:16:53Z</time>
      </trkpt>
      <trkpt lat="47.33076" lon="-2.41099">
        <ele>44</ele>
        <time>2024-01-09T17:17:19Z</time>
      </trkpt>
      <trkpt lat="47.33091" lon="-2.41043">
        <ele>44</ele>
        <time>2024-01-09T17:18:14Z</time>
      </trkpt>
      <trkpt lat="47.33092" lon="-2.41014">
        <ele>44</ele>
        <time>2024-01-09T17:18:40Z</time>
      </trkpt>
      <trkpt lat="47.3311" lon="-2.40999">
        <ele>43</ele>
        <time>2024-01-09T17:19:08Z</time>
      </trkpt>
      <trkpt lat="47.33142" lon="-2.40924">
        <ele>43</ele>
        <time>2024-01-09T17:20:28Z</time>
      </trkpt>
      <trkpt lat="47.33177" lon="-2.4086">
        <ele>43</ele>
        <time>2024-01-09T17:21:42Z</time>
      </trkpt>
      <trkpt lat="47.33218" lon="-2.40799">
        <ele>42</ele>
        <time>2024-01-09T17:23:00Z</time>
      </trkpt>
      <trkpt lat="47.3323" lon="-2.40765">
        <ele>41</ele>
        <time>2024-01-09T17:23:34Z</time>
      </trkpt>
      <trkpt lat="47.33237" lon="-2.40708">
        <ele>40</ele>
        <time>2024-01-09T17:24:27Z</time>
      </trkpt>
      <trkpt lat="47.33243" lon="-2.40679">
        <ele>39</ele>
        <time>2024-01-09T17:24:54Z</time>
      </trkpt>
      <trkpt lat="47.33282" lon="-2.4054">
        <ele>36</ele>
        <time>2024-01-09T17:27:10Z</time>
      </trkpt>
      <trkpt lat="47.33304" lon="-2.40494">
        <ele>36</ele>
        <time>2024-01-09T17:28:01Z</time>
      </trkpt>
      <trkpt lat="47.33313" lon="-2.40404">
        <ele>38</ele>
        <time>2024-01-09T17:29:24Z</time>
      </trkpt>
      <trkpt lat="47.33312" lon="-2.4037">
        <ele>39</ele>
        <time>2024-01-09T17:29:54Z</time>
      </trkpt>
      <trkpt lat="47.3333" lon="-2.40315">
        <ele>41</ele>
        <time>2024-01-09T17:30:50Z</time>
      </trkpt>
      <trkpt lat="47.33335" lon="-2.40287">
        <ele>42</ele>
        <time>2024-01-09T17:31:16Z</time>
      </trkpt>
      <trkpt lat="47.33352" lon="-2.40141">
        <ele>43</ele>
        <time>2024-01-09T17:33:30Z</time>
      </trkpt>
      <trkpt lat="47.33353" lon="-2.40084">
        <ele>43</ele>
        <time>2024-01-09T17:34:21Z</time>
      </trkpt>
      <trkpt lat="47.33356" lon="-2.40055">
        <ele>43</ele>
        <time>2024-01-09T17:34:48Z</time>
      </trkpt>
      <trkpt lat="47.33366" lon="-2.40029">
        <ele>43</ele>
        <time>2024-01-09T17:35:15Z</time>
      </trkpt>
      <trkpt lat="47.33384" lon="-2.40007">
        <ele>42</ele>
        <time>2024-01-09T17:35:46Z</time>
      </trkpt>
      <trkpt lat="47.33413" lon="-2.39955">
        <ele>41</ele>
        <time>2024-01-09T17:36:47Z</time>
      </trkpt>
      <trkpt lat="47.3349" lon="-2.39849">
        <ele>38</ele>
        <time>2024-01-09T17:39:07Z</time>
      </trkpt>
      <trkpt lat="47.33534" lon="-2.39783">
        <ele>37</ele>
        <time>2024-01-09T17:40:31Z</time>
      </trkpt>
      <trkpt lat="47.33583" lon="-2.39729">
        <ele>36</ele>
        <time>2024-01-09T17:41:53Z</time>
      </trkpt>
      <trkpt lat="47.33595" lon="-2.39703">
        <ele>36</ele>
        <time>2024-01-09T17:42:21Z</time>
      </trkpt>
      <trkpt lat="47.3361" lon="-2.39686">
        <ele>36</ele>
        <time>2024-01-09T17:42:47Z</time>
      </trkpt>
      <trkpt lat="47.33638" lon="-2.39637">
        <ele>37</ele>
        <time>2024-01-09T17:43:44Z</time>
      </trkpt>
      <trkpt lat="47.33678" lon="-2.39522">
        <ele>39</ele>
        <time>2024-01-09T17:45:41Z</time>
      </trkpt>
      <trkpt lat="47.33696" lon="-2.3946">
        <ele>39</ele>
        <time>2024-01-09T17:46:42Z</time>
      </trkpt>
      <trkpt lat="47.33705" lon="-2.39402">
        <ele>38</ele>
        <time>2024-01-09T17:47:36Z</time>
      </trkpt>
      <trkpt lat="47.3371" lon="-2.39317">
        <ele>36</ele>
        <time>2024-01-09T17:48:53Z</time>
      </trkpt>
      <trkpt lat="47.33729" lon="-2.39302">
        <ele>36</ele>
        <time>2024-01-09T17:49:22Z</time>
      </trkpt>
      <trkpt lat="47.33769" lon="-2.39301">
        <ele>35</ele>
        <time>2024-01-09T17:50:15Z</time>
      </trkpt>
      <trkpt lat="47.33806" lon="-2.3929">
        <ele>34</ele>
        <time>2024-01-09T17:51:06Z</time>
      </trkpt>
      <trkpt lat="47.3387" lon="-2.39283">
        <ele>33</ele>
        <time>2024-01-09T17:52:31Z</time>
      </trkpt>
      <trkpt lat="47.33889" lon="-2.39278">
        <ele>33</ele>
        <time>2024-01-09T17:52:57Z</time>
      </trkpt>
      <trkpt lat="47.3404" lon="-2.39254">
        <ele>30</ele>
        <time>2024-01-09T17:56:20Z</time>
      </trkpt>
      <trkpt lat="47.3406" lon="-2.39259">
        <ele>30</ele>
        <time>2024-01-09T17:56:47Z</time>
      </trkpt>
      <trkpt lat="47.34073" lon="-2.39319">
        <ele>31</ele>
        <time>2024-01-09T17:57:44Z</time>
      </trkpt>
      <trkpt lat="47.34087" lon="-2.39411">
        <ele>32</ele>
        <time>2024-01-09T17:59:09Z</time>
      </trkpt>
      <trkpt lat="47.34096" lon="-2.39434">
        <ele>31</ele>
        <time>2024-01-09T17:59:33Z</time>
      </trkpt>
      <trkpt lat="47.34115" lon="-2.39429">
        <ele>31</ele>
        <time>2024-01-09T17:59:59Z</time>
      </trkpt>
      <trkpt lat="47.34134" lon="-2.39419">
        <ele>31</ele>
        <time>2024-01-09T18:00:26Z</time>
      </trkpt>
      <trkpt lat="47.34171" lon="-2.39391">
        <ele>31</ele>
        <time>2024-01-09T18:01:21Z</time>
      </trkpt>
      <trkpt lat="47.34189" lon="-2.39381">
        <ele>30</ele>
        <time>2024-01-09T18:01:47Z</time>
      </trkpt>
      <trkpt lat="47.34225" lon="-2.39355">
        <ele>30</ele>
        <time>2024-01-09T18:02:41Z</time>
      </trkpt>
      <trkpt lat="47.34285" lon="-2.39319">
        <ele>29</ele>
        <time>2024-01-09T18:04:07Z</time>
      </trkpt>
      <trkpt lat="47.34306" lon="-2.39311">
        <ele>28</ele>
        <time>2024-01-09T18:04:36Z</time>
      </trkpt>
      <trkpt lat="47.34342" lon="-2.39289">
        <ele>27</ele>
        <time>2024-01-09T18:05:28Z</time>
      </trkpt>
      <trkpt lat="47.34365" lon="-2.3928">
        <ele>26</ele>
        <time>2024-01-09T18:06:00Z</time>
      </trkpt>
      <trkpt lat="47.34403" lon="-2.3926">
        <ele>25</ele>
        <time>2024-01-09T18:06:54Z</time>
      </trkpt>
      <trkpt lat="47.34484" lon="-2.39239">
        <ele>21</ele>
        <time>2024-01-09T18:08:43Z</time>
      </trkpt>
      <trkpt lat="47.34503" lon="-2.39232">
        <ele>20</ele>
        <time>2024-01-09T18:09:09Z</time>
      </trkpt>
      <trkpt lat="47.34541" lon="-2.39229">
        <ele>19</ele>
        <time>2024-01-09T18:10:00Z</time>
      </trkpt>
      <trkpt lat="47.34561" lon="-2.39235">
        <ele>18</ele>
        <time>2024-01-09T18:10:27Z</time>
      </trkpt>
      <trkpt lat="47.34582" lon="-2.39244">
        <ele>18</ele>
        <time>2024-01-09T18:10:57Z</time>
      </trkpt>
      <trkpt lat="47.34618" lon="-2.39267">
        <ele>17</ele>
        <time>2024-01-09T18:11:49Z</time>
      </trkpt>
      <trkpt lat="47.34652" lon="-2.39299">
        <ele>17</ele>
        <time>2024-01-09T18:12:43Z</time>
      </trkpt>
      <trkpt lat="47.34666" lon="-2.3932">
        <ele>17</ele>
        <time>2024-01-09T18:13:09Z</time>
      </trkpt>
      <trkpt lat="47.34687" lon="-2.3937">
        <ele>17</ele>
        <time>2024-01-09T18:14:03Z</time>
      </trkpt>
      <trkpt lat="47.34712" lon="-2.39453">
        <ele>18</ele>
        <time>2024-01-09T18:15:25Z</time>
      </trkpt>
      <trkpt lat="47.34717" lon="-2.39482">
        <ele>17</ele>
        <time>2024-01-09T18:15:52Z</time>
      </trkpt>
      <trkpt lat="47.34719" lon="-2.39512">
        <ele>18</ele>
        <time>2024-01-09T18:16:19Z</time>
      </trkpt>
      <trkpt lat="47.34717" lon="-2.39573">
        <ele>20</ele>
        <time>2024-01-09T18:17:14Z</time>
      </trkpt>
      <trkpt lat="47.34713" lon="-2.39599">
        <ele>20</ele>
        <time>2024-01-09T18:17:38Z</time>
      </trkpt>
      <trkpt lat="47.347" lon="-2.3962">
        <ele>20</ele>
        <time>2024-01-09T18:18:04Z</time>
      </trkpt>
      <trkpt lat="47.34688" lon="-2.39646">
        <ele>20</ele>
        <time>2024-01-09T18:18:33Z</time>
      </trkpt>
      <trkpt lat="47.34683" lon="-2.39675">
        <ele>20</ele>
        <time>2024-01-09T18:19:00Z</time>
      </trkpt>
      <trkpt lat="47.34678" lon="-2.3974">
        <ele>21</ele>
        <time>2024-01-09T18:19:59Z</time>
      </trkpt>
      <trkpt lat="47.34679" lon="-2.3977">
        <ele>21</ele>
        <time>2024-01-09T18:20:26Z</time>
      </trkpt>
      <trkpt lat="47.34668" lon="-2.39798">
        <ele>22</ele>
        <time>2024-01-09T18:20:55Z</time>
      </trkpt>
      <trkpt lat="47.3462" lon="-2.39863">
        <ele>23</ele>
        <time>2024-01-09T18:22:22Z</time>
      </trkpt>
      <trkpt lat="47.34604" lon="-2.39916">
        <ele>24</ele>
        <time>2024-01-09T18:23:15Z</time>
      </trkpt>
      <trkpt lat="47.34603" lon="-2.39946">
        <ele>23</ele>
        <time>2024-01-09T18:23:42Z</time>
      </trkpt>
      <trkpt lat="47.34593" lon="-2.39972">
        <ele>23</ele>
        <time>2024-01-09T18:24:09Z</time>
      </trkpt>
      <trkpt lat="47.34594" lon="-2.40001">
        <ele>23</ele>
        <time>2024-01-09T18:24:35Z</time>
      </trkpt>
      <trkpt lat="47.34605" lon="-2.40023">
        <ele>23</ele>
        <time>2024-01-09T18:25:00Z</time>
      </trkpt>
      <trkpt lat="47.34658" lon="-2.40107">
        <ele>23</ele>
        <time>2024-01-09T18:26:43Z</time>
      </trkpt>
      <trkpt lat="47.34679" lon="-2.40121">
        <ele>22</ele>
        <time>2024-01-09T18:27:14Z</time>
      </trkpt>
      <trkpt lat="47.347" lon="-2.40125">
        <ele>22</ele>
        <time>2024-01-09T18:27:42Z</time>
      </trkpt>
      <trkpt lat="47.34719" lon="-2.40133">
        <ele>22</ele>
        <time>2024-01-09T18:28:09Z</time>
      </trkpt>
      <trkpt lat="47.34736" lon="-2.40149">
        <ele>22</ele>
        <time>2024-01-09T18:28:36Z</time>
      </trkpt>
      <trkpt lat="47.34777" lon="-2.40207">
        <ele>23</ele>
        <time>2024-01-09T18:29:52Z</time>
      </trkpt>
      <trkpt lat="47.34794" lon="-2.40218">
        <ele>22</ele>
        <time>2024-01-09T18:30:16Z</time>
      </trkpt>
      <trkpt lat="47.34843" lon="-2.40307">
        <ele>20</ele>
        <time>2024-01-09T18:32:00Z</time>
      </trkpt>
      <trkpt lat="47.34853" lon="-2.4033">
        <ele>19</ele>
        <time>2024-01-09T18:32:25Z</time>
      </trkpt>
      <trkpt lat="47.3486" lon="-2.40358">
        <ele>18</ele>
        <time>2024-01-09T18:32:52Z</time>
      </trkpt>
      <trkpt lat="47.34884" lon="-2.40501">
        <ele>15</ele>
        <time>2024-01-09T18:35:05Z</time>
      </trkpt>
      <trkpt lat="47.34887" lon="-2.40529">
        <ele>15</ele>
        <time>2024-01-09T18:35:31Z</time>
      </trkpt>
      <trkpt lat="47.34886" lon="-2.40558">
        <ele>15</ele>
        <time>2024-01-09T18:35:57Z</time>
      </trkpt>
      <trkpt lat="47.34873" lon="-2.40578">
        <ele>15</ele>
        <time>2024-01-09T18:36:22Z</time>
      </trkpt>
      <trkpt lat="47.34843" lon="-2.40613">
        <ele>15</ele>
        <time>2024-01-09T18:37:13Z</time>
      </trkpt>
      <trkpt lat="47.34834" lon="-2.40638">
        <ele>16</ele>
        <time>2024-01-09T18:37:38Z</time>
      </trkpt>
      <trkpt lat="47.34823" lon="-2.40698">
        <ele>17</ele>
        <time>2024-01-09T18:38:35Z</time>
      </trkpt>
      <trkpt lat="47.34823" lon="-2.40729">
        <ele>17</ele>
        <time>2024-01-09T18:39:03Z</time>
      </trkpt>
      <trkpt lat="47.34828" lon="-2.4076">
        <ele>18</ele>
        <time>2024-01-09T18:39:32Z</time>
      </trkpt>
      <trkpt lat="47.34846" lon="-2.40776">
        <ele>19</ele>
        <time>2024-01-09T18:40:00Z</time>
      </trkpt>
      <trkpt lat="47.34889" lon="-2.40776">
        <ele>18</ele>
        <time>2024-01-09T18:40:57Z</time>
      </trkpt>
      <trkpt lat="47.34903" lon="-2.40797">
        <ele>19</ele>
        <time>2024-01-09T18:41:24Z</time>
      </trkpt>
      <trkpt lat="47.34913" lon="-2.40822">
        <ele>20</ele>
        <time>2024-01-09T18:41:50Z</time>
      </trkpt>
      <trkpt lat="47.34926" lon="-2.40843">
        <ele>20</ele>
        <time>2024-01-09T18:42:16Z</time>
      </trkpt>
      <trkpt lat="47.34935" lon="-2.40868">
        <ele>20</ele>
        <time>2024-01-09T18:42:41Z</time>
      </trkpt>
      <trkpt lat="47.34943" lon="-2.40926">
        <ele>22</ele>
        <time>2024-01-09T18:43:35Z</time>
      </trkpt>
      <trkpt lat="47.34932" lon="-2.41046">
        <ele>21</ele>
        <time>2024-01-09T18:45:24Z</time>
      </trkpt>
      <trkpt lat="47.34959" lon="-2.41123">
        <ele>17</ele>
        <time>2024-01-09T18:46:43Z</time>
      </trkpt>
      <trkpt lat="47.35009" lon="-2.41238">
        <ele>17</ele>
        <time>2024-01-09T18:48:46Z</time>
      </trkpt>
      <trkpt lat="47.35056" lon="-2.41364">
        <ele>18</ele>
        <time>2024-01-09T18:50:56Z</time>
      </trkpt>
      <trkpt lat="47.3507" lon="-2.41393">
        <ele>17</ele>
        <time>2024-01-09T18:51:28Z</time>
      </trkpt>
      <trkpt lat="47.35067" lon="-2.41421">
        <ele>17</ele>
        <time>2024-01-09T18:51:54Z</time>
      </trkpt>
      <trkpt lat="47.3505" lon="-2.41427">
        <ele>18</ele>
        <time>2024-01-09T18:52:17Z</time>
      </trkpt>
      <trkpt lat="47.34993" lon="-2.41455">
        <ele>20</ele>
        <time>2024-01-09T18:53:37Z</time>
      </trkpt>
      <trkpt lat="47.34957" lon="-2.41469">
        <ele>20</ele>
        <time>2024-01-09T18:54:27Z</time>
      </trkpt>
      <trkpt lat="47.34875" lon="-2.41494">
        <ele>20</ele>
        <time>2024-01-09T18:56:19Z</time>
      </trkpt>
      <trkpt lat="47.34833" lon="-2.4151">
        <ele>22</ele>
        <time>2024-01-09T18:57:17Z</time>
      </trkpt>
      <trkpt lat="47.34795" lon="-2.41516">
        <ele>21</ele>
        <time>2024-01-09T18:58:08Z</time>
      </trkpt>
      <trkpt lat="47.34754" lon="-2.41528">
        <ele>20</ele>
        <time>2024-01-09T18:59:04Z</time>
      </trkpt>
      <trkpt lat="47.34737" lon="-2.41536">
        <ele>20</ele>
        <time>2024-01-09T18:59:27Z</time>
      </trkpt>
      <trkpt lat="47.34717" lon="-2.41539">
        <ele>20</ele>
        <time>2024-01-09T18:59:54Z</time>
      </trkpt>
      <trkpt lat="47.34663" lon="-2.41557">
        <ele>20</ele>
        <time>2024-01-09T19:01:08Z</time>
      </trkpt>
      <trkpt lat="47.34643" lon="-2.4156">
        <ele>20</ele>
        <time>2024-01-09T19:01:35Z</time>
      </trkpt>
      <trkpt lat="47.34568" lon="-2.41595">
        <ele>21</ele>
        <time>2024-01-09T19:03:20Z</time>
      </trkpt>
      <trkpt lat="47.34547" lon="-2.416">
        <ele>22</ele>
        <time>2024-01-09T19:03:48Z</time>
      </trkpt>
      <trkpt lat="47.34508" lon="-2.41617">
        <ele>23</ele>
        <time>2024-01-09T19:04:42Z</time>
      </trkpt>
      <trkpt lat="47.34473" lon="-2.41635">
        <ele>24</ele>
        <time>2024-01-09T19:05:32Z</time>
      </trkpt>
      <trkpt lat="47.34456" lon="-2.41647">
        <ele>25</ele>
        <time>2024-01-09T19:05:57Z</time>
      </trkpt>
      <trkpt lat="47.34439" lon="-2.41667">
        <ele>25</ele>
        <time>2024-01-09T19:06:26Z</time>
      </trkpt>
      <trkpt lat="47.34427" lon="-2.41687">
        <ele>26</ele>
        <time>2024-01-09T19:06:50Z</time>
      </trkpt>
      <trkpt lat="47.34392" lon="-2.41712">
        <ele>27</ele>
        <time>2024-01-09T19:07:42Z</time>
      </trkpt>
      <trkpt lat="47.34358" lon="-2.41734">
        <ele>27</ele>
        <time>2024-01-09T19:08:32Z</time>
      </trkpt>
      <trkpt lat="47.34301" lon="-2.41759">
        <ele>28</ele>
        <time>2024-01-09T19:09:51Z</time>
      </trkpt>
      <trkpt lat="47.34263" lon="-2.41784">
        <ele>29</ele>
        <time>2024-01-09T19:10:47Z</time>
      </trkpt>
      <trkpt lat="47.34244" lon="-2.41793">
        <ele>30</ele>
        <time>2024-01-09T19:11:13Z</time>
      </trkpt>
      <trkpt lat="47.34227" lon="-2.41779">
        <ele>30</ele>
        <time>2024-01-09T19:11:39Z</time>
      </trkpt>
      <trkpt lat="47.34209" lon="-2.41722">
        <ele>28</ele>
        <time>2024-01-09T19:12:36Z</time>
      </trkpt>
      <trkpt lat="47.34196" lon="-2.41699">
        <ele>28</ele>
        <time>2024-01-09T19:13:03Z</time>
      </trkpt>
      <trkpt lat="47.34179" lon="-2.41711">
        <ele>29</ele>
        <time>2024-01-09T19:13:28Z</time>
      </trkpt>
      <trkpt lat="47.34131" lon="-2.4176">
        <ele>31</ele>
        <time>2024-01-09T19:14:46Z</time>
      </trkpt>
      <trkpt lat="47.34083" lon="-2.418">
        <ele>32</ele>
        <time>2024-01-09T19:16:00Z</time>
      </trkpt>
      <trkpt lat="47.34067" lon="-2.41817">
        <ele>32</ele>
        <time>2024-01-09T19:16:26Z</time>
      </trkpt>
      <trkpt lat="47.34025" lon="-2.41884">
        <ele>32</ele>
        <time>2024-01-09T19:17:49Z</time>
      </trkpt>
      <trkpt lat="47.33983" lon="-2.41944">
        <ele>34</ele>
        <time>2024-01-09T19:19:07Z</time>
      </trkpt>
      <trkpt lat="47.33939" lon="-2.41998">
        <ele>37</ele>
        <time>2024-01-09T19:20:23Z</time>
      </trkpt>
      <trkpt lat="47.33923" lon="-2.42016">
        <ele>38</ele>
        <time>2024-01-09T19:20:50Z</time>
      </trkpt>
      <trkpt lat="47.33886" lon="-2.42049">
        <ele>38</ele>
        <time>2024-01-09T19:21:47Z</time>
      </trkpt>
      <trkpt lat="47.33833" lon="-2.42084">
        <ele>37</ele>
        <time>2024-01-09T19:23:05Z</time>
      </trkpt>
      <trkpt lat="47.33819" lon="-2.42107">
        <ele>37</ele>
        <time>2024-01-09T19:23:33Z</time>
      </trkpt>
      <trkpt lat="47.33836" lon="-2.42253">
        <ele>38</ele>
        <time>2024-01-09T19:25:47Z</time>
      </trkpt>
      <trkpt lat="47.33847" lon="-2.42312">
        <ele>40</ele>
        <time>2024-01-09T19:26:42Z</time>
      </trkpt>
      <trkpt lat="47.33855" lon="-2.42395">
        <ele>40</ele>
        <time>2024-01-09T19:27:58Z</time>
      </trkpt>
      <trkpt lat="47.33867" lon="-2.42448">
        <ele>40</ele>
        <time>2024-01-09T19:28:49Z</time>
      </trkpt>
      <trkpt lat="47.33851" lon="-2.4246">
        <ele>39</ele>
        <time>2024-01-09T19:29:13Z</time>
      </trkpt>
      <trkpt lat="47.33841" lon="-2.42483">
        <ele>39</ele>
        <time>2024-01-09T19:29:37Z</time>
      </trkpt>
      <trkpt lat="47.33811" lon="-2.42599">
        <ele>41</ele>
        <time>2024-01-09T19:31:30Z</time>
      </trkpt>
      <trkpt lat="47.338" lon="-2.42621">
        <ele>42</ele>
        <time>2024-01-09T19:31:54Z</time>
      </trkpt>
      <trkpt lat="47.33793" lon="-2.42648">
        <ele>42</ele>
        <time>2024-01-09T19:32:20Z</time>
      </trkpt>
      <trkpt lat="47.33778" lon="-2.42737">
        <ele>39</ele>
        <time>2024-01-09T19:33:43Z</time>
      </trkpt>
      <trkpt lat="47.33758" lon="-2.42741">
        <ele>39</ele>
        <time>2024-01-09T19:34:10Z</time>
      </trkpt>
      <trkpt lat="47.3374" lon="-2.42738">
        <ele>40</ele>
        <time>2024-01-09T19:34:34Z</time>
      </trkpt>
      <trkpt lat="47.33719" lon="-2.42738">
        <ele>40</ele>
        <time>2024-01-09T19:35:02Z</time>
      </trkpt>
      <trkpt lat="47.33662" lon="-2.42722">
        <ele>41</ele>
        <time>2024-01-09T19:36:20Z</time>
      </trkpt>
      <trkpt lat="47.33581" lon="-2.42745">
        <ele>41</ele>
        <time>2024-01-09T19:38:10Z</time>
      </trkpt>
      <trkpt lat="47.33572" lon="-2.42719">
        <ele>41</ele>
        <time>2024-01-09T19:38:36Z</time>
      </trkpt>
      <trkpt lat="47.33584" lon="-2.42658">
        <ele>42</ele>
        <time>2024-01-09T19:39:34Z</time>
      </trkpt>
      <trkpt lat="47.33584" lon="-2.42631">
        <ele>42</ele>
        <time>2024-01-09T19:39:58Z</time>
      </trkpt>
      <trkpt lat="47.33575" lon="-2.42551">
        <ele>42</ele>
        <time>2024-01-09T19:41:12Z</time>
      </trkpt>
      <trkpt lat="47.33567" lon="-2.42526">
        <ele>43</ele>
        <time>2024-01-09T19:41:37Z</time>
      </trkpt>
      <trkpt lat="47.33554" lon="-2.42506">
        <ele>43</ele>
        <time>2024-01-09T19:42:02Z</time>
      </trkpt>
      <trkpt lat="47.33509" lon="-2.42486">
        <ele>45</ele>
        <time>2024-01-09T19:43:04Z</time>
      </trkpt>
      <trkpt lat="47.3349" lon="-2.4248">
        <ele>45</ele>
        <time>2024-01-09T19:43:30Z</time>
      </trkpt>
      <trkpt lat="47.33456" lon="-2.42446">
        <ele>47</ele>
        <time>2024-01-09T19:44:25Z</time>
      </trkpt>
      <trkpt lat="47.33418" lon="-2.42433">
        <ele>49</ele>
        <time>2024-01-09T19:45:17Z</time>
      </trkpt>
      <trkpt lat="47.33396" lon="-2.42432">
        <ele>49</ele>
        <time>2024-01-09T19:45:46Z</time>
      </trkpt>
      <trkpt lat="47.33364" lon="-2.42466">
        <ele>48</ele>
        <time>2024-01-09T19:46:39Z</time>
      </trkpt>
      <trkpt lat="47.33328" lon="-2.42488">
        <ele>48</ele>
        <time>2024-01-09T19:47:31Z</time>
      </trkpt>
      <trkpt lat="47.33264" lon="-2.42545">
        <ele>47</ele>
        <time>2024-01-09T19:49:11Z</time>
      </trkpt>
      <trkpt lat="47.33251" lon="-2.42564">
        <ele>46</ele>
        <time>2024-01-09T19:49:35Z</time>
      </trkpt>
      <trkpt lat="47.332" lon="-2.426">
        <ele>45</ele>
        <time>2024-01-09T19:50:51Z</time>
      </trkpt>
      <trkpt lat="47.33184" lon="-2.42586">
        <ele>45</ele>
        <time>2024-01-09T19:51:16Z</time>
      </trkpt>
      <trkpt lat="47.33174" lon="-2.4256">
        <ele>45</ele>
        <time>2024-01-09T19:51:43Z</time>
      </trkpt>
      <trkpt lat="47.33155" lon="-2.42556">
        <ele>46</ele>
        <time>2024-01-09T19:52:08Z</time>
      </trkpt>
      <trkpt lat="47.33139" lon="-2.42571">
        <ele>46</ele>
        <time>2024-01-09T19:52:34Z</time>
      </trkpt>
      <trkpt lat="47.33132" lon="-2.42601">
        <ele>46</ele>
        <time>2024-01-09T19:53:02Z</time>
      </trkpt>
      <trkpt lat="47.33131" lon="-2.42622">
        <ele>46</ele>
        <time>2024-01-09T19:53:21Z</time>
      </trkpt>
      <trkpt lat="47.33131" lon="-2.4262">
        <ele>46</ele>
        <time>2024-01-09T19:53:23Z</time>
      </trkpt>
    </trkseg>
  </trk>
</gpx>